     2              OBSERVATION DATA    GPS                 RINEX VERSION / TYPE
teqc 1999Jul19 20000201 02:01:47UTC                         PGM / RUN BY / DATE
                                                            COMMENT
L2: 1 -> 1; 5 -> 5; 60 -> 9                                 COMMENT
L2: 1 -> 1; 5 -> 5; 60 -> 9                                 COMMENT
L2: 1 -> 1; 5 -> 5; 60 -> 9                                 COMMENT
L2: 1 -> 1; 5 -> 5; 60 -> 9                                 COMMENT
L2: 1 -> 1; 5 -> 5; 60 -> 9                                 COMMENT
Original Marker Name: 0006                                  COMMENT
Campaign Name: Imperial Valley Leveling                     COMMENT
4-Character Station Name: 0006                              COMMENT
6-Character Antenna Code: TRMSST                            COMMENT
Vertical Measurement Point: BPA                             COMMENT
Vertical Offset to Rinex Ref. Point: 0.0000                 COMMENT
Radial Measurement Point: RRP                               COMMENT
Radial Offset to Rinex Ref. Point: 0.0000                   COMMENT
Antenna Height from Field Measurement: 2.2160 m             COMMENT
Additional Antenna Identification Info.:                    COMMENT
Model 14532.00                                              COMMENT
Original XYZ: -2308847.3956 -4802340.4014 3493570.5953      COMMENT
New XYZ position is based on association with SCEC monument COMMENT
E1D0L3I6+0021. Position of that monument is believed to be  COMMENT
valid to within 1 m horizontally; vertical accuracy         COMMENT
should be no worse than 3-times this value.                 COMMENT
                                                            COMMENT
Revised Rinex header created by UCSD GPS archive for        COMMENT
GSAC on 17-Jul-2000 (2000:199) 21:13:17 GMT                 COMMENT
For assistance contact dagnew@ucsd.edu                      COMMENT
or anderson@python.ucsd.edu                                 COMMENT
                                                            COMMENT
V 1230                                                      MARKER NAME
0006                                                        MARKER NUMBER
-Unknown- CALIF DEPT TRANSPORTATION                         OBSERVER / AGENCY
7373 TRIMBLE 4000 SSE NP 6.04; SP 2.07                      REC # / TYPE / VERS
S/N UNKNOWN TR 4000SST L1/L2 GEO                            ANT # / TYPE
 -2308850.4674 -4802338.7180  3493567.0109                  APPROX POSITION XYZ
        2.2160        0.0000        0.0000                  ANTENNA: DELTA H/E/N
     1     1     0                                          WAVELENGTH FACT L1/2
     7    C1    L1    L2    P1    P2    S1    S2            # / TYPES OF OBSERV
     0                                                      INTERVAL
  1995     4    21    15    13   15.000000                  TIME OF FIRST OBS
  1995     4    21    22    15    0.000000                  TIME OF LAST OBS
                                                            END OF HEADER
 95  4 21 15 13 15.0000000  0  8G14G18G19G22G27G28G29G31
                     51541.34514     40161.62415  23521081.805    23521084.664
         7.000           6.750
                     -9206.95417     -7174.72916  20338312.625    20338313.742
        22.000          20.500
                    -13216.36316    -10298.09316  21402415.648    21402417.410
        15.750          16.500
                     47622.53115     37108.25915  23519819.883    23519821.941
         9.250           9.250
                    -27579.64014    -21490.75815  24066514.664    24066516.914
         6.250           6.500
                    -11060.35415     -8618.32715  23380325.398    23380326.707
        11.750          10.500
                     12048.01417      9388.02716  20548821.125    20548822.496
        20.250          22.250
                    -32385.03015    -25235.89515  23429268.977    23429272.332
         8.500           8.500
 95  4 21 15 13 30.0000000  0  8G14G18G19G22G27G28G29G31
                    110808.874 5     86344.094 5  23532360.477    23532362.516
         7.500           6.250
                    -19960.667 7    -15554.221 6  20336266.102    20336267.188
        22.000          20.500
                    -28653.379 6    -22326.905 6  21399478.242    21399479.844
        15.750          16.500
                    102397.092 5     79789.733 5  23530242.430    23530245.004
         9.000           9.250
                    -59623.311 4    -46459.823 5  24060416.867    24060419.473
         6.250           6.750
                    -23950.478 5    -18662.543 5  23377872.547    23377873.688
        11.500          10.750
                     25815.897 7     20116.268 6  20551440.820    20551442.480
        20.000          22.500
                    -69942.924 5    -54501.727 5  23422122.852    23422126.016
         8.750           9.000
 95  4 21 15 13 45.0000000  0  8G14G18G19G22G27G28G29G31
                    169898.574 4    132388.011 5  23543604.500    23543606.637
         7.000           6.250
                    -30799.609 7    -24000.132 6  20334203.703    20334204.738
        22.000          20.250
                    -44239.393 6    -34471.825 6  21396512.016    21396513.691
        15.750          16.500
                    157025.118 5    122357.015 5  23540638.344    23540640.320
         9.250           9.000
                    -91848.189 3    -71570.089 5  24054284.563    24054287.371
         6.000           6.750
                    -36925.051 5    -28772.558 5  23375402.820    23375404.551
        11.000          10.500
                     39490.563 7     30771.870 6  20554042.852    20554044.582
        20.000          22.750
                   -107651.277 5    -83884.810 5  23414947.883    23414951.047
         9.750          10.000
 95  4 21 15 14  0.0000000  0  8G14G18G19G22G27G28G29G31
                    228851.659 4    178325.454 5  23554823.211    23554825.625
         7.250           6.250
                    -41682.912 7    -32480.608 6  20332132.617    20332133.590
        22.000          20.250
                    -59931.820 6    -46699.666 6  21393526.102    21393527.777
        15.750          16.500
                    211545.737 5    164840.620 5  23551014.180    23551015.277
        10.250           8.750
                   -124213.992 3    -96790.174 5  24048125.320    24048128.117
         6.000           6.750
                    -49942.238 5    -38915.789 5  23372925.359    23372927.570
        10.500          10.500
                     53113.944 6     41387.500 6  20556635.172    20556637.059
        19.750          22.500
                   -145475.295 5   -113358.013 5  23407750.156    23407753.262
         9.500          10.000
 95  4 21 15 14 15.0000000  0  8G14G18G19G22G27G28G29G31
                    287692.309 5    224175.279 5  23566020.688    23566022.605
         7.500           6.250
                    -52594.594 7    -40983.203 6  20330056.258    20330057.164
        22.000          20.000
                    -75708.983 6    -58993.539 6  21390523.938    21390525.484
        15.750          16.500
                    265980.074 5    207256.997 5  23561371.922    23561373.855
         9.500           9.000
                   -156702.756 3   -122106.070 5  24041943.383    24041945.996
         5.750           6.750
                    -62981.841 5    -49076.484 5  23370444.164    23370446.887
        10.750          11.000
                     66706.391 6     51979.031 6  20559221.711    20559223.676
        19.500          22.250
                   -183399.846 5   -142909.571 5  23400533.273    23400535.129
         9.250           9.000
 95  4 21 15 14 30.0000000  0  8G14G18G19G22G27G28G29G31
                    346430.645 5    269945.397 5  23577198.305    23577199.941
         7.500           6.250
                    -63528.961 7    -49503.474 6  20327975.516    20327976.438
        22.000          20.000
                    -91561.152 6    -71345.853 6  21387507.117    21387508.984
        15.750          16.500
                    320336.035 5    249612.260 5  23571715.625    23571717.602
         9.250           9.250
                   -189306.336 3   -147511.428 5  24035738.875    24035741.500
         5.750           6.750
                    -76034.640 5    -59247.458 5  23367960.250    23367962.949
        10.750          11.000
                     80275.250 6     62552.171 6  20561803.594    20561805.828
        19.500          22.250
                   -221414.110 5   -172531.044 5  23393297.750    23393299.773
         8.250           8.250
 95  4 21 15 14 45.0000000  0  8G14G18G19G22G27G28G29G31
                    405077.145 5    315643.941 5  23588358.477    23588360.664
         7.500           6.250
                    -74476.371 7    -58033.911 6  20325892.172    20325893.039
        22.000          20.000
                   -107480.711 6    -83750.680 6  21384477.805    21384479.453
        16.000          16.500
                    374621.564 5    291912.682 5  23582045.977    23582047.199
        10.250           8.250
                   -222018.655 3   -173001.517 5  24029513.625    24029516.738
         5.500           6.750
                    -89090.485 5    -69420.819 5  23365476.555    23365477.969
        11.000          10.750
                     93827.782 6     73112.590 6  20564382.578    20564384.535
        19.000          22.250
                   -259507.511 5   -202214.180 5  23386049.336    23386051.121
         8.500           8.500
 95  4 21 15 15  0.0000000  0  8G14G18G19G22G27G28G29G31
                    463644.583 5    361280.870 5  23599503.313    23599505.695
         7.500           6.250
                    -85425.076 7    -66565.359 6  20323808.891    20323809.805
        22.250          20.000
                   -123456.200 6    -96199.091 6  21381438.016    21381439.555
        16.250          17.000
                    428847.302 5    334166.507 5  23592365.023    23592366.938
         9.750           9.250
                   -254823.675 3   -198563.846 5  24023271.156    24023274.016
         5.750           6.750
                   -102137.278 5    -79587.110 5  23362993.203    23362995.664
        10.750          11.000
                    107374.845 6     83668.752 6  20566960.359    20566962.363
        19.000          22.000
                   -297666.654 5   -231948.541 5  23378787.008    23378790.531
         8.250           9.250
 95  4 21 15 15 15.0000000  0  8G14G18G19G22G27G28G29G31
                    522132.270 5    406855.662 5  23610633.484    23610635.266
         7.750           6.250
                    -96377.381 7    -75099.611 6  20321724.695    20321725.652
        22.250          20.250
                   -139486.595 6   -108690.286 6  21378387.211    21378389.078
        16.250          17.000
                    483009.483 5    376370.774 5  23602671.539    23602673.707
        10.250           9.500
                   -287717.762 3   -224195.570 5  24017011.844    24017014.035
         6.000           6.250
                   -115175.318 5    -89746.591 5  23360512.008    23360514.313
        10.750          10.750
                    120916.838 6     94220.957 6  20569537.359    20569539.414
        19.000          22.000
                   -335890.504 5   -261733.308 5  23371512.977    23371517.895
         8.500          10.250
 95  4 21 15 15 30.0000000  0  8G14G18G19G22G27G28G29G31
                    580534.112 5    452363.576 5  23621746.734    23621749.488
         7.750           6.750
                   -107340.854 7    -83642.561 6  20319638.477    20319639.328
        22.000          20.000
                   -155577.038 6   -121228.275 6  21375325.367    21375327.219
        16.000          17.000
                    537103.385 5    418521.873 5  23612965.570    23612966.516
        10.250           8.500
                   -320705.641 4   -249900.397 5  24010734.805    24010736.137
         6.250           5.750
                   -128209.184 5    -99902.824 5  23358032.727    23358033.770
        11.000          10.250
                    134449.014 6    104765.520 6  20572112.492    20572114.465
        19.000          21.750
                   -374184.416 5   -291572.664 5  23364226.641    23364230.934
         9.250          10.250
 95  4 21 15 15 45.0000000  0  8G14G18G19G22G27G28G29G31
                    638847.910 5    497802.858 5  23632843.148    23632846.734
         7.500           7.000
                   -118319.735 7    -92197.522 6  20317549.344    20317550.273
        22.250          20.250
                   -171727.822 6   -133813.284 6  21372252.039    21372253.730
        16.250          17.000
                    591125.029 5    460616.660 5  23623245.258    23623247.098
         9.750           9.000
                   -353785.850 4   -275677.186 5  24004439.977    24004440.715
         6.500           5.500
                   -141239.024 5   -110055.925 5  23355552.109    23355554.637
        10.750          10.750
                    147972.271 6    115303.128 6  20574685.930    20574687.617
        19.000          21.500
                   -412551.173 5   -321468.794 5  23356926.016    23356929.359
         9.750           9.500
 95  4 21 15 16  0.0000000  0  8G14G18G19G22G27G28G29G31
                    697073.306 5    543173.264 5  23643923.141    23643926.289
         7.500           6.750
                   -129316.521 7   -100766.431 6  20315456.547    20315457.434
        22.000          20.250
                   -187938.467 6   -146444.936 6  21369167.094    21369169.164
        16.250          17.000
                    645072.313 5    502653.491 5  23633510.852    23633512.984
        10.000           9.500
                   -386954.849 4   -301523.149 5  23998128.031    23998129.379
         6.500           5.500
                   -154264.913 5   -120205.935 5  23353073.938    23353075.625
        10.750          10.500
                    161486.887 6    125834.003 6  20577257.719    20577259.238
        19.000          21.250
                   -450989.125 5   -351420.421 5  23349611.328    23349613.887
         9.250           8.500
 95  4 21 15 16 15.0000000  0  8G14G18G19G22G27G28G29G31
                    755204.867 5    588470.552 5  23654985.070    23654988.332
         7.500           6.750
                   -140338.336 7   -109354.849 6  20313359.234    20313360.184
        22.000          20.250
                   -204216.055 6   -159128.754 6  21366069.664    21366071.793
        16.250          17.250
                    698939.653 5    544628.034 5  23643761.508    23643763.375
         9.250           9.000
                   -420219.477 4   -327443.626 5  23991798.055    23991798.340
         6.750           5.500
                   -167293.013 5   -130357.682 5  23350594.805    23350596.219
        11.000          10.250
                    174987.282 6    136353.794 6  20579826.719    20579828.266
        19.000          21.250
                   -489499.219 5   -381428.257 5  23342282.664    23342285.445
         8.750           7.750
 95  4 21 15 16 30.0000000  0  8G14G18G19G22G27G28G29G31
                    813235.737 5    633689.375 5  23666028.727    23666031.594
         7.750           7.000
                   -151390.832 7   -117967.170 6  20311256.063    20311256.816
        22.000          20.000
                   -220568.642 6   -171871.012 6  21362958.148    21362959.805
        16.500          17.000
                    752722.176 5    586536.489 5  23653995.602    23653998.141
         9.250           9.500
                   -453582.534 4   -353440.800 5  23985449.539    23985450.141
         6.750           6.000
                   -180329.165 5   -140515.701 5  23348113.992    23348115.723
        10.750          10.250
                    188468.141 6    146858.363 6  20582392.156    20582393.387
        19.250          21.000
                   -528081.788 5   -411492.565 5  23334940.969    23334943.484
         9.000           7.750
 95  4 21 15 16 45.0000000  0  8G14G18G19G22G27G28G29G31
                    871163.768 5    678828.076 5  23677052.000    23677054.656
         7.750           6.750
                   -162466.423 7   -126597.487 6  20309148.453    20309149.340
        21.750          20.000
                   -236997.794 6   -184672.931 6  21359831.430    21359833.199
        16.500          17.000
                    806421.402 5    628380.019 5  23664214.805    23664216.805
         9.500          10.000
                   -487042.505 4   -379513.488 5  23979081.750    23979082.699
         6.250           6.250
                   -193372.830 5   -150679.578 5  23345632.328    23345633.551
        11.500          10.250
                    201932.195 6    157349.837 6  20584954.461    20584955.672
        19.500          21.000
                   -566733.832 5   -441611.013 5  23327586.250    23327589.004
         9.250           8.250
 95  4 21 15 17  0.0000000  0  8G14G18G19G22G27G28G29G31
                    928991.060 5    723888.273 5  23688056.016    23688058.551
         7.500           6.750
                   -173560.421 7   -135242.150 6  20307037.352    20307038.371
        22.000          20.000
                   -253499.580 6   -197531.449 6  21356691.172    21356693.016
        16.250          17.000
                    860040.660 5    670161.239 5  23674418.453    23674420.148
         9.250           9.250
                   -520594.775 3   -405658.095 5  23972696.797    23972698.816
         6.000           7.000
                   -206420.359 5   -160846.462 5  23343149.555    23343151.027
        11.500          10.500
                    215386.670 6    167833.850 6  20587514.828    20587515.789
        19.750          21.000
                   -605452.516 5   -471781.373 5  23320219.102    23320221.930
         9.750           9.000
 95  4 21 15 17 15.0000000  0  8G14G18G19G22G27G28G29G31
                    986722.332 5    768873.652 5  23699041.922    23699045.188
         7.500           7.000
                   -184665.683 7   -143895.587 6  20304923.984    20304924.941
        21.750          20.000
                   -270066.967 6   -210441.086 6  21353538.789    21353540.348
        16.500          17.000
                    913582.786 5    711882.380 5  23684607.016    23684608.922
         9.250           9.250
                   -554230.857 3   -431867.995 5  23966295.828    23966298.973
         5.750           7.750
                   -219465.377 5   -171011.388 5  23340667.133    23340668.465
        11.750          10.500
                    228841.967 6    178318.503 6  20590075.313    20590076.309
        19.500          21.000
                   -644232.823 5   -501999.769 5  23312839.867    23312842.328
        10.250           9.250
 95  4 21 15 17 30.0000000  0  8G14G18G19G22G27G28G29G31
                   1044358.175 5    813784.662 5  23710009.797    23710013.109
         7.500           7.000
                   -195778.871 7   -152555.202 6  20302809.094    20302810.059
        22.000          20.000
                   -286697.018 6   -223399.551 6  21350374.094    21350375.555
        16.500          17.000
                    967049.597 5    753544.814 5  23694780.875    23694783.492
         8.750           9.750
                   -587951.281 3   -458143.608 5  23959879.367    23959881.531
         6.000           7.750
                   -232506.066 5   -181172.952 5  23338185.133    23338186.742
        11.500          10.500
                    242299.398 6    188804.816 6  20592636.258    20592637.211
        19.750          21.000
                   -683075.045 5   -532266.408 5  23305447.484    23305450.340
         9.500           9.000
 95  4 21 15 17 45.0000000  0  8G14G18G19G22G27G28G29G31
                   1101903.267 4    858624.950 5  23720960.063    23720963.594
         7.000           7.000
                   -206892.710 7   -161215.320 6  20300694.203    20300695.395
        21.750          20.000
                   -303383.370 6   -236401.882 6  21347198.781    21347200.289
        16.250          17.000
                   1020447.963 5    795153.906 5  23704942.602    23704944.660
         8.750           9.250
                   -621749.867 4   -484480.138 5  23953447.461    23953450.355
         6.250           8.250
                   -245536.226 5   -191326.315 5  23335705.531    23335707.219
        11.500          10.750
                    255765.907 7    199298.206 6  20595199.047    20595199.617
        20.250          20.500
                   -721974.969 5   -562578.010 5  23298044.656    23298047.320
         9.250           8.500
 95  4 21 15 18  0.0000000  0  8G14G18G19G22G27G28G29G31
                   1159356.889 4    903393.964 5  23731893.305    23731897.039
         7.000           7.000
                   -218009.846 7   -169878.011 6  20298578.789    20298579.816
        21.750          20.000
                   -320129.188 6   -249450.556 6  21344012.086    21344013.727
        16.500          17.000
                   1073776.522 5    836708.616 5  23715091.031    23715092.895
         9.000           9.000
                   -655628.797 4   -510879.288 5  23947000.852    23947003.160
         6.750           8.250
                   -258557.679 5   -201472.876 5  23333227.469    23333229.645
        11.250          10.750
                    269241.432 6    209798.615 6  20597763.148    20597764.031
        19.750          20.500
                   -760932.707 5   -592934.663 5  23290630.617    23290632.891
         9.000           8.000
 95  4 21 15 18 15.0000000  0  8G14G18G19G22G27G28G29G31
                   1216727.537 4    948098.314 5  23742810.484    23742814.449
         6.750           7.500
                   -229125.738 7   -178539.732 6  20296463.508    20296464.621
        21.750          20.000
                   -336929.524 6   -262541.707 6  21340814.961    21340816.613
        16.250          17.250
                   1127043.726 5    878215.529 5  23725227.273    23725229.133
         9.000           8.750
                   -689584.153 4   -537337.975 5  23940539.945    23940542.031
         7.250           8.250
                   -271563.721 5   -211607.442 5  23330753.023    23330754.266
        11.750          10.750
                    282730.996 7    220309.966 6  20600330.563    20600330.898
        20.250          20.500
                   -799940.087 5   -623329.998 5  23283208.078    23283210.383
         9.250           8.500
 95  4 21 15 18 30.0000000  0  8G14G18G19G22G27G28G29G31
                   1274019.111 4    992741.056 5  23753712.898    23753716.316
         6.750           7.000
                   -240233.443 7   -187195.079 6  20294349.625    20294350.781
        21.750          20.000
                   -353779.835 6   -275671.803 6  21337608.328    21337610.238
        16.250          17.000
                   1180252.939 5    919677.254 5  23735352.461    23735354.676
         8.500           9.250
                   -723613.026 4   -563853.969 5  23934064.219    23934066.195
         7.000           7.750
                   -284550.056 5   -221726.652 5  23328281.594    23328282.906
        11.750          10.750
                    296238.206 7    230835.070 6  20602900.617    20602901.137
        20.250          20.500
                   -838994.740 5   -653762.167 5  23275776.516    23275778.891
        10.000           9.250
 95  4 21 15 18 45.0000000  0  8G14G18G19G22G27G28G29G31
                   1331229.132 4   1037320.256 5  23764599.188    23764602.480
         6.750           6.750
                   -251331.521 7   -195842.925 6  20292237.773    20292238.836
        21.750          20.000
                   -370675.234 6   -288837.031 6  21334393.500    21334395.137
        16.500          17.000
                   1233404.017 5    961093.635 5  23745466.883    23745469.230
         8.000           9.750
                   -757715.612 4   -590427.393 5  23927574.367    23927576.430
         7.000           7.500
                   -297515.022 5   -231829.214 5  23325814.672    23325816.125
        11.750          10.750
                    309764.940 7    241375.387 6  20605475.055    20605475.133
        20.500          20.250
                   -878098.308 5   -684232.461 5  23268335.477    23268338.492
        10.000          10.000
 95  4 21 15 19  0.0000000  0  8G14G18G19G22G27G28G29G31
                   1388360.707 4   1081838.331 5  23775471.383    23775474.520
         6.750           6.750
                   -262419.313 7   -204482.755 6  20290128.031    20290128.941
        21.750          20.000
                   -387610.320 6   -302033.185 6  21331170.961    21331172.555
        16.500          17.000
                   1286497.534 5   1002465.191 5  23755570.352    23755572.816
         8.750           9.250
                   -791891.387 4   -617057.859 5  23921071.203    23921072.809
         7.000           7.250
                   -310454.793 5   -241912.126 5  23323352.195    23323353.855
        11.750          11.000
                    323314.792 7    251933.713 6  20608053.344    20608053.512
        20.500          20.250
                   -917248.158 5   -714738.796 5  23260884.438    23260888.422
         9.500          10.250
 95  4 21 15 19 15.0000000  0  8G14G18G19G22G27G28G29G31
                   1445418.459 4   1126298.875 5  23786328.938    23786332.598
         6.750           6.750
                   -273496.889 7   -213114.624 6  20288019.992    20288021.137
        21.750          20.000
                   -404582.832 6   -315258.502 6  21327941.133    21327942.785
        16.500          17.250
                   1339535.748 5   1043793.660 5  23765663.250    23765665.539
         9.000           9.000
                   -826137.596 4   -643743.197 5  23914554.211    23914555.707
         6.500           7.000
                   -323365.699 6   -251972.552 5  23320895.523    23320897.191
        12.250          11.000
                    336887.720 7    262510.025 6  20610636.563    20610636.305
        21.000          20.000
                   -956440.379 5   -745278.157 5  23253426.414    23253430.031
         9.250           9.750
 95  4 21 15 19 30.0000000  0  8G14G18G19G22G27G28G29G31
                   1502411.174 4   1170708.744 5  23797174.031    23797177.656
         6.250           6.500
                   -284554.361 7   -221730.829 6  20285915.711    20285916.895
        21.750          20.000
                   -421586.199 6   -328507.864 6  21324705.711    21324707.148
        16.750          17.250
                   1392528.467 5   1085086.670 5  23775747.305    23775749.320
         8.750           8.500
                   -860446.316 4   -670477.233 5  23908024.938    23908027.645
         6.250           7.250
                   -336239.424 6   -262004.013 5  23318445.398    23318447.020
        12.000          11.000
                    350486.246 7    273106.279 6  20613224.344    20613224.223
        21.000          20.250
                   -995667.930 5   -775845.052 5  23245961.180    23245965.281
         9.000           9.750
 95  4 21 15 19 45.0000000  0  7G14G18G22G27G28G29G31
                   1559348.822 4   1215075.701 5  23808009.180    23808012.297
         6.250           6.250
                   -295584.263 7   -230325.551 6  20283816.906    20283817.945
        21.750          19.750
                   1445489.271 5   1126354.818 5  23785825.492    23785827.598
         9.250           8.250
                   -894809.608 4   -697253.807 5  23901485.742    23901487.910
         6.250           7.000
                   -349066.649 5   -271999.240 5  23316004.602    23316005.762
        11.750          10.750
                    364117.532 7    283728.063 6  20615818.000    20615817.871
        21.000          20.000
                  -1034920.499 5   -806431.439 5  23238492.063    23238495.762
         9.000           9.750
 95  4 21 15 20  0.0000000  0  8G14G18G19G22G27G28G29G31
                   1616232.348 4   1259400.496 5  23818833.898    23818836.730
         6.250           6.250
                   -306589.778 7   -238901.271 6  20281722.695    20281723.746
        21.750          19.750
                     -5688.94016     -4432.59016  21318219.789    21318221.371
        16.750          17.250
                   1498417.353 5   1167597.476 5  23795897.453    23795899.355
         9.500           7.750
                   -929229.512 4   -724074.489 5  23894936.336    23894938.219
         6.500           6.750
                   -361847.328 5   -281958.193 5  23313571.984    23313573.684
        11.500          10.750
                    377780.176 7    294374.285 6  20618418.117    20618418.027
        21.000          20.000
                  -1074196.215 5   -837035.869 5  23231019.297    23231021.602
         9.750           9.250
 95  4 21 15 20 15.0000000  0  8G14G18G19G22G27G28G29G31
                   1673062.599 4   1303683.762 5  23829648.117    23829650.875
         6.250           6.000
                   -317568.375 7   -247456.015 6  20279633.352    20279634.523
        21.750          19.750
                    -22772.693 6    -17744.592 6  21314968.758    21314970.340
        16.750          17.500
                   1551315.055 5   1208816.459 5  23805963.430    23805965.594
         9.000           8.000
                   -963705.023 4   -750938.515 5  23888376.094    23888377.707
         6.500           6.750
                   -374580.152 5   -291879.855 5  23311149.016    23311151.055
        11.500          11.000
                    391474.169 7    305044.934 6  20621023.813    20621023.957
        21.000          20.250
                  -1113492.313 5   -867656.194 5  23223541.086    23223543.914
         9.500           9.250
 95  4 21 15 20 30.0000000  0  8G14G18G19G22G27G28G29G31
                   1729840.659 4   1347926.365 5  23840453.398    23840455.453
         6.750           6.000
                   -328511.793 7   -255983.349 6  20277550.992    20277552.156
        21.750          19.750
                    -39879.292 6    -31074.394 6  21311713.664    21311715.223
        17.000          17.500
                   1604184.451 5   1250013.381 5  23816023.734    23816026.613
         9.250           8.500
                   -998232.397 4   -777842.948 5  23881805.273    23881806.848
         6.250           6.500
                   -387261.508 5   -301761.409 5  23308735.859    23308737.930
        11.500          11.000
                    405202.439 7    315742.286 6  20623636.203    20623636.121
        20.750          19.750
                  -1152807.398 5   -898291.303 5  23216058.984    23216062.613
         9.000           9.500
 95  4 21 15 20 45.0000000  0  8G14G18G19G22G27G28G29G31
                   1786578.984 4   1392138.010 5  23851249.953    23851253.270
         6.750           6.000
                   -339404.592 7   -264471.237 6  20275478.023    20275479.141
        21.750          19.750
                    -56996.523 6    -44412.482 6  21308456.047    21308457.652
        16.750          17.250
                   1657037.486 5   1291197.547 5  23826081.719    23826084.156
         9.250           8.500
                  -1032798.196 3   -804777.322 5  23875227.406    23875230.512
         6.000           6.750
                   -399877.668 5   -311592.163 5  23306335.594    23306337.113
        11.750          11.000
                    418979.864 7    326477.944 6  20626257.953    20626257.977
        20.500          20.250
                  -1192127.541 5   -928930.338 5  23208577.273    23208580.699
         9.250           9.750
 95  4 21 15 21  0.0000000  0  8G14G18G19G22G27G28G29G31
                   1843280.714 4   1436321.137 5  23862039.875    23862043.680
         6.500           6.250
                   -350245.754 7   -272918.888 6  20273415.102    20273416.262
        21.500          19.750
                    -74124.572 6    -57758.998 6  21305196.898    21305198.441
        16.750          17.250
                   1709876.079 5   1332370.452 5  23836136.758    23836139.047
         9.250           8.500
                  -1067400.131 3   -831739.847 5  23868643.047    23868645.555
         6.000           7.000
                   -412426.760 6   -321370.653 5  23303947.602    23303949.043
        12.000          11.250
                    432805.691 7    337251.324 6  20628888.719    20628889.055
        20.250          20.000
                  -1231449.852 5   -959571.068 5  23201094.586    23201097.789
         9.250           9.250
 95  4 21 15 21 15.0000000  0  8G14G18G19G22G27G28G29G31
                   1899956.376 4   1480483.955 5  23872824.844    23872828.801
         6.750           6.000
                   -361026.045 7   -281319.107 6  20271363.727    20271364.840
        21.750          19.500
                    -91258.038 6    -71109.731 6  21301936.453    21301938.035
        17.000          17.500
                   1762709.384 5   1373539.240 5  23846190.539    23846192.895
         9.250           8.250
                  -1102029.792 4   -858723.969 5  23862053.570    23862056.160
         6.250           7.250
                   -424900.823 5   -331090.688 5  23301573.875    23301574.883
        11.750          11.000
                    446684.820 6    348066.236 6  20631529.617    20631530.289
        19.750          20.250
                  -1270764.819 5   -990206.081 5  23193613.664    23193615.996
        10.000           9.000
 95  4 21 15 21 30.0000000  0  8G14G18G19G22G27G28G29G31
                   1956601.186 4   1524622.730 5  23883604.031    23883607.559
         6.500           5.750
                   -371745.037 7   -289671.561 6  20269323.961    20269324.855
        21.750          19.500
                   -108399.357 6    -84466.592 6  21298674.477    21298676.102
        16.750          17.250
                   1815536.229 5   1414703.007 5  23856243.406    23856245.730
         9.500           8.250
                  -1136689.458 4   -885731.493 5  23855457.672    23855460.414
         6.250           7.000
                   -437302.524 5   -340754.326 5  23299213.531    23299215.422
        11.500          11.250
                    460614.048 6    358920.180 6  20634180.227    20634181.027
        19.750          20.250
                  -1310075.762 5  -1020837.982 5  23186132.820    23186134.961
        10.250           8.750
 95  4 21 15 21 45.0000000  0  8G14G18G19G22G27G28G29G31
                   2013214.421 4   1568736.903 5  23894377.266    23894380.992
         6.250           5.750
                   -382400.634 7   -297974.618 6  20267296.422    20267297.332
        21.750          19.500
                   -125542.701 6    -97825.029 6  21295412.180    21295413.641
        16.750          17.250
                   1868357.170 5   1455862.176 5  23866294.836    23866296.840
         9.250           7.750
                  -1171376.150 4   -912760.057 5  23848856.898    23848859.559
         6.500           7.250
                   -449629.780 5   -350359.954 5  23296867.492    23296869.789
        11.250          11.500
                    474597.618 6    369816.465 6  20636841.266    20636842.016
        19.750          20.250
                  -1349380.112 5  -1051464.737 5  23178653.531    23178655.527
        10.750           9.000
 95  4 21 15 22  0.0000000  0  8G14G18G19G22G27G28G29G31
                   2069793.970 4   1612824.817 5  23905144.148    23905147.941
         6.500           6.000
                   -392994.373 7   -306229.473 6  20265280.422    20265281.449
        21.750          19.500
                   -142687.510 6   -111184.613 6  21292149.617    21292151.051
        16.750          17.250
                   1921168.000 5   1497013.451 5  23876344.578    23876346.543
         9.000           8.000
                  -1206090.194 4   -939809.946 5  23842251.164    23842254.531
         7.000           7.500
                   -461883.245 5   -359908.079 5  23294535.688    23294537.820
        11.250          11.500
                    488638.947 6    380757.763 6  20639512.992    20639514.141
        19.250          20.500
                  -1388675.707 5  -1082084.677 5  23171175.773    23171178.082
        10.750           9.250
 95  4 21 15 22 15.0000000  0  8G14G18G19G22G27G28G29G31
                   2126369.813 4   1656909.853 5  23915910.086    23915914.191
         6.250           6.000
                   -403492.017 7   -314409.453 6  20263282.789    20263283.656
        21.750          19.250
                   -159799.226 6   -124518.404 6  21288893.086    21288894.793
        16.500          17.250
                   1973997.175 5   1538179.017 5  23886397.484    23886399.621
         9.000           8.250
                  -1240798.550 4   -966855.404 5  23835646.555    23835649.020
         7.000           7.000
                   -474031.473 5   -369374.206 5  23292224.234    23292225.762
        11.750          11.250
                    502771.178 6    391769.891 6  20642202.141    20642203.492
        19.000          20.500
                  -1427931.180 5  -1112673.340 5  23163706.125    23163708.305
        11.500           9.750
 95  4 21 15 22 30.0000000  0  8G14G18G19G22G27G28G29G31
                   2182924.329 3   1700978.272 5  23926671.648    23926675.352
         6.000           5.250
                   -413906.069 7   -322524.292 6  20261301.164    20261301.852
        21.750          19.250
                   -176892.931 6   -137838.159 6  21285640.211    21285641.813
        16.500          17.250
                   2026826.908 5   1579345.012 5  23896450.852    23896453.074
         9.250           8.500
                  -1275514.310 5   -993906.634 5  23829040.547    23829042.691
         7.500           6.750
                   -486089.865 5   -378770.334 5  23289929.766    23289931.484
        11.750          11.500
                    516979.130 6    402841.027 6  20644905.867    20644907.301
        19.000          21.000
                  -1467160.651 6  -1143241.763 5  23156241.469    23156242.750
        12.000           9.500
 95  4 21 15 22 45.0000000  0  8G14G18G19G22G27G28G29G31
                   2239460.658 3   1745032.527 5  23937430.078    23937433.676
         6.000           5.250
                   -424233.891 7   -330571.941 6  20259335.773    20259336.641
        21.750          19.000
                   -193967.961 6   -151143.361 6  21282391.156    21282392.531
        16.750          17.250
                   2079660.880 5   1620514.320 5  23906504.836    23906507.426
         9.250           8.500
                  -1310234.956 5  -1020961.678 5  23822433.305    23822435.582
         7.500           6.750
                   -498054.416 5   -388093.329 5  23287652.656    23287654.707
        11.500          11.250
                    531265.398 6    413973.186 6  20647624.445    20647625.922
        19.000          21.000
                  -1506357.815 5  -1173785.006 5  23148781.781    23148784.141
        11.000          10.000
 95  4 21 15 23  0.0000000  0  8G14G18G19G22G27G28G29G31
                   2295981.416 3   1789074.626 5  23948185.172    23948189.059
         5.500           5.250
                   -434476.233 7   -338552.983 6  20257386.688    20257387.660
        21.750          19.000
                   -211021.280 6   -164431.652 6  21279146.055    21279147.488
        17.000          17.250
                   2132499.756 5   1661687.445 5  23916559.805    23916562.055
         9.500           7.750
                  -1344959.204 5  -1048019.528 5  23815825.297    23815827.133
         7.500           6.750
                   -509923.485 5   -397341.926 5  23285393.992    23285395.867
        11.750          11.500
                    545630.108 6    425166.461 6  20650358.016    20650359.520
        19.000          21.000
                  -1545521.104 5  -1204301.841 5  23141328.484    23141331.609
        10.250          10.000
 95  4 21 15 23 15.0000000  0  8G14G18G19G22G27G28G29G31
                   2352486.705 3   1833104.661 5  23958937.633    23958940.910
         5.250           5.000
                   -444632.483 7   -346466.937 6  20255454.125    20255455.113
        22.000          19.000
                   -228050.128 6   -177700.866 6  21275905.656    21275906.988
        17.000          17.250
                   2185345.924 5   1702866.262 5  23926615.930    23926618.289
         8.750           7.500
                  -1379686.329 5  -1075079.608 5  23809216.844    23809219.078
         7.500           7.000
                   -521696.067 6   -406515.343 5  23283154.211    23283155.566
        12.250          11.250
                    560073.682 6    436421.189 6  20653106.492    20653108.035
        19.000          21.000
                  -1584648.591 5  -1234790.781 5  23133882.180    23133886.172
         9.750          10.500
 95  4 21 15 23 30.0000000  0  8G14G18G19G22G27G28G29G31
                   2408984.706 3   1877129.034 5  23969689.086    23969691.953
         5.500           5.000
                   -454692.418 7   -354305.841 6  20253539.578    20253540.555
        22.000          19.000
                   -245044.895 6   -190943.530 6  21272671.813    21272672.957
        17.000          17.250
                   2238209.747 5   1744058.840 5  23936675.719    23936677.930
         8.250           7.500
                  -1414407.024 4  -1102134.684 5  23802609.797    23802612.648
         7.000           7.500
                   -533362.175 6   -415605.788 5  23280933.977    23280935.672
        12.250          11.500
                    574608.694 6    447747.171 6  20655872.539    20655873.879
        19.250          21.000
                  -1623728.408 5  -1265242.564 5  23126445.516    23126450.059
         9.750          11.250
 95  4 21 15 23 45.0000000  0  8G14G18G19G22G27G28G29G31
                   2465471.445 3   1921144.635 5  23980438.219    23980441.426
         5.500           5.000
                   -464663.151 7   -362075.243 6  20251642.281    20251643.086
        22.000          19.000
                   -262009.725 6   -204162.863 6  21269443.328    21269444.680
        17.000          17.250
                   2291086.749 5   1785261.668 5  23946737.766    23946739.980
         8.250           7.750
                  -1449123.433 4  -1129186.404 5  23796003.070    23796006.141
         6.750           7.500
                   -544925.460 6   -424616.118 5  23278733.516    23278735.305
        12.000          11.500
                    589233.684 6    459143.264 6  20658655.617    20658656.996
        19.000          21.000
                  -1662764.806 5  -1295660.509 5  23119016.625    23119021.594
         9.250          11.500
 95  4 21 15 24  0.0000000  0  7G14G18G22G27G28G29G31
                   2521947.832 3   1965152.156 5  23991185.406    23991188.953
         5.500           5.250
                   -474549.525 7   -369778.910 6  20249760.969    20249761.813
        22.000          18.750
                   2343974.097 5   1826472.560 5  23956801.789    23956804.375
         8.250           8.500
                  -1483839.911 4  -1156238.188 5  23789397.102    23789399.465
         6.750           7.500
                   -556388.434 5   -433548.280 5  23276551.969    23276554.188
        11.750          11.500
                    603944.893 6    470606.540 6  20661455.117    20661456.395
        19.250          21.000
                  -1701758.775 5  -1326045.394 5  23111596.297    23111600.422
         9.000          10.500
 95  4 21 15 24 15.0000000  0  7G14G18G22G27G28G29G31
                   2578409.600 3   2009148.295 5  24001930.289    24001932.926
         5.750           5.000
                   -484356.465 7   -377420.676 6  20247894.570    20247895.633
        22.000          18.750
                   2396870.257 5   1867690.301 5  23966867.750    23966870.020
         8.250           8.500
                  -1518563.127 4  -1183295.217 5  23782789.109    23782792.074
         6.250           7.500
                   -567754.410 6   -442404.863 5  23274389.477    23274391.277
        12.250          11.500
                    618737.714 6    482133.412 6  20664270.055    20664271.426
        19.000          21.000
                  -1740714.424 5  -1356400.426 5  23104183.492    23104186.793
         9.250          10.000
 95  4 21 15 24 30.0000000  0  8G14G18G19G22G27G28G29G31
                   2634845.388 3   2053124.204 5  24012669.602    24012672.555
         5.750           5.000
                   -494094.657 7   -385008.875 6  20246041.758    20246042.738
        22.000          18.750
                    -12400.733 6     -9662.77116  21259780.891    21259782.629
        16.500          17.500
                   2449766.749 5   1908908.321 5  23976933.617    23976935.996
         8.750           9.000
                  -1553304.103 4  -1210366.080 5  23776178.344    23776180.887
         6.500           7.500
                   -579032.733 6   -451193.140 5  23272243.281    23272244.859
        12.250          11.500
                    633601.557 6    493715.622 6  20667098.695    20667099.980
        19.500          21.000
                  -1779642.225 5  -1386733.766 5  23096776.648    23096779.152
         9.750          10.000
 95  4 21 15 24 45.0000000  0  8G14G18G19G22G27G28G29G31
                   2691263.977 3   2097086.709 5  24023405.938    24023409.832
         5.750           5.750
                   -503756.772 7   -392537.789 6  20244203.070    20244203.965
        21.750          18.750
                    -29296.588 6    -22828.361 6  21256565.750    21256567.426
        16.500          17.500
                   2502672.470 5   1950133.517 5  23987001.273    23987003.828
         9.250           9.000
                  -1588055.292 4  -1237444.906 5  23769566.008    23769568.012
         6.750           7.500
                   -590214.332 5   -459906.061 5  23270115.000    23270117.391
        11.750          11.500
                    648541.000 6    505356.748 6  20669941.547    20669942.844
        19.500          20.750
                  -1818534.507 5  -1417039.431 5  23089375.469    23089378.789
        10.000          10.000
 95  4 21 15 25  0.0000000  0  8G14G18G19G22G27G28G29G31
                   2747679.395 3   2141046.728 5  24034142.086    24034146.016
         6.000           6.000
                   -513330.425 7   -399997.777 6  20242381.313    20242382.203
        22.000          18.750
                    -46161.533 6    -35969.868 6  21253356.508    21253358.320
        16.500          17.750
                   2555599.014 5   1991374.952 5  23997073.016    23997075.352
         9.500           9.000
                  -1622806.386 4  -1264523.660 5  23762952.773    23762955.305
         6.750           7.750
                   -601287.764 6   -468534.686 5  23268008.141    23268010.125
        12.000          11.500
                    663569.685 6    517067.409 6  20672801.648    20672802.816
        19.750          20.750
                  -1857384.437 5  -1447312.088 5  23081982.891    23081985.781
        10.250          10.000
 95  4 21 15 25 15.0000000  0  8G14G18G19G22G27G28G29G31
                   2804087.737 3   2185001.246 5  24044876.180    24044879.406
         6.000           5.750
                   -522819.504 7   -407391.863 6  20240575.539    20240576.391
        21.750          18.750
                    -62999.571 6    -49090.407 6  21250152.219    21250154.078
        16.500          17.750
                   2608542.023 5   2032629.212 5  24007147.633    24007150.289
         9.750           9.000
                  -1657561.134 4  -1291605.268 5  23756339.250    23756341.797
         6.750           7.750
                   -612256.834 6   -477081.995 5  23265920.539    23265922.609
        12.000          11.250
                    678684.148 6    528844.904 6  20675677.883    20675678.844
        19.750          20.750
                  -1896196.991 5  -1477555.632 5  23074596.891    23074599.504
        10.250           9.750
 95  4 21 15 25 30.0000000  0  7G14G18G22G27G28G29G31
                   2860490.062 3   2228951.070 5  24055608.633    24055612.379
         5.500           5.500
                   -532218.167 7   -414715.490 6  20238787.141    20238788.027
        21.750          18.750
                   2661507.757 5   2073901.178 5  24017226.695    24017229.320
         9.250           8.500
                  -1692317.351 4  -1318688.012 5  23749725.586    23749727.211
         7.000           7.750
                   -623117.515 5   -485544.847 5  23263853.742    23263855.473
        11.750          11.000
                    693890.447 7    540693.963 6  20678571.641    20678572.316
        20.000          20.750
                  -1934965.500 5  -1507764.853 5  23067220.180    23067221.898
        11.000           9.500
 95  4 21 15 25 45.0000000  0  8G14G18G19G22G27G28G29G31
                   2916882.773 3   2272893.393 5  24066340.094    24066344.016
         5.500           6.000
                   -541529.809 7   -421971.312 6  20237015.211    20237016.102
        22.000          18.750
                     -2235.34516     -1742.57516  21243759.961    21243761.441
        16.750          17.500
                   2714488.735 5   2115185.027 5  24027308.500    24027311.102
         9.000           8.000
                  -1727077.521 4  -1345773.844 5  23743110.711    23743112.742
         7.000           8.000
                   -633873.605 5   -493926.196 5  23261806.875    23261808.516
        11.750          11.000
                    709185.499 7    552612.180 6  20681482.563    20681482.703
        20.500          20.250
                  -1973695.930 5  -1537944.409 5  23059850.438    23059852.340
        11.500          10.000
 95  4 21 15 26  0.0000000  0  8G14G18G19G22G27G28G29G31
                   2973270.262 3   2316831.654 5  24077070.391    24077074.910
         5.750           6.500
                   -550748.950 7   -429155.056 6  20235260.656    20235261.477
        22.000          18.750
                    -18990.399 6    -14798.448 6  21240571.656    21240573.250
        16.750          17.500
                   2767487.724 5   2156482.909 5  24037394.039    24037396.523
         8.250           7.500
                  -1761836.385 4  -1372858.650 5  23736496.102    23736498.762
         7.000           8.250
                   -644519.220 6   -502221.458 5  23259781.516    23259782.891
        12.250          11.000
                    724574.200 7    564603.372 6  20684411.000    20684411.117
        20.500          20.500
                  -2012384.172 5  -1568091.091 5  23052488.539    23052490.406
        11.500          10.000
 95  4 21 15 26 15.0000000  0  8G14G18G19G22G27G28G29G31
                   3029637.760 3   2360754.323 5  24087795.953    24087800.605
         5.250           6.000
                   -559881.286 7   -436271.157 6  20233522.883    20233523.805
        21.750          18.500
                    -35725.427 6    -27838.720 6  21237386.977    21237388.648
        17.000          17.500
                   2820492.544 5   2197785.332 5  24047480.508    24047483.105
         8.000           7.000
                  -1796605.363 4  -1399951.334 5  23729879.953    23729882.555
         7.000           8.500
                   -655065.121 6   -510439.032 5  23257774.625    23257776.043
        12.500          11.000
                    740045.820 7    576659.179 6  20687355.172    20687355.359
        20.500          20.500
                  -2051041.283 5  -1598213.516 5  23045131.953    23045134.930
        11.250          10.250
 95  4 21 15 26 30.0000000  0  8G14G18G19G22G27G28G29G31
                   3085982.599 3   2404659.340 5  24098517.352    24098522.324
         5.000           5.750
                   -568925.427 7   -443318.539 6  20231801.813    20231802.688
        21.750          18.500
                    -52441.294 6    -40864.063 6  21234206.094    21234207.668
        17.000          17.500
                   2873501.479 5   2239090.970 5  24057567.891    24057570.613
         7.500           6.250
                  -1831383.470 5  -1427051.129 5  23723261.859    23723264.469
         7.500           8.750
                   -665512.370 6   -518579.733 5  23255786.758    23255788.117
        12.500          11.000
                    755601.234 7    588780.279 6  20690315.102    20690315.320
        20.750          20.500
                  -2089669.100 5  -1628313.100 5  23037781.102    23037784.363
        11.000          10.750
 95  4 21 15 26 45.0000000  0  8G14G18G19G22G27G28G29G31
                   3142308.235 3   2448549.405 5  24109236.602    24109241.285
         5.500           6.000
                   -577877.859 7   -450294.455 6  20230098.250    20230099.180
        22.000          18.500
                    -69138.524 6    -53874.879 6  21231028.695    21231030.238
        17.000          17.750
                   2926512.704 4   2280398.378 5  24067655.547    24067658.363
         6.750           6.000
                  -1866167.186 5  -1454155.295 5  23716642.469    23716645.129
         7.500           8.500
                   -675860.416 6   -526643.132 5  23253817.266    23253818.629
        12.500          10.750
                    771238.649 7    600965.276 6  20693290.859    20693291.012
        20.750          20.500
                  -2128265.494 5  -1658388.202 5  23030435.813    23030439.793
        10.250          10.750
 95  4 21 15 27  0.0000000  0  8G14G18G19G22G27G28G29G31
                   3198615.841 3   2492425.420 5  24119951.922    24119956.512
         5.500           6.000
                   -586736.800 7   -457197.519 6  20228412.336    20228413.309
        22.000          18.750
                    -85817.190 6    -66871.234 6  21227854.813    21227856.410
        17.000          17.750
                   2979526.167 4   2321707.541 5  24077743.828    24077746.379
         6.500           5.250
                  -1900956.647 5  -1481263.943 5  23710022.297    23710024.879
         7.750           8.500
                   -686109.174 6   -534629.166 5  23251867.203    23251868.930
        12.500          11.000
                    786959.898 7    613215.601 6  20696282.516    20696282.641
        20.500          20.250
                  -2166830.637 5  -1688438.947 5  23023096.234    23023100.777
         9.500          11.000
 95  4 21 15 27 15.0000000  0  8G14G18G19G22G27G28G29G31
                   3254906.084 3   2536287.887 5  24130663.109    24130667.410
         5.000           5.500
                   -595502.186 7   -464027.691 6  20226744.656    20226745.555
        22.000          18.750
                   -102474.931 6    -79851.286 6  21224685.102    21224686.668
        17.000          17.750
                   3032543.110 3   2363019.427 5  24087832.523    24087835.223
         6.000           4.750
                  -1935751.554 5  -1508376.836 5  23703401.117    23703403.719
         7.750           8.000
                   -696256.495 6   -542536.154 5  23249936.008    23249937.762
        12.500          11.250
                    802770.611 7    625535.638 6  20699291.109    20699291.313
        20.500          20.250
                  -2205358.258 5  -1718460.445 5  23015764.578    23015768.969
         9.000          11.000
 95  4 21 15 27 30.0000000  0  8G14G18G19G22G27G28G29G31
                   3311176.280 3   2580134.745 5  24141371.953    24141374.266
         5.500           4.750
                   -604176.538 7   -470786.926 6  20225093.938    20225094.766
        22.250          18.500
                   -119109.813 6    -92813.525 6  21221519.438    21221521.125
        17.000          18.000
                   3085563.844 3   2404334.255 4  24097922.383    24097924.578
         5.000           4.250
                  -1970548.235 5  -1535491.124 5  23696779.688    23696782.105
         7.750           7.750
                   -706300.733 6   -550362.816 5  23248024.758    23248026.258
        12.500          11.000
                    818670.984 7    637925.534 6  20702316.633    20702317.094
        20.250          20.500
                  -2243843.206 5  -1748448.693 5  23008441.383    23008445.469
         9.250          11.000
 95  4 21 15 27 45.0000000  0  8G14G18G19G22G27G28G29G31
                   3367420.139 3   2623961.112 5  24152075.289    24152078.074
         5.500           5.000
                   -612768.261 7   -477481.769 6  20223459.125    20223459.930
        22.250          18.750
                   -135725.960 6   -105761.158 6  21218357.453    21218359.184
        17.000          18.000
                   3138577.243 2   2445643.367 4  24108010.273    24108013.000
         4.250           3.750
                  -2005350.934 5  -1562610.102 5  23690156.883    23690159.066
         7.500           7.500
                   -716249.249 6   -558114.895 5  23246131.250    23246133.152
        12.250          11.000
                    834654.226 7    650380.017 6  20705358.117    20705358.566
        20.250          20.250
                  -2282293.540 5  -1778409.975 5  23001124.836    23001128.141
         9.750          10.750
 95  4 21 15 28  0.0000000  0  8G14G18G19G22G27G28G29G31
                   3423646.186 3   2667773.566 5  24162774.867    24162778.918
         5.250           6.000
                   -621272.415 7   -484108.383 6  20221840.664    20221841.633
        22.250          18.500
                   -152314.456 6   -118687.255 6  21215200.820    21215202.738
        17.000          18.000
                   3191589.145 2   2486951.305 3  24118097.938    24118100.730
         3.750           3.250
                  -2040149.565 4  -1589725.908 5  23683534.688    23683537.215
         7.250           7.500
                   -726093.387 6   -565785.643 5  23244257.734    23244259.254
        12.250          10.500
                    850727.289 7    662904.478 6  20708416.703    20708417.184
        20.250          20.250
                  -2320700.190 5  -1808337.221 5  22993816.531    22993819.191
        10.000          10.250
 95  4 21 15 28 15.0000000  0  8G14G18G19G22G27G28G29G31
                   3479844.610 3   2711564.480 5  24173469.875    24173472.324
         5.750           5.750
                   -629698.205 7   -490673.932 6  20220237.313    20220238.363
        22.250          18.750
                   -168886.888 6   -131600.826 6  21212046.945    21212048.988
        17.000          18.000
                   3244593.239 1     33038.17113  24128184.422    24128186.910
         3.500           2.750
                  -2074954.637 4  -1616846.731 5  23676911.406    23676913.953
         7.000           7.500
                   -735842.285 6   -573382.176 5  23242403.070    23242404.387
        12.250          10.750
                    866880.011 6    675491.013 6  20711490.164    20711491.023
        19.750          20.500
                  -2359070.759 5  -1838236.340 5  22986515.172    22986517.121
        10.250          10.250
 95  4 21 15 28 30.0000000  0  8G14G18G19G22G27G28G29G31
                   3536022.989 3   2755339.795 5  24184160.477    24184162.426
         5.750           5.000
                   -638041.579 7   -497175.258 6  20218649.648    20218650.582
        22.250          18.750
                   -185438.113 6   -144497.882 6  21208897.547    21208899.273
        17.000          18.000
                   3297596.293 1     74339.223 2  24138270.617    24138273.031
         3.000           2.250
                  -2109761.171 4  -1643968.689 5  23670287.625    23670290.270
         6.750           7.500
                   -745491.507 6   -580901.041 5  23240567.117    23240568.340
        12.750          10.750
                    883116.061 6    688142.474 6  20714579.813    20714580.703
        19.500          20.500
                  -2397400.038 5  -1868103.310 5  22979221.891    22979222.930
        11.250          10.000
 95  4 21 15 28 45.0000000  0  8G14G18G19G22G27G28G29G31
                   3592184.045 3   2799101.644 5  24194846.859    24194849.914
         5.000           5.000
                   -646305.376 7   -503614.577 6  20217077.000    20217077.938
        22.250          18.750
                   -201966.392 6   -157377.049 6  21205752.219    21205753.949
        17.000          18.000
                   3350597.678 1                                  24148356.383
         2.500
                  -2144567.792 4  -1671090.723 5  23663664.094    23663667.172
         6.750           7.750
                   -755039.451 6   -588340.987 5  23238750.320    23238751.547
        12.750          10.750
                    899435.547 6    700858.954 6  20717685.102    20717686.215
        19.500          20.500
                  -2435685.957 5  -1897936.483 5  22971936.063    22971938.219
        11.250          10.500
 95  4 21 15 29  0.0000000  0  7G18G19G22G27G28G29G31
                   -654479.438 7   -509983.969 6  20215521.430    20215522.426
        22.250          18.500
                   -218456.515 6   -170226.486 6  21202614.180    21202616.016
        17.000          18.000
                      7064.68611                                  24158444.172
         2.000
                  -2179362.496 4  -1698203.455 5  23657042.938    23657046.176
         7.000           7.750
                   -764473.720 6   -595692.353 5  23236954.992    23236956.387
        12.500          10.750
                    915852.239 6    713651.184 6  20720809.023    20720810.137
        19.500          20.500
                  -2473918.253 5  -1927727.865 5  22964660.664    22964662.848
        11.000          10.500
 95  4 21 15 29 15.0000000  0  6G18G19G27G28G29G31
                   -662578.609 7   -516295.012 6  20213980.305    20213981.289
        22.250          18.500
                   -234917.862 6   -183053.500 6  21199481.805    21199483.531
        17.000          18.000
                  -2214158.842 4  -1725317.476 5  23650421.297    23650424.113
         7.000           7.500
                   -773805.904 6   -602964.177 5  23235178.984    23235180.242
        12.500          10.750
                    932356.066 6    726511.307 6  20723949.742    20723950.703
        19.500          20.500
                  -2512108.249 5  -1957486.283 5  22957393.633    22957395.570
        11.500          10.250
 95  4 21 15 29 30.0000000  0  6G18G19G27G28G29G31
                   -670599.328 7   -522544.921 6  20212454.148    20212455.211
        22.250          18.500
                   -251348.021 6   -195856.212 6  21196355.266    21196356.980
        17.000          18.000
                  -2248952.136 4  -1752429.135 5  23643801.086    23643803.020
         7.250           7.250
                   -783032.138 6   -610153.444 5  23233423.141    23233424.516
        12.250          10.750
                    948948.944 6    739440.819 6  20727107.219    20727108.566
        19.250          20.750
                  -2550251.124 5  -1987207.989 5  22950135.172    22950137.109
        11.500          10.250
 95  4 21 15 29 45.0000000  0  6G18G19G27G28G29G31
                   -678535.177 7   -528728.699 6  20210944.102    20210945.016
        22.250          18.250
                   -267746.835 6   -208634.502 6  21193234.664    21193236.406
        17.000          18.000
                  -2283740.569 4  -1779536.996 5  23637180.609    23637183.367
         7.000           7.250
                   -792150.572 6   -617258.709 5  23231687.898    23231689.438
        12.250          10.750
                    965630.516 6    752439.441 6  20730281.602    20730282.910
        19.500          21.000
                  -2588344.592 5  -2016891.197 5  22942885.938    22942888.504
        11.250          10.250
 95  4 21 15 30  0.0000000  0  6G18G19G27G28G29G31
                   -686390.381 7   -534849.639 6  20209449.305    20209450.129
        22.250          18.250
                   -284123.206 6   -221395.301 6  21190118.391    21190120.035
        17.250          18.000
                  -2318534.403 4  -1806649.062 5  23630560.000    23630562.270
         7.250           7.500
                   -801168.164 5   -624285.402 5  23229971.773    23229973.496
        11.750          11.000
                    982394.154 6    765502.010 6  20733471.688    20733472.914
        19.500          21.000
                  -2626395.719 5  -2046541.402 5  22935645.398    22935647.895
        11.500          10.750
 95  4 21 15 30 15.0000000  0  6G18G19G27G28G29G31
                   -694157.645 7   -540902.055 6  20207971.188    20207972.082
        22.250          18.250
                   -300473.965 6   -234136.142 6  21187006.930    21187008.570
        17.250          18.000
                  -2353332.240 5  -1833764.254 5  23623938.227    23623940.410
         7.500           7.500
                   -810080.049 5   -631229.717 5  23228275.453    23228277.719
        11.750          11.000
                    999244.391 6    778632.061 6  20736678.102    20736679.512
        19.500          21.250
                  -2664400.416 5  -2076155.440 5  22928413.625    22928415.438
        11.500          10.500
 95  4 21 15 30 30.0000000  0  6G18G19G27G28G29G31
                   -701838.829 7   -546887.388 6  20206509.250    20206510.230
        22.250          18.250
                   -316802.123 6   -246859.375 6  21183899.773    21183901.492
        17.250          18.000
                  -2388139.951 5  -1860887.131 5  23617314.898    23617317.031
         7.750           8.000
                   -818890.268 6   -638094.823 5  23226599.453    23226601.059
        12.000          11.000
                   1016177.295 6    791826.526 6  20739900.516    20739902.063
        19.500          21.500
                  -2702364.234 5  -2105737.620 5  22921188.633    22921191.043
        10.750          10.250
 95  4 21 15 30 45.0000000  0  6G18G19G27G28G29G31
                   -709423.923 7   -552797.852 6  20205065.953    20205067.031
        22.250          18.250
                   -333097.990 6   -259557.444 6  21180798.859    21180800.492
        17.250          18.000
                  -2422949.247 5  -1888011.246 5  23610690.555    23610693.418
         7.750           8.250
                   -827590.069 6   -644873.882 5  23224943.984    23224945.563
        12.250          11.000
                   1033202.838 6    805093.176 6  20743140.469    20743141.820
        19.750          21.750
                  -2740279.075 5  -2135281.634 5  22913973.297    22913975.613
        10.250          10.000
 95  4 21 15 31  0.0000000  0  6G18G19G27G28G29G31
                   -716916.346 7   -558636.101 6  20203640.227    20203641.242
        22.250          18.250
                   -349368.528 6   -272235.775 6  21177702.789    21177704.508
        17.250          18.250
                  -2457766.947 5  -1915141.903 5  23604065.391    23604067.609
         8.250           8.500
                   -836184.852 6   -651571.109 5  23223308.328    23223310.172
        12.000          11.000
                   1050315.192 6    818427.471 6  20746396.859    20746398.391
        19.750          21.750
                  -2778148.702 5  -2164790.412 5  22906767.164    22906769.281
        10.500          10.250
 95  4 21 15 31 15.0000000  0  6G18G19G27G28G29G31
                   -724314.464 7   -564400.870 6  20202232.430    20202233.559
        22.250          18.250
                   -365615.880 6   -284896.043 6  21174610.813    21174612.363
        17.500          18.000
                  -2492594.999 5  -1942280.631 5  23597437.969    23597440.191
         8.250           8.750
                   -844675.480 6   -658187.181 5  23221692.664    23221694.461
        12.000          11.000
                   1067510.070 6    831826.066 6  20749669.039    20749670.641
        19.750          22.000
                  -2815972.249 5  -2194263.285 5  22899569.391    22899571.941
        10.750          10.500
 95  4 21 15 31 30.0000000  0  6G18G19G27G28G29G31
                   -731611.629 7   -570086.971 6  20200843.867    20200844.941
        22.250          18.250
                   -381841.097 6   -297539.059 6  21171523.430    21171524.941
        17.500          18.000
                  -2527429.529 5  -1969424.402 5  23590809.195    23590811.359
         7.750           8.750
                   -853058.389 6   -664719.308 5  23220097.969    23220099.121
        12.250          11.000
                   1084788.554 6    845289.810 6  20752957.055    20752958.707
        19.750          22.250
                  -2853743.377 5  -2223695.306 5  22892382.258    22892384.391
        11.000          10.750
 95  4 21 15 31 45.0000000  0  6G18G19G27G28G29G31
                   -738802.531 7   -575690.269 6  20199475.555    20199476.590
        22.250          18.250
                   -398042.873 6   -310163.812 6  21168440.305    21168441.820
        17.500          18.250
                  -2562267.181 5  -1996570.606 5  23584179.430    23584181.605
         7.750           8.750
                   -861331.380 6   -671165.790 5  23218523.086    23218524.586
        12.250          11.000
                   1102153.761 6    858821.134 6  20756261.688    20756263.191
        19.750          22.250
                  -2891459.508 5  -2253084.478 5  22885205.820    22885207.445
        11.750          11.000
 95  4 21 15 32  0.0000000  0  6G18G19G27G28G29G31
                   -745887.272 7   -581210.843 6  20198127.461    20198128.406
        22.250          18.250
                   -414218.382 6   -322768.098 6  21165362.313    21165363.754
        17.750          18.250
                  -2597104.775 5  -2023716.767 5  23577550.367    23577552.484
         8.000           8.750
                   -869492.280 6   -677524.927 5  23216970.383    23216971.711
        12.250          11.000
                   1119606.687 6    872420.809 6  20759582.945    20759584.469
        19.750          22.250
                  -2929120.258 6  -2282430.503 5  22878039.438    22878040.875
        12.500          11.000
 95  4 21 15 32 15.0000000  0  6G18G19G27G28G29G31
                   -752878.497 7   -586658.549 6  20196797.078    20196798.141
        22.250          18.250
                   -430378.927 6   -335360.722 6  21162287.125    21162288.652
        17.750          18.250
                  -2631952.247 5  -2050870.625 5  23570919.078    23570921.387
         8.250           9.000
                   -877550.253 6   -683803.863 5  23215436.758    23215438.508
        12.250          11.000
                   1137139.380 7    886082.639 6  20762919.438    20762920.781
        20.250          22.500
                  -2966736.065 6  -2311741.496 5  22870881.320    22870882.531
        12.500          11.000
 95  4 21 15 32 30.0000000  0  6G18G19G27G28G29G31
                   -759767.929 7   -592026.934 6  20195486.086    20195487.008
        22.250          18.250
                   -446516.997 6   -347935.834 6  21159216.047    21159217.789
        17.750          18.750
                  -2666801.302 5  -2078025.710 5  23564287.406    23564289.887
         8.250           9.000
                   -885497.756 6   -689996.718 5  23213924.805    23213926.012
        12.250          11.000
                   1154757.917 7    899811.358 6  20766272.172    20766273.641
        20.250          22.750
                  -3004300.323 6  -2341012.329 5  22863732.992    22863734.445
        12.750          11.000
 95  4 21 15 32 45.0000000  0  6G18G19G27G28G29G31
                   -766554.723 7   -597315.338 6  20194194.539    20194195.527
        22.250          18.250
                   -462630.162 6   -360491.536 6  21156149.836    21156151.496
        17.750          18.500
                  -2701647.878 5  -2105178.868 5  23557656.125    23557658.945
         8.250           9.000
                   -893332.140 6   -696101.425 5  23212433.977    23212435.180
        12.250          11.000
                   1172463.577 7    913607.963 6  20769641.484    20769642.969
        20.250          22.750
                  -3041806.306 6  -2370237.751 5  22856595.555    22856597.582
        12.250          11.250
 95  4 21 15 33  0.0000000  0  6G18G19G27G28G29G31
                   -773238.334 7   -602523.342 6  20192922.672    20192923.672
        22.250          18.250
                   -478716.303 6   -373026.184 6  21153088.766    21153090.301
        17.750          18.750
                  -2736486.538 5  -2132325.862 5  23551026.422    23551029.359
         8.000           9.000
                   -901052.067 6   -702116.945 5  23210965.031    23210966.012
        12.500          11.000
                   1190255.941 7    927472.135 6  20773027.359    20773028.594
        20.250          22.750
                  -3079250.490 6  -2399415.017 5  22849470.328    22849472.078
        12.500          11.000
 95  4 21 15 33 15.0000000  0  6G18G19G27G28G29G31
                   -779819.375 7   -607651.416 6  20191670.352    20191671.422
        22.500          18.250
                   -494775.023 6   -385539.465 6  21150032.813    21150034.488
        17.750          18.750
                  -2771315.789 5  -2159465.515 5  23544398.398    23544401.594
         7.750           9.000
                   -908656.614 6   -708042.553 5  23209517.836    23209518.895
        12.500          11.000
                   1208136.240 7    941404.823 6  20776429.773    20776431.133
        20.250          22.250
                  -3116630.570 6  -2428542.340 5  22842356.789    22842358.328
        12.000          10.750
 95  4 21 15 33 30.0000000  0  6G18G19G27G28G29G31
                   -786303.944 7   -612704.322 6  20190436.563    20190437.555
        22.500          18.250
                   -510808.375 6   -398032.979 6  21146981.742    21146983.605
        17.750          18.750
                  -2806137.811 5  -2186599.544 5  23537771.758    23537775.023
         7.750           9.000
                   -916149.386 6   -713881.064 5  23208092.383    23208093.289
        13.000          11.500
                   1226103.611 7    955405.359 6  20779848.703    20779850.090
        20.000          22.250
                  -3153953.156 5  -2457624.863 5  22835254.148    22835256.254
        11.500          10.750
 95  4 21 15 33 45.0000000  0  6G18G19G27G28G29G31
                   -792693.656 7   -617683.311 6  20189220.547    20189221.465
        22.750          18.250
                   -526813.245 6   -410504.298 6  21143936.250    21143937.801
        17.750          18.750
                  -2840950.947 5  -2213726.636 5  23531146.836    23531150.414
         7.500           8.500
                   -923528.859 6   -719631.292 5  23206687.813    23206689.063
        12.750          11.500
                   1244164.266 6    969478.584 6  20783285.305    20783286.789
        19.750          22.000
                  -3191215.674 5  -2486660.564 5  22828163.453    22828165.801
        11.500          11.000
 95  4 21 15 34  0.0000000  0  6G18G19G27G28G29G31
                   -798987.924 7   -622587.933 6  20188022.664    20188023.617
        22.500          18.000
                   -542783.412 6   -422948.581 6  21140897.039    21140898.684
        17.750          18.500
                  -2875753.931 5  -2240845.823 5  23524524.258    23524527.344
         7.500           8.500
                   -930791.624 6   -725290.583 5  23205305.477    23205307.148
        12.750          11.500
                   1262322.635 6    983627.952 6  20786740.523    20786742.168
        19.500          22.000
                  -3228414.913 5  -2515646.971 5  22821084.477    22821086.824
        11.500          11.000
 95  4 21 15 34 15.0000000  0  6G18G19G27G28G29G31
                   -805180.590 7   -627413.380 6  20186844.359    20186845.305
        22.750          18.000
                   -558711.578 6   -435360.130 6  21137866.086    21137867.684
        17.750          18.500
                  -2910542.162 5  -2267953.511 5  23517904.063    23517907.078
         7.500           8.250
                   -937931.041 6   -730853.744 5  23203946.672    23203948.770
        12.500          11.750
                   1280586.685 6    997859.673 6  20790216.188    20790217.668
        19.500          21.750
                  -3265544.939 5  -2544579.449 5  22814018.398    22814021.188
        11.000          11.000
 95  4 21 15 34 30.0000000  0  6G18G19G27G28G29G31
                   -811267.745 7   -632156.618 6  20185686.172    20185687.125
        22.750          18.000
                   -574594.251 6   -447736.230 6  21134843.750    21134845.320
        17.750          18.250
                  -2945314.050 5  -2295048.473 5  23511287.367    23511290.180
         7.500           8.000
                   -944945.390 6   -736319.462 5  23202611.695    23202613.957
        12.250          11.750
                   1298956.698 6   1012173.953 6  20793711.594    20793713.270
        19.250          21.500
                  -3302603.218 5  -2573456.015 5  22806966.609    22806969.379
        11.000          11.000
 95  4 21 15 34 45.0000000  0  6G18G19G27G28G29G31
                   -817253.704 7   -636820.995 6  20184546.906    20184547.848
        22.750          18.000
                   -590431.217 6   -460076.712 6  21131830.125    21131831.523
        17.750          18.250
                  -2980071.559 5  -2322132.232 5  23504673.336    23504675.859
         7.750           7.750
                   -951837.919 6   -741690.250 5  23201300.094    23201302.102
        12.250          11.750
                   1317428.198 6   1026567.320 6  20797226.719    20797228.195
        19.250          21.250
                  -3339591.566 5  -2602278.090 5  22799928.516    22799930.668
        11.500          11.000
 95  4 21 15 35  0.0000000  0  6G18G19G27G28G29G31
                   -823142.000 7   -641409.276 6  20183426.461    20183427.316
        22.750          18.000
                   -606223.892 6   -472382.685 6  21128824.969    21128826.172
        17.750          18.250
                  -3014815.449 5  -2349205.382 5  23498061.719    23498064.461
         7.750           7.750
                   -958609.702 6   -746966.951 5  23200011.633    23200013.441
        12.500          11.750
                   1336001.828 6   1041040.264 6  20800761.445    20800762.520
        19.500          21.000
                  -3376510.554 5  -2631046.117 5  22792902.477    22792904.973
        11.250          11.000
 95  4 21 15 35 15.0000000  0  6G18G19G27G28G29G31
                   -828928.171 7   -645917.972 6  20182325.500    20182326.160
        22.750          18.000
                   -621974.465 6   -484655.855 6  21125827.523    21125829.027
        17.750          18.250
                  -3049545.029 5  -2376267.368 5  23491452.836    23491455.695
         7.750           8.250
                   -965258.971 6   -752148.188 5  23198746.664    23198748.090
        12.750          11.750
                   1354683.104 6   1055597.093 6  20804316.156    20804317.273
        19.500          20.750
                  -3413363.326 5  -2659762.545 5  22785890.289    22785892.242
        11.750          11.500
 95  4 21 15 35 30.0000000  0  6G18G19G27G28G29G31
                   -834607.694 7   -650343.569 6  20181244.656    20181245.512
        22.750          17.750
                   -637681.252 6   -496894.900 6  21122838.648    21122840.176
        17.750          18.250
                  -3084260.486 5  -2403318.351 5  23484846.555    23484849.160
         7.750           8.250
                   -971782.066 6   -757231.105 5  23197505.305    23197506.570
        12.750          11.500
                   1373476.228 6   1070241.074 6  20807892.102    20807893.457
        19.000          20.750
                  -3450146.806 5  -2688424.983 5  22778890.438    22778892.449
        11.750          11.500
 95  4 21 15 35 45.0000000  0  6G18G19G27G28G29G31
                   -840180.464 7   -654685.982 6  20180184.102    20180185.098
        22.750          17.750
                   -653344.576 6   -509100.080 6  21119857.875    21119859.320
        17.750          18.250
                  -3118964.260 5  -2430360.229 5  23478242.664    23478245.152
         8.000           8.250
                   -978179.425 6   -762216.046 5  23196287.711    23196289.242
        12.500          11.500
                   1392379.187 6   1084970.642 6  20811489.500    20811490.695
        19.250          20.500
                  -3486859.940 5  -2717032.597 5  22771904.070    22771906.453
        11.750          11.750
 95  4 21 15 36  0.0000000  0  6G18G19G27G28G29G31
                   -845645.876 7   -658944.739 6  20179143.922    20179144.859
        22.750          17.750
                   -668969.933 6   -521275.672 6  21116884.516    21116886.133
        17.500          18.250
                  -3153659.353 5  -2457395.353 5  23471640.648    23471643.051
         8.250           8.250
                   -984452.251 6   -767103.946 5  23195094.234    23195095.172
        12.500          11.250
                   1411387.938 6   1099782.642 6  20815106.766    20815107.867
        19.500          20.500
                  -3523502.380 6  -2745585.134 6  22764931.664    22764933.340
        13.000          12.000
 95  4 21 15 36 15.0000000  0  6G18G19G27G28G29G31
                   -850997.506 7   -663114.835 6  20178125.586    20178126.445
        22.750          17.500
                   -684555.127 6   -533419.969 6  21113918.617    21113920.297
        17.750          18.500
                  -3188340.820 5  -2484419.853 5  23465041.055    23465043.250
         8.250           8.250
                   -990596.912 6   -771891.977 5  23193925.156    23193925.742
        12.750          11.000
                   1430503.503 6   1114677.877 6  20818744.414    20818745.527
        19.500          20.500
                  -3560072.551 6  -2774081.355 5  22757972.555    22757974.098
        13.000          11.750
 95  4 21 15 36 30.0000000  0  6G18G19G27G28G29G31
                   -856229.933 7   -667192.050 6  20177129.945    20177130.652
        22.750          17.500
                   -700097.553 6   -545530.943 6  21110961.133    21110962.711
        17.500          18.500
                  -3223000.458 5  -2511427.353 5  23458445.398    23458447.551
         8.250           8.000
                   -996607.824 6   -776575.796 5  23192781.102    23192781.992
        12.500          11.000
                   1449729.933 6   1129659.494 6  20822403.258    20822404.211
        19.750          20.750
                  -3596566.058 6  -2802517.841 6  22751027.992    22751029.797
        13.000          12.000
 95  4 21 15 36 45.0000000  0  6G18G19G27G28G29G31
                   -861348.914 7   -671180.858 6  20176155.914    20176156.691
        22.750          17.500
                   -715603.184 6   -557613.245 6  21108010.602    21108012.125
        17.750          18.500
                  -3257643.072 5  -2538421.578 5  23451852.922    23451855.316
         8.000           8.250
                  -1002490.603 6   -781159.764 5  23191661.469    23191662.844
        12.500          11.250
                   1469062.287 7   1144723.662 6  20826082.258    20826083.195
        20.000          20.750
                  -3632986.656 6  -2830897.516 6  22744097.336    22744099.148
        13.000          12.000
 95  4 21 15 37  0.0000000  0  6G18G19G27G28G29G31
                   -866359.868 7   -675085.496 6  20175202.164    20175203.129
        22.500          17.500
                   -731081.742 6   -569674.451 6  21105065.203    21105066.645
        17.750          18.500
                  -3292276.404 5  -2565408.574 5  23445262.156    23445264.520
         7.750           8.000
                  -1008251.388 6   -785648.673 5  23190565.023    23190566.508
        12.250          11.500
                   1488496.988 7   1159867.572 6  20829780.672    20829781.648
        20.250          21.000
                  -3669340.749 6  -2859225.357 5  22737179.109    22737180.930
        12.500          11.750
 95  4 21 15 37 15.0000000  0  6G18G19G27G28G29G31
                   -871246.452 7   -678893.222 6  20174272.500    20174273.324
        22.750          17.500
                   -746521.684 6   -581705.566 6  21102126.820    21102128.398
        17.750          18.500
                  -3326885.931 5  -2592377.023 5  23438676.234    23438678.449
         7.750           8.000
                  -1013877.644 6   -790032.752 5  23189494.547    23189496.109
        12.250          11.500
                   1508047.051 7   1175101.378 6  20833500.813    20833501.852
        20.250          21.000
                  -3705616.580 6  -2887492.224 5  22730275.930    22730277.590
        12.750          11.500
 95  4 21 15 37 30.0000000  0  6G18G19G27G28G29G31
                   -876004.548 7   -682600.823 6  20173366.977    20173367.750
        22.750          17.250
                   -761916.128 6   -593701.228 6  21099197.336    21099198.941
        17.750          18.500
                  -3361471.900 5  -2619327.116 5  23432094.727    23432097.219
         7.750           8.250
                  -1019366.770 6   -794309.984 5  23188450.078    23188450.949
        12.250          11.250
                   1527711.698 7   1190424.464 6  20837243.141    20837243.844
        20.250          20.750
                  -3741808.654 6  -2915693.819 5  22723388.766    22723390.262
        12.500          11.500
 95  4 21 15 37 45.0000000  0  6G18G19G27G28G29G31
                   -880639.394 7   -686212.389 6  20172484.938    20172485.777
        22.500          17.250
                   -777263.211 6   -605659.984 6  21096276.844    21096278.344
        17.750          18.500
                  -3396036.075 5  -2646260.219 5  23425517.211    23425519.746
         7.750           8.250
                  -1024721.188 6   -798482.244 5  23187430.992    23187432.035
        12.250          11.000
                   1547484.827 7   1205832.087 6  20841005.883    20841006.641
        20.500          21.000
                  -3777915.069 5  -2943828.664 5  22716517.570    22716519.387
        11.750          11.250
 95  4 21 15 38  0.0000000  0  6G18G19G27G28G29G31
                   -885152.620 7   -689729.183 6  20171626.094    20171626.941
        22.500          17.250
                   -792565.510 6   -617583.842 6  21093365.172    21093366.672
        17.750          18.500
                  -3430578.516 5  -2673176.389 5  23418944.203    23418946.371
         7.750           8.250
                  -1029942.189 6   -802550.540 5  23186437.523    23186439.055
        12.250          11.500
                   1567364.445 7   1221322.689 6  20844788.898    20844789.516
        20.500          21.000
                  -3813938.218 5  -2971898.621 5  22709662.438    22709664.359
        11.500          11.000
 95  4 21 15 38 15.0000000  0  6G18G19G27G28G29G31
                   -889546.774 7   -693153.196 6  20170789.961    20170790.727
        22.500          17.250
                   -807823.431 6   -629473.124 6  21090461.570    21090463.055
        17.750          18.500
                  -3465098.877 5  -2700075.355 5  23412375.195    23412377.633
         7.750           8.250
                  -1035031.084 6   -806515.905 5  23185469.156    23185470.598
        12.250          11.500
                   1587349.036 7   1236895.082 6  20848591.789    20848592.434
        20.500          21.000
                  -3849881.032 5  -2999905.988 5  22702822.656    22702824.410
        11.250          10.750
 95  4 21 15 38 30.0000000  0  6G18G19G27G28G29G31
                   -893819.303 7   -696482.435 6  20169977.000    20169977.770
        22.500          17.250
                   -823030.360 6   -641322.668 6  21087567.852    21087569.293
        17.750          18.750
                  -3499594.260 5  -2726954.857 5  23405810.836    23405813.418
         7.750           8.250
                  -1039984.885 6   -810375.997 5  23184526.422    23184527.922
        12.250          11.500
                   1607440.868 7   1252551.037 6  20852415.133    20852415.805
        20.750          21.000
                  -3885740.246 5  -3027848.211 5  22695998.773    22696000.789
        11.000          11.000
 95  4 21 15 38 45.0000000  0  6G18G19G27G28G29G31
                   -897968.177 7   -699715.318 6  20169187.391    20169188.238
        22.250          17.250
                   -838182.149 6   -653129.245 6  21084684.523    21084685.980
        17.750          18.750
                  -3534064.187 5  -2753814.521 5  23399251.680    23399253.801
         7.750           8.000
                  -1044799.684 6   -814127.764 5  23183610.195    23183611.758
        12.250          11.500
                   1627643.307 7   1268293.187 6  20856259.469    20856260.137
        20.500          21.000
                  -3921510.082 5  -3055720.780 5  22689192.047    22689193.969
        11.500          11.000
 95  4 21 15 39  0.0000000  0  6G18G19G27G28G29G31
                   -901992.287 7   -702850.992 6  20168421.555    20168422.367
        22.500          17.250
                   -853277.405 6   -664891.778 6  21081811.859    21081813.426
        17.750          18.750
                  -3568509.872 5  -2780655.301 5  23392696.297    23392698.691
         7.500           7.750
                  -1049475.673 6   -817771.384 5  23182720.211    23182721.727
        12.250          11.500
                   1647955.748 7   1284121.048 6  20860124.906    20860125.680
        20.500          21.000
                  -3957190.878 5  -3083523.977 5  22682402.617    22682404.535
        11.750          11.000
 95  4 21 15 39 15.0000000  0  6G18G19G27G28G29G31
                   -905890.626 7   -705888.654 6  20167679.805    20167680.699
        22.750          17.250
                   -868315.766 6   -676609.972 6  21078950.141    21078951.676
        17.750          18.750
                  -3602929.982 5  -2807476.147 5  23386146.617    23386148.848
         7.500           7.750
                  -1054012.464 6   -821306.537 5  23181857.070    23181858.336
        12.500          11.500
                   1668375.732 7   1300032.716 6  20864010.664    20864011.621
        20.250          21.250
                  -3992782.534 6  -3111257.704 5  22675630.211    22675631.598
        12.500          11.250
 95  4 21 15 39 30.0000000  0  6G18G19G27G28G29G31
                   -909662.062 7   -708827.436 6  20166962.141    20166963.031
        22.500          17.250
                   -883296.761 6   -688283.464 6  21076099.297    21076100.934
        17.750          18.750
                  -3637326.449 5  -2834278.575 5  23379601.461    23379603.336
         7.750           7.750
                  -1058408.778 6   -824732.222 5  23181020.375    23181022.199
        12.500          11.750
                   1688901.898 7   1316027.123 6  20867916.539    20867917.711
        20.000          21.250
                  -4028283.625 6  -3138920.875 5  22668874.750    22668876.098
        13.000          11.500
 95  4 21 15 39 45.0000000  0  6G18G19G27G28G29G31
                   -913308.888 7   -711669.111 6  20166268.227    20166269.121
        22.500          17.250
                   -898222.559 6   -699913.952 6  21073258.945    21073260.566
        17.750          18.750
                  -3671700.069 5  -2861063.204 5  23373060.422    23373062.258
         8.250           8.000
                  -1062663.258 6   -828047.396 5  23180210.914    23180212.422
        12.500          11.750
                   1709537.137 6   1332106.516 6  20871843.039    20871844.563
        19.750          21.500
                  -4063693.529 6  -3166512.984 5  22662136.711    22662138.086
        13.500          11.750
 95  4 21 15 40  0.0000000  0  6G18G19G27G28G29G31
                   -916834.769 7   -714416.555 6  20165597.328    20165598.090
        22.250          17.250
                   -913098.929 6   -711505.925 6  21070428.000    21070429.648
        17.750          18.750
                  -3706050.507 5  -2887829.764 5  23366523.813    23366526.066
         8.250           8.250
                  -1066776.724 6   -831252.687 5  23179428.281    23179429.523
        12.750          11.750
                   1730285.723 6   1348274.232 6  20875791.398    20875792.781
        19.500          21.250
                  -4099017.733 6  -3194038.322 6  22655415.023    22655416.043
        14.250          12.000
 95  4 21 15 40 15.0000000  0  6G18G19G27G28G29G31
                   -920233.352 7   -717064.800 6  20164950.477    20164951.438
        22.250          17.250
                   -927923.250 6   -723057.338 6  21067607.000    21067608.758
        17.750          18.750
                  -3740372.977 5  -2914574.534 5  23359992.109    23359994.797
         8.250           8.500
                  -1070745.313 6   -834345.087 5  23178673.125    23178674.371
        13.000          11.750
                   1751153.853 6   1364535.099 6  20879762.414    20879763.789
        19.750          21.250
                  -4134253.933 6  -3221495.082 6  22648709.484    22648711.246
        14.000          12.250
 95  4 21 15 40 30.0000000  0  6G18G19G27G28G29G31
                   -923500.604 7   -719610.711 6  20164328.719    20164329.797
        22.250          17.250
                   -942692.395 6   -734565.760 6  21064796.508    21064798.230
        17.750          18.750
                  -3774664.940 5  -2941295.524 5  23353466.391    23353469.125
         8.000           8.500
                  -1074567.926 6   -837323.734 6  23177945.773    23177947.242
        13.000          12.000
                   1772144.085 6   1380891.111 6  20883756.797    20883758.184
        19.750          21.250
                  -4169398.732 6  -3248880.611 6  22642021.680    22642023.535
        14.000          12.500
 95  4 21 15 40 45.0000000  0  6G18G19G27G28G29G31
                   -926637.176 7   -722054.791 6  20163731.844    20163732.852
        22.250          17.250
                   -957409.006 6   -746033.245 6  21061996.109    21061997.840
        17.750          18.750
                  -3808926.537 5  -2967992.849 5  23346946.977    23346949.441
         8.250           8.500
                  -1078245.814 6   -840189.614 6  23177245.531    23177247.598
        13.000          12.250
                   1793256.779 6   1397342.552 6  20887774.188    20887775.746
        19.500          21.000
                  -4204451.108 6  -3276194.128 6  22635350.922    22635352.883
        13.750          12.750
 95  4 21 15 41  0.0000000  0  6G18G19G27G28G29G31
                   -929637.976 7   -724393.075 6  20163160.797    20163161.652
        22.250          17.250
                   -972069.046 6   -757456.648 6  21059206.508    21059208.250
        17.750          18.750
                  -3843152.598 5  -2994662.496 5  23340434.047    23340436.328
         8.750           8.500
                  -1081774.892 6   -842939.538 6  23176574.484    23176575.824
        13.000          12.250
                   1814497.564 6   1413893.803 6  20891816.398    20891817.664
        19.750          21.000
                  -4239408.630 6  -3303433.726 6  22628698.313    22628700.727
        13.000          13.000
 95  4 21 15 41 15.0000000  0  6G18G19G27G28G29G31
                   -932508.441 7   -726629.802 6  20162614.547    20162615.480
        22.250          17.250
                   -986676.736 6   -768839.262 6  21056426.742    21056428.473
        17.750          19.000
                  -3877348.131 5  -3021308.354 5  23333926.953    23333929.129
         8.750           8.500
                  -1085159.738 6   -845577.073 6  23175930.055    23175931.660
        13.000          12.250
                   1835863.152 6   1430542.304 6  20895882.125    20895883.477
        19.750          21.250
                  -4274276.649 6  -3330603.581 6  22622063.008    22622065.570
        12.500          13.000
 95  4 21 15 41 30.0000000  0  6G18G19G27G28G29G31
                   -935245.946 7   -728762.924 6  20162093.508    20162094.598
        22.250          17.250
                  -1001229.392 6   -780178.989 6  21053657.453    21053659.152
        17.750          19.000
                  -3911510.040 5  -3047928.015 5  23327426.344    23327428.414
         8.750           8.500
                  -1088396.086 6   -848098.898 6  23175313.898    23175315.684
        13.000          12.250
                   1857359.006 6   1447292.310 6  20899972.672    20899973.871
        19.750          21.000
                  -4309048.019 6  -3357698.125 6  22615445.813    22615448.734
        12.000          13.250
 95  4 21 15 41 45.0000000  0  6G18G19G27G28G29G31
                   -937855.376 7   -730796.248 6  20161596.992    20161598.082
        22.250          17.250
                  -1015725.993 6   -791475.039 6  21050899.078    21050900.734
        17.750          19.000
                  -3945641.102 5  -3074523.637 5  23320931.242    23320933.383
         8.500           8.500
                  -1091485.751 6   -850506.427 6  23174725.992    23174727.637
        12.750          12.250
                   1878986.174 7   1464144.638 6  20904088.375    20904089.297
        20.250          20.750
                  -4343722.505 5  -3384717.174 6  22608847.211    22608850.707
        11.750          13.250
 95  4 21 15 42  0.0000000  0  6G18G19G27G28G29G31
                   -940335.410 7   -732728.740 6  20161125.156    20161126.020
        22.250          17.000
                  -1030161.530 6   -802723.508 6  21048151.961    21048153.551
        17.750          18.750
                  -3979736.273 5  -3101091.283 5  23314443.078    23314444.953
         8.250           8.500
                  -1094426.682 6   -852798.053 6  23174166.531    23174168.043
        13.000          12.250
                   1900746.667 7   1481100.861 6  20908229.242    20908230.090
        20.250          20.500
                  -4378294.096 5  -3411656.039 6  22602268.063    22602271.703
        11.500          13.250
 95  4 21 15 42 15.0000000  0  6G18G19G27G28G29G31
                   -942680.848 7   -734556.356 6  20160678.938    20160679.816
        22.250          17.000
                  -1044530.172 6   -813919.846 6  21045417.609    21045419.305
        17.750          18.750
                  -4013792.419 5  -3127628.524 5  23307962.344    23307964.637
         8.250           8.500
                  -1097215.971 6   -854971.524 6  23173635.797    23173637.473
        13.250          12.500
                   1922639.917 7   1498160.524 6  20912395.391    20912396.145
        20.250          20.500
                  -4412755.931 5  -3438509.390 6  22595711.242    22595714.277
        11.750          13.500
 95  4 21 15 42 30.0000000  0  6G18G19G27G28G29G31
                   -944894.826 7   -736281.529 6  20160257.461    20160258.375
        22.250          17.000
                  -1058833.081 6   -825064.966 6  21042695.789    21042697.523
        17.750          18.750
                  -4047815.197 5  -3154139.765 5  23301487.742    23301490.137
         8.250           8.500
                  -1099857.726 6   -857030.027 6  23173133.195    23173134.914
        13.000          12.500
                   1944657.033 7   1515316.720 6  20916585.414    20916585.828
        20.500          20.500
                  -4447106.845 5  -3465276.305 6  22589174.117    22589177.332
        11.750          13.500
 95  4 21 15 42 45.0000000  0  6G18G19G27G28G29G31
                   -946973.827 7   -737901.532 6  20159861.906    20159862.898
        22.500          17.000
                  -1073063.809 6   -836153.841 6  21039987.773    21039989.480
        17.750          18.750
                  -4081804.060 5  -3180624.583 5  23295020.016    23295022.117
         8.250           8.500
                  -1102346.983 6   -858969.703 6  23172659.352    23172660.973
        13.250          12.250
                   1966800.236 7   1532571.157 6  20920799.109    20920799.621
        20.500          20.500
                  -4481340.927 6  -3491952.187 6  22582659.578    22582662.730
        12.000          13.250
 95  4 21 15 43  0.0000000  0  6G18G19G27G28G29G31
                   -948919.993 7   -739418.022 6  20159491.734    20159492.605
        22.500          17.000
                  -1087223.077 6   -847187.033 6  21037293.344    21037295.105
        17.750          18.750
                  -4115763.490 5  -3207086.459 5  23288557.703    23288559.891
         8.250           8.500
                  -1104682.769 6   -860789.790 6  23172215.188    23172216.172
        13.250          12.250
                   1989070.185 7   1549924.356 6  20925036.813    20925037.418
        20.500          20.500
                  -4515459.813 6  -3518538.307 6  22576167.508    22576170.234
        12.500          13.250
 95  4 21 15 43 15.0000000  0  6G18G19G27G28G29G31
                   -950731.023 7   -740829.215 6  20159147.063    20159147.953
        22.250          17.000
                  -1101310.061 6   -858163.902 6  21034612.695    21034614.434
        17.750          19.000
                  -4149694.225 5  -3233525.984 5  23282100.758    23282102.801
         8.000           8.500
                  -1106865.058 6   -862490.268 5  23171799.945    23171800.672
        13.250          11.750
                   2011465.835 7   1567375.510 6  20929298.719    20929299.266
        20.500          20.500
                  -4549462.879 6  -3545034.182 6  22569696.828    22569699.668
        13.000          13.250
 95  4 21 15 43 30.0000000  0  6G18G19G27G28G29G31
                   -952401.909 7   -742131.208 6  20158829.023    20158830.004
        22.250          17.000
                  -1115324.475 6   -869084.223 6  21031946.031    21031947.711
        17.750          18.750
                  -4183591.998 5  -3259939.811 5  23275650.305    23275652.480
         8.250           8.500
                  -1108890.667 6   -864068.664 5  23171414.414    23171415.316
        13.250          11.750
                   2033990.625 7   1584927.287 6  20933584.906    20933585.547
        20.250          20.750
                  -4583343.577 6  -3571434.703 6  22563249.641    22563252.234
        13.250          13.000
 95  4 21 15 43 45.0000000  0  6G18G19G27G28G29G31
                   -953934.172 7   -743325.180 6  20158537.328    20158538.246
        22.250          17.000
                  -1129271.730 6   -879952.217 6  21029291.781    21029293.328
        18.000          18.750
                  -4217460.228 5  -3286330.622 5  23269205.906    23269207.715
         8.500           9.000
                  -1110765.030 6   -865529.205 6  23171057.531    23171058.902
        13.000          12.000
                   2056637.542 7   1602574.228 6  20937894.492    20937895.430
        20.250          20.750
                  -4617107.460 6  -3597744.211 6  22556824.898    22556826.887
        14.000          12.750
 95  4 21 15 44  0.0000000  0  6G18G19G27G28G29G31
                   -955318.797 7   -744404.107 6  20158273.859    20158274.781
        22.250          17.000
                  -1143146.916 6   -890764.047 6  21026651.531    21026653.059
        18.000          18.750
                  -4251289.776 5  -3312691.296 5  23262768.461    23262770.324
         9.000           9.000
                  -1112480.868 6   -866866.219 6  23170731.133    23170732.238
        13.000          12.000
                   2079412.644 7   1620321.057 6  20942228.563    20942229.367
        20.250          20.750
                  -4650750.499 6  -3623959.546 6  22550422.508    22550424.789
        13.750          12.500
 95  4 21 15 44 15.0000000  0  6G18G19G27G28G29G31
                   -956558.152 7   -745369.837 6  20158038.086    20158039.117
        22.250          17.000
                  -1156957.291 6   -901525.376 6  21024023.523    21024024.914
        18.250          19.000
                  -4285083.411 5  -3339023.979 5  23256337.656    23256339.840
         9.000           9.250
                  -1114042.038 6   -868082.712 6  23170433.953    23170435.461
        13.000          12.000
                   2102310.336 7   1638163.409 6  20946585.664    20946586.969
        20.000          21.000
                  -4684281.512 6  -3650087.583 6  22544041.617    22544043.684
        13.750          12.500
 95  4 21 15 44 30.0000000  0  6G18G19G27G28G29G31
                   -957645.735 7   -746217.307 6  20157831.102    20157832.258
        22.250          17.250
                  -1170698.800 6   -912233.041 6  21021408.820    21021410.148
        18.250          19.000
                  -4318835.341 5  -3365324.171 5  23249914.938    23249916.816
         8.750           9.000
                  -1115444.676 6   -869175.672 5  23170166.805    23170168.191
        12.750          11.750
                   2125336.286 7   1656105.704 6  20950967.367    20950968.566
        20.000          21.000
                  -4717701.988 6  -3676129.496 6  22537681.984    22537683.895
        13.750          12.500
 95  4 21 15 44 45.0000000  0  6G18G19G27G28G29G31
                   -958582.468 7   -746947.233 6  20157652.781    20157654.051
        22.250          17.250
                  -1184376.682 6   -922891.129 6  21018806.148    21018807.480
        18.250          19.000
                  -4352546.713 5  -3391592.754 5  23243499.250    23243502.000
         8.500           9.000
                  -1116691.243 6   -870147.022 5  23169929.469    23169931.109
        12.750          11.750
                   2148490.676 6   1674148.082 6  20955373.266    20955374.777
        19.750          21.000
                  -4751019.598 6  -3702091.254 6  22531341.906    22531343.996
        13.750          12.500
 95  4 21 15 45  0.0000000  0  6G18G19G27G28G29G31
                   -959367.940 7   -747559.293 6  20157503.320    20157504.438
        22.500          17.000
                  -1197991.371 6   -933499.975 6  21016215.117    21016216.598
        18.250          19.000
                  -4386213.225 5  -3417826.381 5  23237093.055    23237095.375
         9.000           9.000
                  -1117779.560 6   -870995.056 6  23169722.414    23169724.262
        12.750          12.000
                   2171777.664 6   1692293.780 6  20959804.828    20959806.094
        19.750          21.000
                  -4784236.028 6  -3727974.164 6  22525020.750    22525023.277
        13.250          12.750
 95  4 21 15 45 15.0000000  0  6G18G19G27G28G29G31
                   -960004.727 7   -748055.493 6  20157382.352    20157383.320
        22.750          17.000
                  -1211545.696 6   -944061.789 6  21013635.711    21013637.250
        18.250          19.000
                  -4419830.703 5  -3444021.816 5  23230696.117    23230698.137
         9.000           9.000
                  -1118711.559 6   -871721.290 6  23169545.242    23169546.918
        12.750          12.250
                   2195196.411 6   1710542.144 6  20964261.125    20964262.516
        19.500          21.000
                  -4817350.931 6  -3753777.961 6  22518719.117    22518721.578
        13.000          12.750
 95  4 21 15 45 30.0000000  0  6G18G19G27G28G29G31
                   -960495.148 7   -748437.641 6  20157289.039    20157290.086
        22.750          17.000
                  -1225041.175 6   -954577.744 6  21011067.625    21011069.281
        18.250          19.000
                  -4453397.067 5  -3470177.411 5  23224308.367    23224310.797
         9.000           9.250
                  -1119489.411 6   -872327.408 6  23169397.352    23169398.945
        12.750          12.000
                   2218743.852 6   1728890.795 6  20968742.016    20968743.387
        19.500          20.750
                  -4850365.383 6  -3779503.485 6  22512436.828    22512439.027
        13.000          13.000
 95  4 21 15 45 45.0000000  0  6G18G19G27G28G29G31
                   -960839.777 7   -748706.185 6  20157223.469    20157224.543
        22.750          17.000
                  -1238475.093 6   -965045.728 6  21008510.961    21008512.684
        18.000          19.000
                  -4486909.665 5  -3496291.108 5  23217931.023    23217933.590
         9.000           9.250
                  -1120109.848 6   -872810.856 5  23169279.172    23169280.563
        12.500          11.750
                   2242420.847 6   1747340.391 6  20973247.719    20973248.965
        19.750          20.750
                  -4883276.080 6  -3805148.158 6  22506174.172    22506176.645
        13.000          13.500
 95  4 21 15 46  0.0000000  0  6G18G19G27G28G29G31
                   -961039.972 7   -748862.185 6  20157185.406    20157186.406
        22.750          17.000
                  -1251841.549 6   -975461.151 6  21005967.492    21005969.172
        18.250          18.750
                  -4520366.780 5  -3522361.571 5  23211564.148    23211566.879
         9.000           9.250
                  -1120568.385 6   -873168.154 5  23169191.711    23169193.461
        12.500          11.750
                   2266230.112 6   1765893.059 6  20977778.633    20977779.859
        19.750          21.000
                  -4916080.864 6  -3830710.302 6  22499931.023    22499934.051
        12.500          14.000
 95  4 21 15 46 15.0000000  0  6G18G19G27G28G29G31
                   -961098.486 7   -748907.782 6  20157174.250    20157175.316
        22.750          17.000
                  -1265138.486 6   -985822.399 6  21003437.273    21003438.664
        18.000          18.750
                  -4553768.658 5  -3548388.992 5  23205208.273    23205210.445
         9.250           9.000
                  -1120864.230 6   -873398.678 5  23169135.539    23169137.117
        12.500          11.750
                   2290174.570 7   1784551.076 6  20982334.984    20982336.348
        20.000          21.000
                  -4948776.136 6  -3856187.102 6  22493709.570    22493712.305
        12.500          14.250
 95  4 21 15 46 30.0000000  0  6G18G19G27G28G29G31
                   -961016.170 7   -748843.643 6  20157189.820    20157190.992
        22.750          17.250
                  -1278363.585 6   -996127.671 6  21000920.641    21000922.094
        18.000          18.750
                  -4587118.446 5  -3574375.831 5  23198862.367    23198863.883
         9.500           9.000
                  -1120998.441 6   -873503.254 5  23169110.133    23169111.543
        12.500          11.750
                   2314253.577 7   1803313.934 6  20986917.227    20986918.457
        20.250          21.000
                  -4981358.295 6  -3881575.768 6  22487509.758    22487512.051
        13.250          14.250
 95  4 21 15 46 45.0000000  0  6G18G19G27G28G29G31
                   -960786.937 7   -748665.019 6  20157233.320    20157234.668
        22.750          17.250
                  -1291511.237 6  -1006372.592 6  20998418.758    20998420.137
        18.250          18.750
                  -4620414.165 5  -3600320.542 5  23192526.570    23192527.875
         9.750           8.500
                  -1120966.149 6   -873478.091 5  23169116.430    23169117.836
        12.750          11.750
                   2338471.126 7   1822184.744 6  20991525.844    20991526.859
        20.250          21.000
                  -5013819.315 6  -3906870.042 6  22481332.734    22481335.051
        13.250          14.500
 95  4 21 15 47  0.0000000  0  6G18G19G27G28G29G31
                   -960417.335 7   -748377.024 6  20157303.742    20157304.875
        22.750          17.250
                  -1304587.593 6  -1016561.959 6  20995930.297    20995931.738
        18.250          18.750
                  -4653663.745 5  -3626229.303 5  23186199.188    23186200.688
         9.500           9.000
                  -1120771.847 6   -873326.689 5  23169153.484    23169154.695
        12.750          11.500
                   2362819.362 7   1841157.393 6  20996159.133    20996160.262
        20.500          21.000
                  -5046158.597 6  -3932069.445 6  22475179.039    22475181.520
        13.750          14.500
 95  4 21 15 47 15.0000000  0  6G18G19G27G28G29G31
                   -959906.842 7   -747979.236 6  20157400.945    20157402.020
        22.750          17.000
                  -1317591.274 6  -1026694.698 6  20993455.930    20993457.309
        18.250          18.750
                  -4686865.637 5  -3652100.897 5  23179880.656    23179882.668
         9.000           9.250
                  -1120413.286 6   -873047.287 5  23169221.594    23169222.934
        12.750          11.500
                   2387300.960 7   1860233.954 6  21000817.797    21000818.977
        20.250          21.000
                  -5078369.546 6  -3957168.859 6  22469049.602    22469051.367
        14.250          14.250
 95  4 21 15 47 30.0000000  0  6G18G19G27G28G29G31
                   -959253.180 7   -747469.893 6  20157525.305    20157526.445
        22.750          17.000
                  -1330524.417 6  -1036772.468 6  20990995.008    20990996.332
        18.250          18.750
                  -4720024.473 5  -3677938.934 5  23173570.531    23173572.844
         8.500           9.250
                  -1119892.518 6   -872641.495 5  23169320.742    23169322.297
        12.750          11.500
                   2411913.660 7   1879412.676 6  21005501.484    21005502.473
        20.250          21.000
                  -5110454.426 6  -3982170.034 6  22462944.055    22462945.582
        14.750          14.000
 95  4 21 15 47 45.0000000  0  6G18G19G27G28G29G31
                   -958454.210 7   -746847.320 6  20157677.328    20157678.574
        22.500          17.000
                  -1343388.128 6  -1046796.140 6  20988546.930    20988548.344
        18.250          18.750
                  -4753143.361 5  -3703745.836 5  23167268.414    23167270.613
         8.750           9.500
                  -1119208.363 6   -872108.380 5  23169451.070    23169452.184
        12.750          11.500
                   2436657.562 7   1898693.630 6  21010210.195    21010210.934
        20.250          20.750
                  -5142415.169 6  -4007074.485 6  22456862.195    22456863.543
        14.750          13.500
 95  4 21 15 48  0.0000000  0  6G18G19G27G28G29G31
                   -957507.987 7   -746110.010 6  20157857.555    20157858.508
        22.500          17.000
                  -1356182.720 6  -1056765.945 6  20986112.195    20986113.613
        18.250          19.000
                  -4786224.468 5  -3729523.307 5  23160973.469    23160975.344
         9.000           9.250
                  -1118359.924 6   -871447.264 5  23169612.438    23169613.461
        12.750          11.500
                   2461535.122 7   1918078.734 6  21014944.055    21014944.961
        20.000          20.500
                  -5174250.753 6  -4031881.403 6  22450804.180    22450805.379
        15.000          13.250
 95  4 21 15 48 15.0000000  0  6G18G19G27G28G29G31
                   -956410.676 7   -745254.963 6  20158066.250    20158067.336
        22.750          17.000
                  -1368907.169 6  -1066681.097 6  20983690.891    20983692.285
        18.500          19.000
                  -4819266.914 5  -3755270.661 5  23154685.750    23154687.762
         9.000           9.250
                  -1117346.896 6   -870657.895 5  23169805.242    23169805.938
        12.500          11.000
                   2486549.076 7   1937570.124 6  21019704.133    21019705.000
        20.000          20.750
                  -5205959.098 6  -4056589.178 6  22444770.125    22444771.117
        15.250          13.000
 95  4 21 15 48 30.0000000  0  6G18G19G27G28G29G31
                   -955156.091 7   -744277.364 6  20158305.094    20158306.145
        22.500          16.750
                  -1381562.526 6  -1076542.413 6  20981282.547    20981284.039
        18.750          19.000
                  -4852268.535 5  -3780986.193 5  23148405.297    23148407.559
         9.000           9.250
                  -1116168.203 6   -869739.433 5  23170029.422    23170030.156
        12.500          11.000
                   2511701.207 7   1957169.180 6  21024490.273    21024491.219
        20.000          20.750
                  -5237537.150 6  -4081195.430 6  22438761.086    22438761.891
        15.250          12.500
 95  4 21 15 48 45.0000000  0  6G18G19G27G28G29G31
                   -953748.689 7   -743180.688 6  20158572.914    20158573.938
        22.750          16.750
                  -1394156.644 6  -1086356.007 6  20978886.008    20978887.449
        18.750          19.000
                  -4885233.645 5  -3806673.275 5  23142132.289    23142134.742
         9.000           9.250
                  -1114830.203 6   -868696.834 5  23170284.063    23170284.914
        12.500          11.000
                   2536984.556 6   1976870.484 6  21029301.656    21029302.719
        19.750          20.750
                  -5268993.707 6  -4105707.010 6  22432774.945    22432775.582
        15.250          12.250
 95  4 21 15 49  0.0000000  0  6G18G19G27G28G29G31
                   -952176.948 7   -741955.957 6  20158872.023    20158872.945
        22.750          16.500
                  -1406677.656 6  -1096112.639 6  20976503.609    20976504.926
        18.750          19.000
                  -4918146.092 5  -3832319.321 5  23135869.367    23135871.797
         9.000           9.750
                  -1113318.581 6   -867518.949 5  23170571.563    23170572.324
        12.250          10.750
                   2562413.852 6   1996685.514 6  21034140.305    21034141.730
        19.500          20.750
                  -5300314.835 6  -4130113.061 6  22426814.789    22426815.688
        15.000          12.500
 95  4 21 15 49 15.0000000  0  6G18G19G27G28G29G31
                   -950447.476 7   -740608.318 6  20159201.266    20159202.176
        22.750          16.500
                  -1419130.517 6  -1105816.167 6  20974133.656    20974135.141
        18.750          19.000
                  -4951009.224 5  -3857926.945 5  23129615.930    23129617.996
         9.250           9.750
                  -1111637.593 6   -866209.087 5  23170891.375    23170892.121
        12.250          10.750
                   2587987.285 6   2016612.853 6  21039006.664    21039008.188
        19.250          20.750
                  -5331504.220 6  -4154416.454 6  22420879.719    22420880.754
        14.750          12.500
 95  4 21 15 49 30.0000000  0  6G18G19G27G28G29G31
                   -948564.717 7   -739141.233 6  20159559.422    20159560.367
        22.750          16.500
                  -1431517.115 6  -1115468.057 6  20971776.563    20971777.848
        18.750          19.000
                  -4983825.921 5  -3883498.382 5  23123371.180    23123373.195
         9.250           9.500
                  -1109791.725 6   -864770.745 5  23171242.641    23171243.582
        12.250          11.000
                   2613701.828 6   2036650.154 6  21043900.172    21043901.578
        19.250          20.500
                  -5362565.347 6  -4178619.907 6  22414968.531    22414970.020
        14.250          12.500
 95  4 21 15 49 45.0000000  0  6G18G19G27G28G29G31
                   -946524.740 7   -737551.642 6  20159947.508    20159948.480
        22.750          16.500
                  -1443827.742 6  -1125060.752 6  20969433.992    20969435.363
        18.750          19.000
                  -5016589.598 5  -3909028.509 5  23117136.508    23117138.336
         9.250           9.500
                  -1107776.009 6   -863200.060 5  23171626.281    23171627.477
        12.250          11.000
                   2639560.569 6   2056799.812 6  21048820.906    21048822.227
        19.250          20.500
                  -5393493.730 6  -4202719.916 6  22409082.805    22409084.730
        14.000          13.000
 95  4 21 15 50  0.0000000  0  6G18G19G27G28G29G31
                   -944331.974 7   -735842.996 6  20160364.781    20160365.730
        22.750          16.500
                  -1456062.560 6  -1134594.372 6  20967105.789    20967107.125
        18.750          19.000
                  -5049300.731 5  -3934517.691 5  23110911.578    23110913.398
         9.250           9.250
                  -1105592.703 6   -861498.785 5  23172041.898    23172042.754
        12.250          11.000
                   2665561.573 6   2077060.329 6  21053768.813    21053770.105
        19.500          20.500
                  -5424286.867 6  -4226714.538 6  22403223.313    22403225.246
        14.000          13.250
 95  4 21 15 50 15.0000000  0  6G18G19G27G28G29G31
                   -941980.024 7   -734010.307 6  20160812.320    20160813.438
        22.750          16.500
                  -1468214.566 6  -1144063.460 6  20964793.430    20964794.711
        18.750          19.250
                  -5081952.673 5  -3959960.742 5  23104698.164    23104699.973
         9.250           9.500
                  -1103236.389 6   -859662.693 5  23172490.094    23172491.078
        12.250          11.000
                   2691710.803 6   2097436.346 6  21058745.039    21058746.121
        19.750          20.500
                  -5454935.053 6  -4250596.210 6  22397390.594    22397393.281
        13.750          14.000
 95  4 21 15 50 30.0000000  0  6G18G19G27G28G29G31
                   -939474.288 7   -732057.787 6  20161289.148    20161290.383
        22.500          16.500
                  -1480287.588 6  -1153471.007 6  20962495.922    20962497.445
        18.750          19.250
                  -5114549.259 5  -3985360.668 5  23098495.383    23098497.117
         9.500           9.750
                  -1100712.114 6   -857695.733 5  23172970.727    23172971.715
        12.250          11.000
                   2718002.783 7   2117923.597 6  21063748.273    21063749.551
        20.000          20.750
                  -5485443.959 6  -4274369.356 6  22391585.109    22391587.855
        14.000          14.500
 95  4 21 15 50 45.0000000  0  6G18G19G27G28G29G31
                   -936813.268 7   -729984.267 6  20161795.516    20161796.613
        22.250          16.500
                  -1492277.996 6  -1162814.174 6  20960214.242    20960215.668
        18.750          19.500
                  -5147088.682 5  -4010716.049 5  23092303.188    23092305.129
         9.500           9.750
                  -1098016.622 6   -855595.356 5  23173483.398    23173484.379
        12.000          11.000
                   2744438.045 7   2138522.497 6  21068778.781    21068779.980
        20.250          20.500
                  -5515811.834 6  -4298032.608 6  22385806.156    22385808.938
        14.000          14.750
 95  4 21 15 51  0.0000000  0  6G18G19G27G28G29G31
                   -934003.965 7   -727795.204 6  20162330.211    20162331.211
        22.500          16.500
                  -1504189.074 6  -1172095.531 6  20957947.508    20957949.098
        18.500          19.500
                  -5179577.077 5  -4036031.660 5  23086120.750    23086122.875
         9.500           9.750
                  -1095155.198 5   -853365.674 5  23174027.766    23174029.102
        11.750          11.250
                   2771009.699 7   2159227.672 6  21073835.266    21073836.438
        20.250          20.500
                  -5546044.218 6  -4321590.280 6  22380053.250    22380055.699
        14.000          14.750
 95  4 21 15 51 15.0000000  0  6G18G19G27G28G29G31
                   -931039.428 7   -725485.173 6  20162894.398    20162895.359
        22.500          16.500
                  -1516016.964 6  -1181312.061 6  20955696.594    20955698.207
        18.500          19.500
                  -5212013.672 5  -4061306.917 5  23079948.047    23079950.000
         9.250           9.750
                  -1092123.072 6   -851002.980 5  23174605.188    23174606.613
        12.000          11.500
                   2797720.574 7   2180041.337 6  21078918.320    21078919.434
        20.500          20.500
                  -5576134.253 6  -4345037.036 6  22374327.453    22374330.168
        14.250          15.000
 95  4 21 15 51 30.0000000  0  6G18G19G27G28G29G31
                   -927918.341 7   -723053.168 6  20163488.188    20163489.324
        22.250          16.500
                  -1527761.098 6  -1190463.333 6  20953461.805    20953463.406
        18.500          19.500
                  -5244399.705 5  -4086542.777 5  23073785.414    23073787.445
         9.250           9.750
                  -1088922.141 5   -848508.753 5  23175214.008    23175215.711
        11.750          11.500
                   2824567.844 7   2200961.283 6  21084027.195    21084028.148
        20.500          20.500
                  -5606084.802 6  -4368375.102 6  22368627.711    22368630.594
        14.250          15.250
 95  4 21 15 51 45.0000000  0  6G18G19G27G28G29G31
                   -924642.699 7   -720500.720 6  20164111.578    20164112.645
        22.500          16.500
                  -1539424.812 6  -1199551.937 6  20951242.328    20951243.863
        18.500          19.500
                  -5276738.410 5  -4111741.752 5  23067631.180    23067633.742
         9.250           9.750
                  -1085555.832 5   -845885.657 5  23175854.258    23175856.547
        11.750          11.750
                   2851545.288 7   2221982.664 6  21089161.031    21089161.816
        20.500          20.500
                  -5635902.115 6  -4391609.348 6  22362953.977    22362956.367
        14.500          15.000
 95  4 21 15 52  0.0000000  0  6G18G19G27G28G29G31
                   -921197.023 7   -717815.783 6  20164767.125    20164768.289
        22.500          16.500
                  -1551000.093 6  -1208571.632 6  20949039.719    20949041.234
        18.500          19.250
                  -5309016.983 5  -4136893.869 5  23061488.711    23061491.273
         9.000           9.750
                  -1082009.645 5   -843122.400 5  23176529.367    23176531.016
        11.500          11.750
                   2878667.571 7   2243116.906 6  21094322.070    21094322.863
        20.750          20.250
                  -5665573.007 6  -4414729.507 6  22357307.719    22357309.992
        14.750          14.750
 95  4 21 15 52 15.0000000  0  6G18G19G27G28G29G31
                   -917588.349 7   -715003.833 6  20165453.953    20165455.004
        22.500          16.500
                  -1562500.935 6  -1217533.317 6  20946851.203    20946852.707
        18.500          19.250
                  -5341245.746 5  -4162007.174 5  23055356.156    23055358.586
         9.250          10.000
                  -1078291.881 5   -840225.449 6  23177236.727    23177239.609
        11.750          12.000
                   2905926.480 7   2264357.614 6  21099509.344    21099510.117
        20.500          20.250
                  -5695106.181 6  -4437742.350 6  22351687.656    22351689.793
        14.750          14.500
 95  4 21 15 52 30.0000000  0  6G18G19G27G28G29G31
                   -913817.129 7   -712065.227 6  20166171.422    20166172.695
        22.250          16.500
                  -1573925.486 6  -1226435.566 6  20944677.172    20944678.641
        18.500          19.250
                  -5373423.967 5  -4187081.093 5  23049232.766    23049235.129
         9.250           9.750
                  -1074401.780 5   -837194.214 5  23177977.180    23177978.703
        11.750          11.750
                   2933322.357 7   2285705.043 6  21104722.586    21104723.352
        20.250          20.000
                  -5724503.391 6  -4460649.250 6  22346093.742    22346095.391
        14.750          14.250
 95  4 21 15 52 45.0000000  0  6G18G19G27G28G29G31
                   -909883.910 7   -709000.388 6  20166920.078    20166921.250
        22.500          16.500
                  -1585274.582 6  -1235279.013 6  20942517.531    20942518.941
        18.500          19.250
                  -5405551.017 5  -4212115.138 5  23043119.078    23043121.332
         9.250           9.750
                  -1070339.224 5   -834028.584 5  23178750.242    23178752.367
        11.750          11.750
                   2960854.861 7   2307158.934 6  21109961.570    21109962.309
        20.000          19.750
                  -5753768.698 6  -4483453.370 6  22340524.578    22340526.340
        14.750          14.000
 95  4 21 15 53  0.0000000  0  6G18G19G27G28G29G31
                   -905790.442 7   -705810.674 6  20167699.250    20167700.324
        22.750          16.500
                  -1596551.515 6  -1244066.230 6  20940371.570    20940372.898
        18.250          19.250
                  -5437627.515 5  -4237109.800 5  23037015.141    23037017.383
         9.750           9.500
                  -1066106.112 5   -830730.057 5  23179555.938    23179557.594
        11.750          11.750
                   2988521.812 6   2328717.592 6  21115226.266    21115227.316
        19.750          19.750
                  -5782903.577 6  -4506155.863 6  22334980.609    22334981.836
        14.750          13.750
 95  4 21 15 53 15.0000000  0  6G18G19G27G28G29G31
                   -901535.120 7   -702494.842 6  20168508.828    20168510.035
        22.500          16.500
                  -1607756.136 6  -1252797.094 6  20938239.156    20938240.727
        18.250          19.250
                  -5469652.796 5  -4262064.557 5  23030921.359    23030923.125
        10.000           9.750
                  -1061701.414 5   -827297.835 5  23180394.070    23180395.992
        11.750          11.500
                   3016325.487 6   2350382.789 6  21120517.164    21120518.289
        19.500          19.750
                  -5811907.581 6  -4528756.373 6  22329461.195    22329462.516
        14.500          13.500
 95  4 21 15 53 30.0000000  0  6G18G19G27G28G29G31
                   -897120.968 7   -699055.245 6  20169348.688    20169349.863
        22.250          16.500
                  -1618890.524 6  -1261473.238 6  20936120.453    20936121.926
        18.500          19.500
                  -5501626.880 5  -4286979.416 5  23024836.797    23024838.828
        10.000          10.000
                  -1057127.716 5   -823733.924 5  23181264.500    23181265.805
        11.750          11.500
                   3044266.311 6   2372154.852 6  21125833.992    21125835.148
        19.250          19.750
                  -5840784.670 6  -4551257.993 6  22323965.703    22323967.109
        14.000          13.250
 95  4 21 15 53 45.0000000  0  6G18G19G27G28G29G31
                   -892554.909 7   -695497.282 6  20170217.797    20170218.684
        22.750          16.250
                  -1629957.285 6  -1270096.683 6  20934014.547    20934016.039
        18.750          19.500
                  -5533553.160 5  -4311857.024 5  23018761.281    23018763.387
        10.000          10.000
                  -1052388.364 6   -820040.933 5  23182166.258    23182167.785
        12.250          11.500
                   3072342.802 6   2394032.628 6  21131176.703    21131178.070
        19.000          19.750
                  -5869539.998 6  -4573664.730 6  22318493.516    22318495.012
        13.750          13.000
 95  4 21 15 54  0.0000000  0  6G18G19G27G28G29G31
                   -887831.519 7   -691816.723 6  20171116.547    20171117.445
        22.500          16.250
                  -1640951.443 6  -1278663.554 6  20931922.477    20931923.969
        18.750          19.500
                  -5565427.180 5  -4336693.904 5  23012695.828    23012698.000
         9.750          10.000
                  -1047475.776 6   -816212.946 5  23183101.172    23183102.582
        12.250          11.500
                   3100560.136 6   2416020.154 6  21136546.008    21136547.543
        19.000          19.750
                  -5898165.044 6  -4595969.945 6  22313046.211    22313048.043
        13.500          13.250
 95  4 21 15 54 15.0000000  0  6G18G19G27G28G29G31
                   -882951.488 7   -688014.110 6  20172044.969    20172045.977
        22.250          16.250
                  -1651870.578 6  -1287171.967 6  20929844.734    20929846.305
        18.750          19.500
                  -5597251.590 5  -4361492.126 5  23006639.875    23006641.789
        10.000           9.750
                  -1042390.870 6   -812250.687 5  23184069.242    23184070.156
        12.250          11.250
                   3128917.587 6   2438116.855 6  21141942.250    21141943.875
        18.750          19.750
                  -5926659.369 6  -4618173.305 6  22307623.797    22307625.582
        13.500          13.000
 95  4 21 15 54 30.0000000  0  6G18G19G27G28G29G31
                   -877911.452 7   -684086.814 6  20173004.211    20173005.309
        22.250          16.250
                  -1662704.547 6  -1295614.017 6  20927783.109    20927784.758
        18.750          19.750
                  -5629024.003 5  -4386249.843 5  23000594.070    23000595.188
        10.250           9.250
                  -1037129.833 6   -808151.185 5  23185069.867    23185071.254
        12.250          11.250
                   3157418.584 6   2460325.412 6  21147366.000    21147367.410
        18.750          19.750
                  -5955018.786 6  -4640271.537 6  22302227.195    22302228.961
        13.250          13.000
 95  4 21 15 54 45.0000000  0  6G18G19G27G28G29G31
                   -872716.763 7   -680039.008 6  20173992.648    20173993.898
        22.250          16.250
                  -1673455.802 6  -1303991.615 6  20925737.117    20925738.547
        18.750          19.750
                  -5660749.918 5  -4410971.331 5  22994557.117    22994557.980
        10.500           9.250
                  -1031698.116 6   -803918.686 5  23186103.594    23186104.785
        12.250          11.250
                   3186058.462 6   2482642.192 6  21152816.172    21152817.391
        19.000          19.750
                  -5983249.804 6  -4662269.723 6  22296855.039    22296857.051
        13.250          13.000
 95  4 21 15 55  0.0000000  0  6G18G19G27G28G29G31
                   -867358.924 7   -675864.074 6  20175012.320    20175013.523
        22.250          16.500
                  -1684122.775 6  -1312303.540 6  20923707.367    20923708.875
        18.750          19.750
                  -5692424.225 5  -4435652.607 5  22988529.492    22988530.824
        10.250           9.250
                  -1026090.150 6   -799548.844 5  23187171.070    23187171.746
        12.250          11.250
                   3214841.728 6   2505070.698 6  21158293.563    21158294.566
        19.000          19.750
                  -6011343.100 6  -4684160.590 6  22291509.320    22291511.059
        13.750          13.000
 95  4 21 15 55 15.0000000  0  6G18G19G27G28G29G31
                   -861842.764 7   -671565.772 6  20176062.133    20176063.293
        22.250          16.250
                  -1694707.140 6  -1320551.096 6  20921692.969    20921694.637
        18.750          19.750
                  -5724053.312 5  -4460298.642 5  22982510.531    22982512.000
        10.250           9.500
                  -1020310.297 6   -795045.069 5  23188270.500    23188272.012
        12.000          11.250
                   3243763.346 6   2527607.013 6  21163797.203    21163798.434
        19.000          19.750
                  -6039298.791 6  -4705944.236 6  22286189.617    22286191.277
        14.250          13.250
 95  4 21 15 55 30.0000000  0  6G18G19G27G28G29G31
                   -856165.923 7   -667142.266 6  20177142.164    20177143.582
        22.000          16.500
                  -1705207.145 6  -1328732.914 6  20919695.000    20919696.660
        18.750          19.750
                  -5755636.201 5  -4484908.670 5  22976500.500    22976501.883
        10.000           9.750
                  -1014357.881 5   -790406.827 5  23189403.164    23189404.816
        11.750          11.250
                   3272825.098 6   2550252.528 6  21169327.578    21169328.770
        19.500          20.250
                  -6067115.463 6  -4727619.558 6  22280897.039    22280898.234
        15.000          13.250
 95  4 21 15 55 45.0000000  0  6G18G19G27G28G29G31
                   -850335.489 7   -662599.081 6  20178251.641    20178253.168
        22.000          16.500
                  -1715626.629 6  -1336851.991 6  20917712.125    20917713.832
        18.500          19.750
                  -5787176.636 5  -4509485.628 5  22970498.547    22970500.004
        10.000           9.750
                  -1008236.940 5   -785637.268 5  23190567.719    23190569.422
        11.750          11.250
                   3302022.651 6   2573003.857 6  21174883.695    21174885.066
        19.500          20.250
                  -6094796.109 6  -4749188.887 6  22275629.461    22275630.750
        15.500          13.500
 95  4 21 15 56  0.0000000  0  6G18G19G27G28G29G31
                   -844343.781 7   -657930.223 6  20179391.773    20179393.211
        21.750          16.500
                  -1725959.246 6  -1344903.376 6  20915745.805    20915747.688
        18.500          19.750
                  -5818670.460 5  -4534026.259 5  22964505.164    22964507.129
         9.750           9.750
                  -1001940.638 6   -780731.063 5  23191766.203    23191767.695
        12.000          11.250
                   3331359.764 6   2595863.933 6  21180466.578    21180467.875
        19.750          20.250
                  -6122330.981 6  -4770644.625 6  22270389.867    22270391.035
        15.750          13.750
 95  4 21 15 56 15.0000000  0  6G18G19G27G28G29G31
                   -838196.208 7   -653139.913 6  20180561.602    20180563.059
        21.750          16.500
                  -1736211.082 6  -1352891.813 6  20913794.969    20913796.805
        18.500          19.750
                  -5850120.589 5  -4558532.837 5  22958520.289    22958522.512
         9.750          10.000
                   -995475.569 6   -775693.349 5  23192996.609    23192997.637
        12.000          11.250
                   3360831.527 6   2618828.929 6  21186074.766    21186075.895
        19.750          20.250
                  -6149723.046 6  -4791989.084 6  22265177.430    22265178.895
        16.250          14.000
 95  4 21 15 56 30.0000000  0  6G18G19G27G28G29G31
                   -831885.648 7   -648222.599 6  20181762.414    20181763.840
        21.750          16.500
                  -1746374.639 6  -1360811.467 6  20911861.063    20911862.852
        18.750          19.750
                  -5881518.993 5  -4582999.111 5  22952545.156    22952547.539
         9.500          10.000
                   -988835.723 6   -770519.448 5  23194260.000    23194261.773
        12.000          11.250
                   3390449.006 6   2641907.480 6  21191710.930    21191711.988
        19.750          20.250
                  -6176965.688 6  -4813217.109 6  22259993.336    22259994.773
        16.250          14.500
 95  4 21 15 56 45.0000000  0  6G18G19G27G28G29G31
                   -825414.388 7   -643180.062 6  20182994.008    20182995.348
        21.750          16.500
                  -1756455.409 6  -1368666.607 6  20909942.734    20909944.566
        18.750          19.750
                  -5912863.513 5  -4607423.395 5  22946580.508    22946582.922
         9.500          10.250
                   -982023.006 6   -765210.844 5  23195556.461    23195557.797
        12.250          11.250
                   3420212.555 6   2665099.843 6  21197374.594    21197375.883
        19.500          20.250
                  -6204061.327 6  -4834330.587 6  22254837.320    22254838.539
        16.500          14.750
 95  4 21 15 57  0.0000000  0  6G18G19G27G28G29G31
                   -818789.394 7   -638017.732 6  20184254.828    20184256.160
        21.750          16.500
                  -1766463.555 6  -1376465.161 6  20908038.391    20908040.090
        18.750          20.000
                  -5944158.183 5  -4631808.836 5  22940625.461    22940628.012
         9.750          10.250
                   -975044.357 5   -759772.941 5  23196884.164    23196885.734
        11.750          11.000
                   3450114.073 6   2688399.713 6  21203064.773    21203065.980
        19.500          20.250
                  -6231017.222 6  -4855335.174 6  22249707.734    22249709.215
        16.500          14.750
 95  4 21 15 57 15.0000000  0  6G18G19G27G28G29G31
                   -812008.743 7   -632734.113 6  20185545.094    20185546.383
        21.750          16.500
                  -1776394.027 6  -1384203.188 6  20906148.578    20906150.246
        18.750          19.750
                  -5975399.578 5  -4656152.761 5  22934680.461    22934683.230
         9.750          10.750
                   -967895.686 6   -754202.552 5  23198245.109    23198246.449
        12.250          11.250
                   3480157.462 6   2711810.133 6  21208781.648    21208782.801
        19.000          19.750
                  -6257830.122 6  -4876228.332 6  22244605.359    22244606.770
        16.500          14.750
 95  4 21 15 57 30.0000000  0  6G18G19G27G28G29G31
                   -805070.562 7   -627327.745 6  20186865.313    20186866.605
        21.750          16.500
                  -1786240.831 6  -1391876.015 6  20904274.852    20904276.477
        19.000          19.750
                  -6006581.494 5  -4680450.343 5  22928746.656    22928749.340
        10.000          10.750
                   -960572.586 6   -748496.246 5  23199638.281    23199639.934
        12.250          11.500
                   3510351.263 6   2735337.754 6  21214527.273    21214528.527
        19.000          19.750
                  -6284498.963 6  -4897009.235 6  22239530.234    22239531.762
        16.250          14.750
 95  4 21 15 57 45.0000000  0  6G18G19G27G28G29G31
                   -797982.454 7   -621804.548 6  20188214.211    20188215.313
        21.750          16.250
                  -1796012.875 6  -1399490.593 6  20902415.352    20902416.941
        19.000          19.750
                  -6037709.495 5  -4704705.913 5  22922823.523    22922825.789
        10.250          10.750
                   -953080.849 6   -742658.540 5  23201064.234    23201065.695
        12.250          11.500
                   3540690.657 6   2758978.828 6  21220300.719    21220301.941
        19.000          19.750
                  -6311030.483 6  -4917683.138 6  22234481.313    22234483.000
        15.750          14.750
 95  4 21 15 58  0.0000000  0  6G18G19G27G28G29G31
                   -790738.165 7   -616159.653 6  20189592.688    20189593.914
        21.500          16.250
                  -1805707.289 6  -1407044.678 6  20900570.469    20900572.113
        18.750          19.750
                  -6068780.539 5  -4728917.103 5  22916910.953    22916913.074
        10.250          10.750
                   -945415.751 6   -736685.748 5  23202522.625    23202524.121
        12.250          11.000
                   3571180.385 6   2782737.036 6  21226102.891    21226103.945
        19.000          19.500
                  -6337416.677 6  -4938243.799 6  22229460.063    22229461.715
        15.750          14.750
 95  4 21 15 58 15.0000000  0  6G18G19G27G28G29G31
                   -783339.339 7   -610394.339 6  20191000.742    20191001.910
        21.750          16.250
                  -1815327.407 6  -1414540.866 6  20898739.891    20898741.660
        18.750          19.750
                  -6099794.443 5  -4753083.773 5  22911009.109    22911011.422
        10.250          10.750
                   -937580.154 6   -730580.095 5  23204013.914    23204014.875
        12.250          11.000
                   3601816.683 6   2806609.463 6  21231932.422    21231933.637
        18.750          19.500
                  -6363659.361 6  -4958692.640 6  22224466.375    22224468.086
        15.750          14.500
 95  4 21 15 58 30.0000000  0  6G18G19G27G28G29G31
                   -775790.255 7   -604511.937 6  20192437.141    20192438.570
        21.500          16.500
                  -1824878.132 6  -1421982.982 6  20896922.227    20896924.023
        18.750          19.750
                  -6130754.855 5  -4777208.755 5  22905117.500    22905119.801
        10.000          10.750
                   -929578.560 6   -724345.091 5  23205536.648    23205537.832
        12.500          11.000
                   3632594.480 6   2830592.143 6  21237789.391    21237790.551
        18.750          19.500
                  -6389765.917 6  -4979035.398 6  22219498.313    22219500.145
        15.500          14.500
 95  4 21 15 58 45.0000000  0  6G18G19G27G28G29G31
                   -768082.731 7   -598506.083 6  20193903.930    20193905.305
        21.750          16.500
                  -1834353.648 6  -1429366.499 6  20895119.047    20895120.730
        18.750          19.750
                  -6161654.060 5  -4801286.039 5  22899237.336    22899239.648
        10.000          10.750
                   -921403.276 6   -717974.745 5  23207092.570    23207093.492
        12.500          11.000
                   3663517.882 6   2854688.286 6  21243673.945    21243675.109
        18.750          19.500
                  -6415731.702 6  -4999268.467 6  22214557.203    22214558.535
        15.500          14.250
 95  4 21 15 59  0.0000000  0  6G18G19G27G28G29G31
                   -760226.710 7   -592384.505 6  20195399.047    20195400.285
        21.750          16.500
                  -1843763.363 6  -1436698.741 6  20893328.430    20893330.027
        18.750          19.500
                  -6192501.674 5  -4825323.130 5  22893367.414    22893369.625
        10.250          10.750
                   -913063.046 6   -711475.870 5  23208679.086    23208680.664
        12.500          11.000
                   3694572.808 6   2878886.912 6  21249583.641    21249584.793
        19.000          19.500
                  -6441563.546 6  -5019397.164 6  22209641.469    22209643.246
        15.500          14.250
 95  4 21 15 59 15.0000000  0  7G 2G18G19G27G28G29G31
                    -22505.23114    -17536.75515  24366026.688    24366030.344
         6.500           6.750
                   -752220.454 7   -586145.871 6  20196922.352    20196923.605
        21.500          16.500
                  -1853101.494 6  -1443975.203 6  20891551.555    20891552.949
        18.750          19.500
                  -6223296.086 5  -4849318.767 5  22887507.203    22887509.430
        10.000          10.500
                   -904553.774 6   -704845.277 5  23210298.313    23210300.082
        12.250          11.250
                   3725761.806 6   2903190.013 6  21255518.828    21255520.004
        19.250          19.750
                  -6467256.262 6  -5039417.448 6  22204752.313    22204753.883
        15.250          14.000
 95  4 21 15 59 30.0000000  0  7G 2G18G19G27G28G29G31
                    -64645.053 4    -50372.971 5  24358007.742    24358011.355
         6.500           6.250
                   -744061.647 7   -579788.363 6  20198474.867    20198476.324
        21.500          16.500
                  -1862366.537 6  -1451194.714 6  20889788.578    20889789.859
        19.000          19.500
                  -6254035.373 5  -4873271.441 5  22881657.586    22881660.070
        10.000          10.750
                   -895874.041 6   -698081.860 5  23211950.141    23211951.383
        12.250          11.250
                   3757088.357 6   2927600.298 6  21261479.875    21261481.086
        19.000          19.750
                  -6492807.081 6  -5059327.174 6  22199890.336    22199891.637
        15.250          13.750
 95  4 21 15 59 45.0000000  0  7G 2G18G19G27G28G29G31
                   -106704.590 4    -83146.638 5  24350004.391    24350007.613
         6.750           6.250
                   -735745.865 7   -573308.536 6  20200057.570    20200058.617
        21.750          16.500
                  -1871557.986 6  -1458356.878 6  20888039.555    20888040.777
        19.000          19.250
                  -6284716.645 5  -4897178.912 5  22875819.109    22875821.602
        10.000          10.750
                   -887022.584 6   -691184.627 5  23213634.961    23213636.285
        12.250          11.000
                   3788552.689 6   2952117.948 6  21267467.484    21267468.699
        19.250          19.750
                  -6518209.047 6  -5079120.907 6  22195056.180    22195057.773
        15.250          14.000
 95  4 21 16  0  0.0000000  0  7G 2G18G19G27G28G29G31
                   -148679.619 4   -115854.441 5  24342016.352    24342019.609
         6.250           6.250
                   -727266.500 7   -566701.238 6  20201671.102    20201672.238
        21.500          16.500
                  -1880671.102 6  -1465458.007 6  20886305.594    20886306.691
        19.000          19.250
                  -6315338.126 5  -4921039.790 5  22869992.227    22869994.566
        10.250          10.750
                   -877995.553 6   -684150.585 5  23215352.414    23215353.320
        12.250          11.000
                   3820152.416 6   2976741.098 6  21273480.891    21273482.109
        19.250          20.000
                  -6543457.205 6  -5098794.784 6  22190251.805    22190253.320
        15.000          13.750
 95  4 21 16  0 15.0000000  0  7G 2G18G19G27G28G29G31
                   -190572.865 4   -148498.524 5  24334044.516    24334048.203
         6.500           6.750
                   -718625.446 7   -559967.957 6  20203315.484    20203316.789
        21.500          16.500
                  -1889705.973 6  -1472498.159 6  20884586.141    20884587.449
        19.000          19.250
                  -6345898.087 5  -4944852.736 5  22864177.063    22864179.242
        10.250          10.750
                   -868794.611 6   -676981.024 5  23217103.625    23217104.758
        12.250          10.750
                   3851883.947 6   3001466.957 6  21279519.172    21279520.602
        19.250          20.250
                  -6568552.834 6  -5118349.812 6  22185476.336    22185477.859
        15.500          13.750
 95  4 21 16  0 30.0000000  0  7G 2G18G19G27G28G29G31
                   -232390.720 4   -181083.847 5  24326086.680    24326090.832
         6.750           7.250
                   -709826.887 7   -553111.943 6  20204989.531    20204991.070
        21.500          16.500
                  -1898665.109 6  -1479479.301 6  20882881.133    20882882.574
        19.000          19.500
                  -6376401.470 5  -4968621.592 5  22858372.375    22858374.465
        10.250          10.750
                   -859422.709 6   -669678.250 5  23218886.336    23218887.422
        12.000          10.750
                   3883743.854 6   3026292.834 6  21285581.859    21285583.457
        19.250          20.500
                  -6593503.864 6  -5137792.165 6  22180728.391    22180730.008
        15.500          13.750
 95  4 21 16  0 45.0000000  0  7G 2G18G19G27G28G29G31
                   -274135.246 4   -213612.038 5  24318142.961    24318147.262
         6.750           7.500
                   -700870.887 7   -546133.247 6  20206693.992    20206695.207
        21.500          16.500
                  -1907548.334 6  -1486401.289 6  20881190.789    20881192.180
        18.750          19.250
                  -6406853.523 5  -4992350.452 5  22852577.492    22852579.523
        10.250          10.750
                   -849880.296 6   -662242.607 5  23220702.578    23220703.770
        12.000          10.750
                   3915733.859 6   3051220.097 6  21291669.273    21291670.910
        19.000          20.500
                  -6618310.025 6  -5157121.633 6  22176008.070    22176009.488
        16.000          14.000
 95  4 21 16  1  0.0000000  0  7G 2G18G19G27G28G29G31
                   -315804.641 4   -246081.668 5  24310213.594    24310217.473
         6.750           7.000
                   -691754.997 7   -539029.963 6  20208428.805    20208430.094
        21.250          16.500
                  -1916351.986 6  -1493261.271 6  20879515.469    20879516.945
        18.750          19.250
                  -6437252.566 5  -5016038.005 5  22846792.648    22846795.004
        10.250          10.750
                   -840165.880 5   -654672.938 5  23222551.078    23222552.016
        11.750          10.750
                   3947856.338 6   3076250.586 6  21297781.938    21297783.500
        18.750          20.250
                  -6642966.593 6  -5176334.532 6  22171316.375    22171317.586
        16.500          14.250
 95  4 21 16  1 15.0000000  0  7G 2G18G19G27G28G29G31
                   -357394.625 4   -278489.445 5  24302299.281    24302303.344
         6.750           7.000
                   -682475.520 7   -531799.203 6  20210194.516    20210195.762
        21.500          16.750
                  -1925070.258 6  -1500054.728 6  20877856.305    20877857.832
        18.750          19.500
                  -6467597.195 5  -5039683.154 5  22841018.570    22841020.738
        10.500          10.750
                   -830275.919 5   -646966.486 5  23224432.820    23224434.500
        11.750          11.000
                   3980115.669 6   3101387.707 6  21303920.414    21303922.289
        18.500          20.250
                  -6667469.532 6  -5195427.723 6  22166653.359    22166654.883
        16.500          14.250
 95  4 21 16  1 30.0000000  0  7G 2G18G19G27G28G29G31
                   -398909.706 3   -310838.842 5  24294398.617    24294402.691
         6.000           6.250
                   -673032.839 7   -524441.271 6  20211991.570    20211992.789
        21.750          16.750
                  -1933708.838 6  -1506786.082 6  20876212.477    20876213.887
        18.750          19.500
                  -6497892.374 5  -5063289.774 5  22835253.461    22835255.391
        10.750          10.250
                   -820215.778 5   -639127.420 5  23226347.352    23226348.781
        11.500          11.000
                   4012508.638 6   3126628.971 6  21310084.633    21310086.445
        18.500          20.250
                  -6691825.577 6  -5214406.449 6  22162018.641    22162019.902
        16.500          14.250
 95  4 21 16  1 45.0000000  0  7G 2G18G19G27G28G29G31
                   -440350.052 3   -343130.012 5  24286512.727    24286517.008
         6.000           6.000
                   -663423.806 7   -516953.716 6  20213819.961    20213821.156
        21.750          17.000
                  -1942267.491 6  -1513455.161 6  20874583.852    20874585.305
        18.750          19.500
                  -6528138.056 5  -5086857.833 5  22829497.563    22829499.188
        10.500          10.000
                   -809984.041 5   -631154.644 5  23228294.188    23228295.910
        11.500          11.000
                   4045035.175 6   3151974.300 6  21316274.344    21316276.066
        18.500          19.750
                  -6716030.165 6  -5233267.158 6  22157412.414    22157413.965
        16.500          14.500
 95  4 21 16  2  0.0000000  0  7G 2G18G19G27G28G29G31
                   -481721.323 3   -375367.357 5  24278639.672    24278644.207
         6.000           6.000
                   -653651.868 7   -509339.221 6  20215679.594    20215680.828
        21.750          17.000
                  -1950748.664 6  -1520063.863 6  20872969.859    20872971.398
        18.750          19.500
                  -6558339.396 5  -5110391.335 5  22823750.594    22823752.094
        10.500          10.000
                   -799583.560 5   -623050.378 5  23230273.398    23230275.090
        11.750          11.000
                   4077690.286 6   3177419.828 6  21322488.484    21322490.148
        18.250          19.750
                  -6740088.620 6  -5252013.997 6  22152834.219    22152835.793
        16.250          14.750
 95  4 21 16  2 15.0000000  0  7G 2G18G19G27G28G29G31
                   -523019.614 4   -407547.831 5  24270781.070    24270785.203
         6.250           6.000
                   -643713.778 7   -501595.262 6  20217570.680    20217571.855
        21.750          17.000
                  -1959149.410 6  -1526609.892 6  20871371.133    20871372.734
        18.750          19.500
                  -6588491.772 5  -5133886.687 5  22818012.570    22818014.414
        10.250          10.000
                   -789010.021 5   -614811.258 5  23232285.813    23232287.801
        11.500          11.000
                   4110479.700 6   3202970.001 6  21328727.914    21328729.633
        18.500          19.500
                  -6764001.017 6  -5270647.016 6  22148283.594    22148285.535
        16.000          15.000
 95  4 21 16  2 30.0000000  0  7G 2G18G19G27G28G29G31
                   -564245.208 4   -439671.656 5  24262936.453    24262940.141
         6.750           6.250
                   -633611.038 7   -493722.998 6  20219493.367    20219494.605
        21.750          17.000
                  -1967469.207 6  -1533092.845 6  20869787.891    20869789.453
        18.750          19.500
                  -6618594.860 5  -5157343.628 5  22812284.094    22812286.070
        10.250          10.250
                   -778263.716 5   -606437.517 5  23234329.992    23234331.836
        11.250          10.750
                   4143406.993 6   3228627.611 6  21334994.063    21334995.539
        18.750          19.250
                  -6787768.920 6  -5289167.444 6  22143760.422    22143762.594
        15.750          15.000
 95  4 21 16  2 45.0000000  0  7G 2G18G19G27G28G29G31
                   -605399.096 5   -471739.621 5  24255105.625    24255109.320
         7.500           6.750
                   -623345.742 7   -485724.074 6  20221446.711    20221448.020
        21.750          17.250
                  -1975711.272 6  -1539515.235 6  20868219.555    20868221.105
        18.500          19.500
                  -6648654.887 5  -5180767.015 5  22806563.641    22806565.750
        10.000          10.250
                   -767349.626 5   -597933.039 5  23236408.102    23236408.789
        11.750          11.000
                   4176467.721 6   3254389.203 6  21341285.391    21341286.672
        19.000          19.000
                  -6811396.048 6  -5307578.180 6  22139264.125    22139266.527
        15.250          15.250
 95  4 21 16  3  0.0000000  0  7G 2G18G19G27G28G29G31
                   -646468.953 5   -503742.100 5  24247290.281    24247294.000
         7.500           7.000
                   -612909.925 7   -477592.272 6  20223432.570    20223434.055
        21.750          17.250
                  -1983867.691 6  -1545870.880 6  20866667.484    20866669.063
        18.750          19.500
                  -6678659.209 5  -5204146.989 5  22800853.906    22800856.184
        10.000          10.250
                   -756260.184 5   -589291.922 5  23238518.055    23238519.941
        11.750          11.500
                   4209668.252 6   3280259.725 6  21347603.336    21347604.566
        19.500          18.750
                  -6834871.728 6  -5325870.900 6  22134796.953    22134799.402
        15.000          15.500
 95  4 21 16  3 15.0000000  0  7G 2G18G19G27G28G29G31
                   -687457.408 4   -535681.137 5  24239490.000    24239494.453
         7.000           7.250
                   -602308.062 7   -469331.086 6  20225449.898    20225451.277
        21.750          17.250
                  -1991945.242 6  -1552165.071 6  20865130.336    20865131.863
        18.750          19.500
                  -6708608.724 5  -5227484.267 5  22795155.078    22795157.055
        10.250          10.250
                   -745000.225 5   -580517.935 5  23240660.289    23240661.379
        11.750          11.000
                   4243004.127 6   3306235.716 6  21353947.164    21353948.109
        19.500          18.750
                  -6858200.526 6  -5344049.164 6  22130357.563    22130360.039
        15.000          15.750
 95  4 21 16  3 30.0000000  0  7G 2G18G19G27G28G29G31
                   -728360.563 4   -567553.706 5  24231706.625    24231710.555
         7.000           7.000
                   -591536.880 7   -460937.963 6  20227499.594    20227501.035
        21.750          17.250
                  -1999942.156 6  -1558396.430 6  20863608.797    20863610.270
        18.750          19.500
                  -6738499.862 5  -5250776.050 5  22789466.984    22789468.855
        10.250          10.250
                   -733566.906 5   -571608.854 5  23242835.945    23242837.336
        11.500          11.000
                   4276479.785 6   3332320.625 6  21360317.547    21360318.277
        19.750          18.750
                  -6881378.454 6  -5362109.867 6  22125946.797    22125949.336
        14.750          15.750
 95  4 21 16  3 45.0000000  0  7G 2G18G19G27G28G29G31
                   -769178.858 4   -599360.146 5  24223938.836    24223943.039
         6.750           6.750
                   -580599.981 7   -452415.707 6  20229580.875    20229582.156
        21.750          17.250
                  -2007860.555 6  -1564566.606 6  20862101.867    20862103.359
        18.750          19.500
                  -6768332.207 5  -5274022.018 5  22783789.859    22783791.930
        10.250          10.250
                   -721960.895 5   -562565.215 5  23245044.336    23245046.141
        11.500          11.000
                   4310095.311 6   3358514.525 6  21366714.500    21366715.055
        19.750          18.750
                  -6904402.145 6  -5380050.384 6  22121565.602    22121568.141
        15.000          15.750
 95  4 21 16  4  0.0000000  0  7G 2G18G19G27G28G29G31
                   -809916.029 4   -631103.380 5  24216187.078    24216190.602
         7.000           6.750
                   -569505.907 7   -443770.978 6  20231692.297    20231693.457
        22.000          17.250
                  -2015703.304 6  -1570677.836 6  20860609.500    20860610.965
        18.750          19.500
                  -6798110.553 5  -5297225.907 5  22778123.148    22778125.641
        10.500          10.750
                   -710186.664 5   -553390.492 5  23247285.727    23247286.840
        11.500          11.000
                   4343848.277 6   3384815.529 6  21373137.563    21373138.105
        19.750          18.750
                  -6927275.849 6  -5397874.024 6  22117212.711    22117215.211
        14.750          15.500
 95  4 21 16  4 15.0000000  0  7G 2G18G19G27G28G29G31
                   -850564.932 4   -662777.835 5  24208451.688    24208455.457
         7.000           6.750
                   -558248.610 7   -434999.067 6  20233834.445    20233835.785
        22.000          17.250
                  -2023465.451 6  -1576726.257 6  20859132.383    20859133.871
        19.000          19.500
                  -6827826.772 5  -5320381.391 5  22772469.008    22772470.945
        11.000          10.750
                   -698238.436 5   -544080.185 5  23249558.492    23249560.746
        11.250          11.250
                   4377746.506 6   3411229.717 6  21379587.992    21379588.723
        19.500          18.750
                  -6949994.394 6  -5415576.769 6  22112889.828    22112892.020
        15.000          15.250
 95  4 21 16  4 30.0000000  0  7G 2G18G19G27G28G29G31
                   -891130.389 4   -694387.268 5  24200732.398    24200736.230
         7.250           7.000
                   -546836.171 7   -426106.265 6  20236006.133    20236007.527
        22.000          17.250
                  -2031151.248 6  -1582715.188 6  20857669.922    20857671.508
        18.750          19.750
                  -6857487.771 5  -5343493.851 5  22766824.859    22766826.656
        11.000          11.000
                   -686122.810 5   -534639.446 5  23251864.203    23251865.734
        11.500          11.250
                   4411782.703 6   3437751.408 6  21386064.789    21386065.582
        19.000          18.750
                  -6972560.980 6  -5433161.106 6  22108595.375    22108597.426
        15.000          15.000
 95  4 21 16  4 45.0000000  0  7G 2G18G19G27G28G29G31
                   -931609.985 4   -725929.790 5  24193028.805    24193033.539
         7.000           7.250
                   -535266.159 7   -417090.676 6  20238207.898    20238208.828
        22.250          17.250
                  -2038758.231 6  -1588642.707 6  20856222.219    20856223.879
        18.750          19.750
                  -6887092.909 5  -5366562.776 5  22761190.906    22761193.063
        11.000          11.000
                   -673836.880 5   -525066.009 5  23254202.359    23254204.398
        11.500          11.500
                   4445959.151 6   3464382.388 6  21392568.375    21392569.090
        19.000          18.750
                  -6994968.004 6  -5450621.106 6  22104331.609    22104333.445
        15.500          14.750
 95  4 21 16  5  0.0000000  0  7G 2G18G19G27G28G29G31
                   -972003.529 4   -757405.261 5  24185342.734    24185346.797
         7.250           7.500
                   -523539.486 7   -407953.012 6  20240439.438    20240440.445
        22.250          17.250
                  -2046288.802 6  -1594510.675 6  20854789.352    20854790.945
        18.750          19.750
                  -6916643.925 5  -5389589.522 5  22755567.578    22755569.727
        11.000          11.000
                   -661381.364 5   -515360.418 5  23256572.734    23256573.758
        11.500          10.750
                   4480272.361 6   3491119.935 6  21399097.781    21399098.816
        18.500          19.000
                  -7017213.992 6  -5467955.629 6  22100098.414    22100099.902
        15.750          14.250
 95  4 21 16  5 15.0000000  0  7G 2G18G19G27G28G29G31
                  -1012313.398 5   -788815.534 5  24177671.930    24177676.016
         7.500           7.500
                   -511655.919 7   -398693.102 6  20242700.906    20242701.859
        22.250          17.000
                  -2053741.149 6  -1600317.700 6  20853371.156    20853372.801
        18.750          19.750
                  -6946138.107 5  -5412571.990 5  22749955.438    22749957.039
        11.250          11.250
                   -648753.222 5   -505520.312 5  23258976.242    23258977.164
        11.750          11.000
                   4514724.299 6   3517965.581 6  21405653.539    21405654.777
        18.000          19.250
                  -7039294.298 6  -5485161.053 6  22095896.672    22095897.934
        15.750          14.000
 95  4 21 16  5 30.0000000  0  7G 2G18G19G27G28G29G31
                  -1052543.917 5   -820163.980 5  24170016.492    24170020.754
         7.500           7.750
                   -499619.231 7   -389313.869 6  20244991.313    20244992.230
        22.250          17.000
                  -2061117.632 6  -1606065.603 6  20851967.555    20851969.180
        18.750          19.750
                  -6975582.868 5  -5435515.951 5  22744351.922    22744353.914
        11.250          11.250
                   -635955.818 5   -495548.318 5  23261411.125    23261412.031
        11.500          10.750
                   4549309.291 6   3544914.904 6  21412234.859    21412236.309
        18.000          19.500
                  -7061213.327 6  -5502240.801 6  22091725.828    22091727.004
        16.250          14.250
 95  4 21 16  5 45.0000000  0  7G 2G18G19G27G28G29G31
                  -1092694.474 4   -851450.111 5  24162375.578    24162379.918
         7.000           7.750
                   -487430.416 7   -379816.096 6  20247310.914    20247311.699
        22.250          17.000
                  -2068416.793 6  -1611753.257 6  20850578.297    20850580.012
        18.750          19.750
                  -7004982.782 5  -5458424.956 5  22738756.992    22738759.262
        11.000          11.000
                   -622988.191 5   -485443.685 5  23263879.117    23263880.273
        11.750          11.000
                   4584024.394 6   3571965.612 6  21418840.906    21418842.547
        17.750          19.250
                  -7082971.069 6  -5519194.881 6  22087585.680    22087586.602
        16.500          14.000
 95  4 21 16  6  0.0000000  0  7G 2G18G19G27G28G29G31
                  -1132761.297 4   -882670.977 5  24154751.492    24154755.648
         7.250           7.750
                   -475083.661 7   -370195.259 6  20249660.352    20249661.184
        22.250          17.000
                  -2075633.186 6  -1617376.420 6  20849205.023    20849206.730
        18.750          19.750
                  -7034333.598 5  -5481295.709 5  22733171.992    22733173.992
        10.750          11.000
                   -609843.988 5   -475201.460 5  23266380.180    23266380.953
        11.750          11.000
                   4618873.981 6   3599121.114 6  21425472.391    21425474.043
        17.750          19.000
                  -7104564.255 6  -5536020.736 6  22083476.492    22083477.445
        16.500          13.750
 95  4 21 16  6 15.0000000  0  7G 2G18G19G27G28G29G31
                  -1172750.669 5   -913831.511 5  24147141.602    24147145.707
         7.500           7.750
                   -462579.990 7   -360452.144 6  20252039.656    20252040.570
        22.000          17.000
                  -2082773.011 6  -1622939.910 6  20847846.531    20847848.207
        18.750          19.750
                  -7063639.579 5  -5504131.523 5  22727594.984    22727597.012
        10.750          10.750
                   -596528.196 6   -464825.515 5  23268914.523    23268915.590
        12.250          11.250
                   4653852.735 6   3626377.265 6  21432128.805    21432130.402
        17.750          19.000
                  -7126000.911 6  -5552724.609 6  22079397.328    22079398.152
        16.500          13.750
 95  4 21 16  6 30.0000000  0  7G 2G18G19G27G28G29G31
                  -1212664.063 4   -944932.835 5  24139546.273    24139550.379
         7.250           7.750
                   -449918.657 7   -350586.176 6  20254449.148    20254450.059
        22.000          16.750
                  -2089837.275 6  -1628444.529 6  20846502.141    20846503.746
        18.750          19.750
                  -7092900.029 5  -5526931.862 5  22722026.758    22722028.516
        10.750          10.750
                   -583040.575 6   -454315.694 5  23271481.313    23271482.004
        12.250          11.500
                   4688957.619 6   3653731.701 6  21438809.211    21438810.637
        18.000          19.000
                  -7147281.703 6  -5569307.037 6  22075347.867    22075348.531
        16.500          13.750
 95  4 21 16  6 45.0000000  0  7G 2G18G19G27G28G29G31
                  -1252505.535 4   -975978.116 5  24131964.883    24131968.762
         7.250           7.500
                   -437104.877 7   -340601.412 6  20256887.359    20256888.516
        22.000          17.000
                  -2096831.466 6  -1633894.545 6  20845171.328    20845172.813
        19.000          19.500
                  -7122121.356 5  -5549701.717 5  22716465.992    22716467.855
        10.500          10.500
                   -569386.716 5   -443676.332 5  23274078.617    23274080.871
        11.750          11.500
                   4724182.587 6   3681179.709 6  21445512.523    21445513.949
        18.250          19.000
                  -7168412.993 6  -5585772.967 6  22071326.406    22071327.211
        16.250          14.000
 95  4 21 16  7  0.0000000  0  7G 2G18G19G27G28G29G31
                  -1292270.905 4  -1006964.102 5  24124397.414    24124401.418
         7.000           7.500
                   -424132.415 7   -330493.007 6  20259356.031    20259357.016
        22.250          17.000
                  -2103753.321 6  -1639288.195 6  20843854.258    20843855.770
        19.000          19.750
                  -7151298.372 5  -5572437.042 5  22710913.781    22710916.059
        10.250          10.750
                   -555563.021 5   -432904.630 5  23276709.195    23276710.633
        11.500          11.500
                   4759533.522 6   3708725.873 6  21452239.625    21452240.891
        18.500          18.750
                  -7189393.986 6  -5602121.783 6  22067333.570    22067335.051
        15.750          14.250
 95  4 21 16  7 15.0000000  0  7G 2G18G19G27G28G29G31
                  -1331961.726 4  -1037891.998 5  24116844.516    24116848.227
         7.000           7.250
                   -411001.258 7   -320260.940 6  20261854.695    20261855.508
        22.250          17.000
                  -2110603.521 6  -1644626.007 6  20842550.672    20842552.211
        19.000          19.750
                  -7180429.708 5  -5595136.765 5  22705370.391    22705372.164
        10.750          10.750
                   -541569.715 5   -422000.762 5  23279371.680    23279373.641
        11.250          11.500
                   4795011.902 6   3736371.346 6  21458991.031    21458992.078
        18.750          18.750
                  -7210228.201 6  -5618356.222 6  22063368.938    22063370.625
        15.500          14.250
 95  4 21 16  7 30.0000000  0  7G 2G18G19G27G28G29G31
                  -1371578.694 4  -1068762.344 5  24109305.727    24109309.371
         7.250           7.000
                   -397708.758 7   -309903.148 6  20264384.328    20264385.133
        22.250          17.000
                  -2117380.766 6  -1649906.974 6  20841261.039    20841262.582
        19.000          19.750
                  -7209515.537 5  -5617801.043 5  22699835.477    22699837.453
        10.750          10.750
                   -527406.446 5   -410964.456 5  23282067.953    23282069.230
        11.750          11.500
                   4830622.271 6   3764119.668 6  21465767.523    21465768.512
        18.750          18.500
                  -7230916.610 6  -5634477.050 6  22059431.859    22059433.855
        15.500          14.750
 95  4 21 16  7 45.0000000  0  7G 2G18G19G27G28G29G31
                  -1411119.065 4  -1099573.014 5  24101781.289    24101784.852
         7.000           7.000
                   -384251.805 7   -299417.219 6  20266944.914    20266945.980
        22.250          17.000
                  -2124087.348 6  -1655132.879 6  20839984.820    20839986.324
        19.000          19.750
                  -7238556.777 5  -5640430.563 5  22694309.023    22694311.195
        10.750          11.000
                   -513073.298 5   -399795.776 5  23284795.641    23284796.211
        11.750          11.500
                   4866368.395 6   3791973.775 6  21472569.789    21472570.883
        18.750          18.500
                  -7251459.726 6  -5650484.655 6  22055522.586    22055524.809
        15.000          14.750
 95  4 21 16  8  0.0000000  0  7G 2G18G19G27G28G29G31
                  -1450585.575 4  -1130326.123 5  24094271.531    24094275.094
         7.000           7.250
                   -370629.256 7   -288802.250 6  20269537.391    20269538.348
        22.250          17.000
                  -2130723.401 6  -1660303.821 6  20838722.023    20838723.449
        19.000          19.500
                  -7267549.258 5  -5663022.094 5  22688792.281    22688794.258
        11.000          11.000
                   -498570.407 5   -388494.834 5  23287555.172    23287556.367
        11.500          11.500
                   4902254.221 6   3819936.741 6  21479398.633    21479399.777
        18.750          18.500
                  -7271855.943 6  -5666377.802 6  22051641.086    22051643.520
        15.000          15.000
 95  4 21 16  8 15.0000000  0  7G 2G18G19G27G28G29G31
                  -1489981.593 4  -1161024.302 5  24086774.461    24086778.355
         7.000           8.000
                   -356844.733 7   -278061.067 6  20272160.344    20272161.480
        22.250          17.000
                  -2137292.117 6  -1665422.304 6  20837471.891    20837473.359
        19.250          19.500
                  -7296492.292 5  -5685575.103 5  22683284.547    22683286.477
        11.250          11.000
                   -483902.212 5   -377065.077 5  23290345.688    23290347.949
        11.000          11.500
                   4938277.235 6   3848006.608 6  21486253.516    21486254.695
        18.750          18.500
                  -7292108.328 6  -5682158.868 6  22047787.297    22047789.574
        15.000          15.250
 95  4 21 16  8 30.0000000  0  7G 2G18G19G27G28G29G31
                  -1529296.518 4  -1191659.262 5  24079292.992    24079297.547
         7.000           8.500
                   -342891.873 7   -267188.711 6  20274815.469    20274816.688
        22.250          17.000
                  -2143784.771 6  -1670481.508 6  20836236.406    20836237.828
        19.250          19.500
                  -7325378.375 5  -5708083.731 5  22677787.766    22677789.816
        11.250          11.250
                   -469062.506 5   -365501.683 5  23293169.328    23293171.324
        11.000          11.500
                   4974444.572 6   3876188.924 6  21493135.984    21493137.234
        18.750          18.750
                  -7312208.263 6  -5697821.141 6  22043962.234    22043964.914
        15.000          15.500
 95  4 21 16  8 45.0000000  0  7G 2G18G19G27G28G29G31
                  -1568531.736 5  -1222232.120 5  24071827.055    24071831.078
         7.500           8.500
                   -328774.747 7   -256188.358 6  20277502.086    20277503.105
        22.250          17.000
                  -2150204.366 6  -1675483.785 6  20835014.953    20835016.324
        19.250          19.500
                  -7354214.148 5  -5730553.147 5  22672300.492    22672302.566
        11.250          11.500
                   -454055.305 5   -353807.765 5  23296025.672    23296027.961
        11.000          11.750
                   5010752.216 6   3904480.578 6  21500044.953    21500046.473
        18.250          18.750
                  -7332157.765 6  -5713366.192 6  22040165.945    22040168.926
        14.750          15.750
 95  4 21 16  9  0.0000000  0  7G 2G18G19G27G28G29G31
                  -1607685.124 5  -1252741.228 5  24064376.641    24064380.488
         8.250           8.250
                   -314490.885 7   -245058.081 6  20280220.078    20280221.195
        22.250          17.000
                  -2156547.139 6  -1680426.203 6  20833807.859    20833809.254
        19.250          19.500
                  -7382997.098 5  -5752981.403 5  22666823.406    22666825.648
        11.000          11.500
                   -438879.230 5   -341982.267 5  23298914.273    23298915.250
        11.250          11.500
                   5047203.520 6   3932884.172 6  21506981.477    21506982.969
        18.250          18.750
                  -7351954.755 6  -5728792.402 6  22036398.773    22036401.621
        15.000          16.000
 95  4 21 16  9 15.0000000  0  7G 2G18G19G27G28G29G31
                  -1646755.686 5  -1283185.799 5  24056941.961    24056945.250
         8.500           7.750
                   -300037.036 7   -233795.349 6  20282970.414    20282971.699
        22.000          17.000
                  -2162811.731 6  -1685307.700 6  20832615.898    20832617.148
        19.250          19.500
                  -7411724.252 5  -5775366.188 5  22661356.680    22661358.684
        11.250          11.750
                   -423532.107 5   -330023.476 5  23301833.258    23301836.105
        11.000          11.750
                   5083799.362 6   3961400.390 6  21513945.305    21513947.043
        18.250          19.000
                  -7371594.648 6  -5744096.200 6  22032661.625    22032664.453
        15.250          16.250
 95  4 21 16  9 30.0000000  0  7G 2G18G19G27G28G29G31
                  -1685750.899 5  -1313571.673 5  24049521.375    24049524.414
         8.500           7.250
                   -285422.592 7   -222407.481 6  20285751.742    20285752.738
        22.000          17.250
                  -2169006.395 6  -1690134.707 6  20831436.953    20831438.215
        19.250          19.500
                  -7440404.478 5  -5797714.401 5  22655899.070    22655901.145
        11.250          11.500
                   -408022.064 5   -317937.740 5  23304785.766    23304786.672
        11.000          11.500
                   5120530.602 6   3990022.113 6  21520935.070    21520936.746
        18.000          19.000
                  -7391081.805 6  -5759280.977 6  22028953.563    22028956.234
        15.500          16.250
 95  4 21 16  9 45.0000000  0  7G 2G18G19G27G28G29G31
                  -1724655.194 5  -1343886.697 5  24042117.828    24042121.117
         8.250           7.000
                   -270636.753 7   -210886.052 6  20288565.156    20288566.449
        22.000          17.250
                  -2175119.039 6  -1694897.802 6  20830273.961    20830275.273
        19.500          19.500
                  -7469025.896 5  -5820016.784 5  22650452.531    22650454.398
        11.000          11.500
                   -392336.911 5   -305715.554 5  23307770.438    23307772.379
        11.000          11.500
                   5157406.862 6   4018756.841 6  21527952.383    21527954.020
        18.250          19.000
                  -7410402.688 6  -5774336.198 6  22025276.922    22025279.426
        15.750          16.250
 95  4 21 16 10  0.0000000  0  7G 2G18G19G27G28G29G31
                  -1763470.183 5  -1374132.134 5  24034731.383    24034735.066
         8.000           7.000
                   -255685.123 7   -199235.439 6  20291410.430    20291411.563
        22.000          17.250
                  -2181149.264 6  -1699596.678 6  20829126.406    20829127.633
        19.500          19.500
                  -7497589.643 5  -5842274.235 5  22645016.883    22645018.891
        11.000          11.250
                   -376479.313 5   -293358.988 5  23310787.734    23310789.234
        11.000          11.250
                   5194421.615 6   4047599.488 6  21534996.133    21534997.770
        18.250          19.000
                  -7429559.164 6  -5789263.306 6  22021631.594    22021633.949
        16.250          16.250
 95  4 21 16 10 15.0000000  0  7G 2G18G19G27G28G29G31
                  -1802194.735 5  -1404307.092 5  24027362.000    24027365.723
         7.750           7.000
                   -240571.914 7   -187458.916 6  20294286.242    20294287.348
        21.750          17.000
                  -2187094.479 6  -1704229.311 6  20827995.078    20827996.246
        19.500          19.500
                  -7526095.132 5  -5864486.290 5  22639592.492    22639594.508
        11.000          11.500
                   -360449.218 5   -280868.014 5  23313838.375    23313839.504
        10.750          11.500
                   5231571.799 6   4076547.656 6  21542065.695    21542067.320
        18.250          19.000
                  -7448551.584 6  -5804062.582 6  22018017.836    22018019.848
        16.500          16.000
 95  4 21 16 10 30.0000000  0  7G 2G18G19G27G28G29G31
                  -1840834.235 5  -1434415.771 5  24020009.844    24020013.059
         8.250           7.250
                   -225304.017 7   -175561.857 6  20297191.758    20297192.871
        21.750          17.250
                  -2192962.181 6  -1708801.542 6  20826878.477    20826879.641
        19.500          19.250
                  -7554547.531 5  -5886656.972 5  22634178.078    22634180.168
        11.000          11.500
                   -344251.989 5   -268246.808 6  23316920.102    23316923.746
        10.500          12.000
                   5268851.970 6   4105597.125 6  21549159.906    21549161.563
        18.500          19.000
                  -7467385.307 6  -5818738.201 6  22014433.898    22014435.461
        17.000          15.750
 95  4 21 16 10 45.0000000  0  7G 2G18G19G27G28G29G31
                  -1879393.360 5  -1464461.827 5  24012672.297    24012675.973
         8.750           7.750
                   -209881.857 7   -163544.585 6  20300126.367    20300127.566
        21.750          17.250
                  -2198756.698 6  -1713316.745 6  20825775.742    20825776.980
        19.250          19.250
                  -7582951.581 5  -5908789.985 5  22628772.828    22628774.875
        11.000          11.000
                   -327890.628 5   -255497.700 5  23320034.406    23320034.973
        10.750          11.250
                   5306259.361 6   4134745.719 6  21556278.422    21556279.887
        18.750          19.000
                  -7486062.287 6  -5833291.680 6  22010880.008    22010881.266
        17.250          15.500
 95  4 21 16 11  0.0000000  0  7G 2G18G19G27G28G29G31
                  -1917873.963 5  -1494446.693 5  24005349.438    24005353.504
         8.500           8.000
                   -194306.566 7   -151408.001 6  20303090.203    20303091.602
        21.500          17.250
                  -2204476.238 6  -1717773.525 6  20824687.438    20824688.559
        19.250          19.250
                  -7611306.711 5  -5930884.881 5  22623377.211    22623378.762
        11.000          11.000
                   -311364.394 5   -242620.123 5  23323178.469    23323181.277
        10.250          11.750
                   5343792.289 6   4163992.142 6  21563420.641    21563422.055
        18.750          18.750
                  -7504582.760 6  -5847723.210 6  22007355.695    22007356.813
        17.250          15.500
 95  4 21 16 11 15.0000000  0  7G 2G18G19G27G28G29G31
                  -1956278.656 5  -1524372.408 5  23998041.273    23998045.246
         7.750           7.750
                   -178581.733 7   -139154.883 6  20306082.602    20306083.879
        21.500          17.250
                  -2210122.080 6  -1722172.877 6  20823613.016    20823614.203
        19.250          19.250
                  -7639612.369 5  -5952941.229 5  22617990.531    22617992.352
        11.250          11.000
                   -294674.195 5   -229614.773 5  23326354.094    23326356.691
        10.250          11.750
                   5381448.799 6   4193334.862 6  21570586.492    21570587.680
        18.750          18.250
                  -7522948.403 6  -5862034.090 6  22003860.742    22003861.828
        17.250          15.250
 95  4 21 16 11 30.0000000  0  7G 2G18G19G27G28G29G31
                  -1994601.753 4  -1554234.527 5  23990747.984    23990752.184
         7.250           7.250
                   -162705.337 7   -126783.665 6  20309103.813    20309105.180
        21.500          17.250
                  -2215688.469 6  -1726510.317 6  20822553.875    20822554.984
        19.500          19.250
                  -7667865.304 5  -5974956.486 5  22612614.102    22612616.129
        11.000          11.250
                   -277815.442 5   -216478.091 5  23329563.063    23329564.609
        10.500          11.750
                   5419229.942 6   4222774.695 6  21577776.125    21577777.230
        18.750          18.250
                  -7541153.543 6  -5876219.905 6  22000396.500    22000397.227
        17.250          15.000
 95  4 21 16 11 45.0000000  0  7G 2G18G19G27G28G29G31
                  -2032847.789 5  -1584036.609 5  23983470.086    23983473.777
         7.500           6.750
                   -146685.128 7   -114300.383 6  20312152.289    20312153.715
        21.500          17.250
                  -2221177.673 6  -1730787.616 6  20821509.305    20821510.461
        19.500          19.500
                  -7696070.374 5  -5996934.450 5  22607246.758    22607248.902
        11.000          11.250
                   -260793.279 5   -203214.076 5  23332802.492    23332804.602
        10.500          11.750
                   5457129.112 6   4252306.501 6  21584988.070    21584989.051
        18.750          18.000
                  -7559206.251 6  -5890286.947 6  21996961.164    21996961.809
        17.500          14.750
 95  4 21 16 12  0.0000000  0  7G 2G18G19G27G28G29G31
                  -2071016.344 5  -1613778.337 5  23976207.250    23976210.441
         7.750           6.750
                   -130520.022 7   -101704.208 6  20315228.547    20315229.910
        21.500          17.250
                  -2226586.285 6  -1735002.118 6  20820480.078    20820481.340
        19.500          19.500
                  -7724223.935 5  -6018872.277 5  22601889.648    22601891.402
        11.000          11.250
                   -243605.907 5   -189821.335 5  23336071.813    23336074.016
        10.000          11.500
                   5495146.966 6   4281930.780 6  21592222.539    21592223.621
        18.250          17.500
                  -7577106.462 6  -5904235.157 6  21993554.633    21993555.023
        17.250          14.250
 95  4 21 16 12 15.0000000  0  7G 2G18G19G27G28G29G31
                  -2109109.018 5  -1643460.928 5  23968958.602    23968961.652
         8.250           7.000
                   -114207.509 7    -88993.162 6  20318332.609    20318333.926
        21.250          17.250
                  -2231915.419 6  -1739154.686 6  20819465.969    20819467.113
        19.500          19.500
                  -7752324.720 5  -6040768.982 5  22596542.289    22596544.176
        11.000          11.500
                   -226252.792 5   -176299.424 5  23339375.203    23339377.727
        10.500          11.750
                   5533285.989 6   4311649.485 6  21599480.141    21599481.105
        18.000          17.250
                  -7594854.643 6  -5918064.905 6  21990177.297    21990177.652
        17.250          14.250
 95  4 21 16 12 30.0000000  0  7G 2G18G19G27G28G29G31
                  -2147128.235 5  -1673086.284 5  23961723.688    23961727.234
         8.250           7.250
                    -97745.081 7    -76165.303 6  20321465.414    20321466.715
        21.500          17.250
                  -2237170.920 6  -1743249.883 6  20818465.695    20818466.992
        19.250          19.500
                  -7780374.131 5  -6062625.656 5  22591204.563    22591206.781
        11.000          11.750
                   -208734.510 5   -162648.832 5  23342709.328    23342710.375
        10.500          11.250
                   5571547.112 6   4341463.331 6  21606760.922    21606761.934
        18.000          17.250
                  -7612452.175 6  -5931777.263 6  21986828.555    21986829.184
        17.000          14.250
 95  4 21 16 12 45.0000000  0  7G 2G18G19G27G28G29G31
                  -2185077.869 5  -1702657.410 5  23954502.367    23954505.969
         8.250           7.750
                    -81132.754 7    -63220.634 6  20324626.516    20324628.047
        21.250          17.250
                  -2242357.673 6  -1747291.510 6  20817478.656    20817479.965
        19.250          19.500
                  -7808378.748 5  -6084447.419 6  22585875.750    22585877.656
        11.500          12.000
                   -191055.585 5   -148873.039 5  23346071.914    23346074.207
        10.250          11.000
                   5609925.716 6   4371368.716 6  21614064.133    21614064.973
        18.000          17.250
                  -7629905.272 6  -5945377.073 6  21983507.211    21983507.805
        17.000          14.250
 95  4 21 16 13  0.0000000  0  7G 2G18G19G27G28G29G31
                  -2222952.097 5  -1732169.770 5  23947294.344    23947298.629
         7.750           8.250
                    -64368.668 7    -50157.714 6  20327816.625    20327818.172
        21.250          17.250
                  -2247469.263 6  -1751274.564 6  20816505.914    20816507.301
        19.000          19.500
                  -7836338.318 5  -6106234.083 5  22580555.008    22580557.133
        11.250          11.750
                   -173212.086 5   -134969.028 5  23349469.156    23349470.770
        10.750          11.500
                   5648422.766 6   4401366.401 6  21621389.898    21621390.813
        18.000          17.250
                  -7647211.857 6  -5958862.715 6  21980213.781    21980214.367
        17.000          14.250
 95  4 21 16 13 15.0000000  0  7G 2G18G19G27G28G29G31
                  -2260750.927 5  -1761623.365 5  23940101.555    23940105.949
         7.750           8.500
                    -47457.066 7    -36979.848 6  20331034.906    20331036.121
        21.250          17.000
                  -2252507.348 6  -1755200.341 6  20815547.109    20815548.574
        19.000          19.500
                  -7864250.357 5  -6127983.707 6  22575243.445    22575245.629
        11.250          12.250
                   -155204.437 5   -120937.090 5  23352895.148    23352896.664
        10.250          11.000
                   5687040.544 6   4431458.162 6  21628738.695    21628739.449
        18.250          17.250
                  -7664373.284 6  -5972235.246 6  21976947.992    21976948.676
        16.750          14.250
 95  4 21 16 13 30.0000000  0  7G 2G18G19G27G28G29G31
                  -2298474.987 5  -1791018.711 5  23932923.430    23932927.105
         8.250           8.500
                    -30397.388 7    -23686.597 6  20334281.211    20334282.465
        21.000          17.000
                  -2257478.144 6  -1759073.689 6  20814601.383    20814602.781
        19.250          19.500
                  -7892116.317 5  -6149697.427 6  22569941.086    22569943.176
        11.500          12.250
                   -137034.664 5   -106778.839 5  23356352.844    23356354.590
        10.500          11.000
                   5725779.534 6   4461644.371 6  21636110.422    21636111.555
        18.250          17.750
                  -7681389.934 6  -5985494.969 6  21973709.906    21973710.523
        16.500          14.250
 95  4 21 16 13 45.0000000  0  7G 2G18G19G27G28G29G31
                  -2336126.604 5  -1820357.614 5  23925758.695    23925762.066
         8.500           8.250
                    -13190.102 7    -10278.328 6  20337555.523    20337556.934
        21.000          17.000
                  -2262386.023 6  -1762898.007 6  20813667.563    20813668.887
        19.500          19.500
                  -7919938.545 5  -6171377.070 6  22564646.578    22564648.711
        11.750          12.500
                   -118705.946 5    -92496.716 5  23359840.438    23359842.195
        10.250          10.750
                   5764638.340 6   4491923.943 6  21643505.273    21643506.293
        18.250          17.750
                  -7698263.402 6  -5998643.118 6  21970499.250    21970499.992
        16.500          14.750
 95  4 21 16 14  0.0000000  0  7G 2G18G19G27G28G29G31
                  -2373699.390 5  -1849635.101 5  23918608.234    23918612.449
         8.250           8.500
                      4176.923 7      3254.418 6  20340860.531    20340861.836
        21.000          16.500
                  -2267226.434 6  -1766669.757 6  20812746.625    20812747.891
        19.500          19.500
                  -7947708.496 5  -6193015.984 6  22559362.125    22559364.195
        11.750          12.250
                   -100209.557 5    -78083.956 5  23363360.039    23363361.734
        10.250          10.750
                   5803630.923 6   4522307.757 6  21650925.367    21650926.453
        18.500          18.000
                  -7714985.092 6  -6011673.004 6  21967316.984    21967317.938
        16.500          14.750
 95  4 21 16 14 15.0000000  0  7G 2G18G19G27G28G29G31
                  -2411196.965 5  -1878853.966 5  23911472.484    23911476.559
         8.250           8.250
                     21702.426 7     16910.653 6  20344195.414    20344196.563
        21.000          16.500
                  -2272005.880 6  -1770393.996 6  20811837.133    20811838.406
        19.750          19.500
                  -7975431.560 5  -6214618.357 6  22554086.500    22554088.590
        11.500          12.250
                    -81549.443 5    -63543.604 5  23366911.813    23366912.820
        10.750          11.000
                   5842754.970 6   4552794.014 6  21658370.516    21658371.676
        18.750          18.250
                  -7731553.891 6  -6024583.750 6  21964164.008    21964165.059
        16.250          15.000
 95  4 21 16 14 30.0000000  0  7G 2G18G19G27G28G29G31
                  -2448620.708 5  -1908015.304 5  23904351.172    23904355.039
         8.250           8.500
                     39386.933 7     30690.783 6  20347560.719    20347561.930
        20.750          16.500
                  -2276726.377 6  -1774072.306 6  20810938.781    20810939.953
        19.750          19.500
                  -8003112.484 5  -6236187.905 6  22548819.219    22548821.129
        11.750          12.250
                    -62727.397 5    -48877.086 5  23370492.688    23370495.129
        10.000          11.000
                   5882007.730 6   4583380.561 6  21665840.289    21665841.164
        19.000          18.000
                  -7747968.874 6  -6037374.642 6  21961039.930    21961041.484
        16.000          15.500
 95  4 21 16 14 45.0000000  0  7G 2G18G19G27G28G29G31
                  -2485969.124 5  -1937117.952 5  23897244.344    23897247.840
         9.000           8.500
                     57227.697 7     44592.675 6  20350955.578    20350956.816
        20.500          16.250
                  -2281385.090 6  -1777702.469 6  20810052.258    20810053.418
        19.500          19.500
                  -8030751.065 5  -6257724.450 6  22543559.664    22543561.695
        11.750          12.250
                    -43744.634 5    -34085.324 5  23374105.141    23374106.359
        10.250          10.500
                   5921386.063 6   4614064.961 6  21673333.773    21673334.758
        19.000          18.000
                  -7764226.517 6  -6050042.918 6  21957946.266    21957948.145
        15.750          15.750
 95  4 21 16 15  0.0000000  0  7G 2G18G19G27G28G29G31
                  -2523239.133 5  -1966159.501 5  23890151.945    23890155.633
         9.000           8.500
                     75222.095 7     58614.281 6  20354379.906    20354381.008
        20.500          16.250
                  -2285979.335 6  -1781282.402 6  20809177.789    20809179.020
        19.500          19.500
                  -8058345.670 5  -6279226.734 6  22538308.422    22538310.594
        11.750          12.250
                    -24601.057 5    -19168.252 5  23377748.313    23377751.063
        10.500          10.750
                   5960888.099 6   4644845.751 6  21680850.672    21680851.781
        18.750          18.000
                  -7780323.038 6  -6062585.658 6  21954883.055    21954885.145
        15.500          16.000
 95  4 21 16 15 15.0000000  0  7G 2G18G19G27G28G29G31
                  -2560428.532 5  -1995138.233 5  23883075.117    23883078.688
         8.500           8.500
                     93372.263 7     72757.264 6  20357833.813    20357834.918
        20.500          16.250
                  -2290508.489 6  -1784811.613 6  20808315.930    20808317.113
        19.500          19.500
                  -8085893.224 5  -6300692.356 6  22533066.375    22533068.199
        11.750          12.000
                     -5294.901 5     -4124.494 5  23381422.125    23381422.836
        10.500          10.000
                   6000516.054 6   4675724.658 6  21688391.484    21688392.707
        18.500          17.750
                  -7796253.232 6  -6074998.785 6  21951851.531    21951853.875
        15.750          16.250
 95  4 21 16 15 30.0000000  0  7G 2G18G19G27G28G29G31
                  -2597538.642 5  -2024055.179 5  23876013.219    23876016.789
         8.500           8.750
                    111681.528 7     87024.224 6  20361317.820    20361319.055
        20.500          16.250
                  -2294975.246 6  -1788292.198 6  20807466.094    20807467.313
        19.500          19.250
                  -8113395.487 5  -6322122.684 6  22527832.492    22527834.695
        11.500          12.000
                     14171.576 5     11044.180 5  23385126.531    23385128.590
        10.500          10.750
                   6040266.186 6   4706698.773 6  21695955.570    21695957.016
        18.500          17.750
                  -7812016.531 6  -6087281.866 6  21948851.750    21948854.340
        15.750          16.500
 95  4 21 16 15 45.0000000  0  7G 2G18G19G27G28G29G31
                  -2634566.414 5  -2052907.961 5  23868966.977    23868970.855
         8.500           9.000
                    130157.334 7    101420.950 6  20364833.516    20364834.672
        20.500          16.250
                  -2299372.392 6  -1791718.541 6  20806629.195    20806630.512
        19.500          19.250
                  -8140850.265 5  -6343516.011 6  22522608.141    22522610.176
        11.500          12.000
                     33801.040 5     26339.868 5  23388861.875    23388863.023
        10.500          10.250
                   6080135.797 6   4737765.983 6  21703542.211    21703543.867
        18.000          17.750
                  -7827608.400 6  -6099431.365 6  21945884.867    21945887.488
        15.750          16.750
 95  4 21 16 16  0.0000000  0  7G 2G18G19G27G28G29G31
                  -2671515.305 5  -2081699.280 5  23861936.484    23861939.414
         9.000           8.500
                    148797.723 7    115945.929 6  20368380.703    20368382.023
        20.500          16.250
                  -2303700.846 6  -1795091.358 6  20805805.617    20805806.758
        19.500          19.250
                  -8168262.786 5  -6364876.405 6  22517391.508    22517393.773
        11.500          12.000
                     53589.508 5     41759.447 5  23392627.328    23392629.129
        10.250          10.750
                   6120120.932 6   4768923.209 6  21711150.914    21711152.715
        17.750          17.500
                  -7843032.659 6  -6111450.260 6  21942949.734    21942952.445
        16.250          17.000
 95  4 21 16 16 15.0000000  0  7G 2G18G19G27G28G29G31
                  -2708379.772 5  -2110424.825 5  23854921.305    23854924.227
         9.250           8.500
                    167603.565 7    130599.827 6  20371959.711    20371960.914
        20.500          16.250
                  -2307954.454 6  -1798405.854 6  20804995.992    20804997.293
        19.500          19.250
                  -8195630.554 5  -6386201.928 6  22512183.773    22512185.766
        11.500          12.000
                     73540.189 5     57305.433 5  23396423.828    23396425.672
        10.500          10.500
                   6160223.869 6   4800172.234 6  21718782.242    21718784.137
        17.250          17.250
                  -7858286.278 6  -6123336.184 6  21940047.375    21940049.848
        16.500          17.250
 95  4 21 16 16 30.0000000  0  7G 2G18G19G27G28G29G31
                  -2745160.157 5  -2139084.851 5  23847922.164    23847925.137
         9.250           8.250
                    186570.680 7    145379.394 6  20375568.977    20375570.098
        20.250          16.250
                  -2312131.771 6  -1801660.904 6  20804201.188    20804202.527
        19.500          19.500
                  -8222956.012 5  -6407494.476 6  22506984.016    22506985.738
        11.500          12.000
                     93650.361 5     72975.686 5  23400250.602    23400251.961
        10.750          10.250
                   6200438.590 6   4831508.366 6  21726434.703    21726436.855
        17.000          17.250
                  -7873372.639 6  -6135091.779 6  21937176.734    21937179.137
        16.750          17.750
 95  4 21 16 16 45.0000000  0  7G 2G18G19G27G28G29G31
                  -2781856.693 5  -2167679.543 5  23840938.867    23840941.469
         9.000           7.750
                    205695.220 7    160281.627 6  20379208.273    20379209.383
        20.250          16.250
                  -2316232.777 6  -1804856.488 6  20803420.859    20803422.086
        19.500          19.500
                  -8250238.326 5  -6428753.409 6  22501792.328    22501794.133
        11.500          12.000
                    113918.511 5     88769.049 5  23404107.633    23404109.047
        10.750          10.250
                   6240765.577 6   4862931.969 6  21734108.539    21734110.703
        16.750          17.000
                  -7888298.665 6  -6146722.435 6  21934336.500    21934338.715
        17.000          17.750
 95  4 21 16 17  0.0000000  0  7G 2G18G19G27G28G29G31
                  -2818467.268 5  -2196207.249 5  23833971.625    23833975.227
         8.500           8.000
                    224977.209 7    175306.551 6  20382877.375    20382878.609
        20.250          16.250
                  -2320257.707 6  -1807992.796 6  20802654.836    20802656.047
        19.500          19.500
                  -8277473.923 5  -6449975.945 6  22496609.594    22496611.535
        11.750          12.250
                    134346.571 5    104687.023 5  23407994.547    23407996.578
        10.750          10.250
                   6281208.481 6   4894445.900 6  21741804.602    21741806.715
        16.500          17.000
                  -7903065.281 6  -6158228.883 6  21931526.516    21931528.871
        17.000          17.750
 95  4 21 16 17 15.0000000  0  7G 2G18G19G27G28G29G31
                  -2854996.049 5  -2224671.214 5  23827020.586    23827023.992
         8.500           8.250
                    244415.984 7    190453.646 6  20386576.383    20386577.684
        20.250          16.500
                  -2324210.162 6  -1811072.626 6  20801902.656    20801903.875
        19.500          19.250
                  -8304667.997 5  -6471166.123 6  22491434.750    22491436.625
        11.750          12.250
                    154932.376 5    120727.906 5  23411912.234    23411913.820
        10.500          10.000
                   6321769.556 6   4926051.912 6  21749523.234    21749525.035
        16.500          16.750
                  -7917679.198 6  -6169616.339 6  21928745.359    21928747.645
        17.000          17.750
 95  4 21 16 17 30.0000000  0  7G 2G18G19G27G28G29G31
                  -2891438.621 5  -2253067.993 5  23820085.898    23820089.551
         8.500           8.500
                    264019.269 7    205728.921 6  20390306.766    20390307.938
        20.250          16.250
                  -2328080.384 6  -1814088.383 6  20801166.273    20801167.516
        19.250          19.500
                  -8331813.232 5  -6492318.243 6  22486269.297    22486271.059
        11.750          12.250
                    175683.180 5    136897.365 5  23415861.188    23415862.438
        10.750          10.000
                   6362459.418 6   4957758.280 6  21757266.055    21757267.883
        16.500          16.750
                  -7932134.753 6  -6180880.402 6  21925994.734    21925996.984
        17.250          17.750
 95  4 21 16 17 45.0000000  0  7G 2G18G19G27G28G29G31
                  -2927800.699 5  -2281402.066 5  23813166.477    23813170.047
         8.750           8.250
                    283779.602 7    221126.576 6  20394067.320    20394068.203
        20.500          16.250
                  -2331870.485 6  -1817041.707 6  20800444.953    20800446.414
        19.250          19.500
                  -8358910.635 5  -6513433.088 6  22481112.641    22481114.410
        11.750          12.250
                    196594.692 5    153192.039 5  23419840.445    23419841.793
        10.750          10.000
                   6403275.460 6   4989562.974 6  21765033.023    21765035.160
        16.500          16.750
                  -7946436.781 6  -6192024.825 6  21923273.148    21923275.355
        17.250          17.500
 95  4 21 16 18  0.0000000  0  7G 2G18G19G27G28G29G31
                  -2964086.881 5  -2309676.997 5  23806261.461    23806264.965
         9.000           8.250
                    303685.105 7    236637.356 6  20397854.992    20397855.996
        20.250          16.250
                  -2335586.699 6  -1819937.454 6  20799737.711    20799739.180
        19.250          19.500
                  -8385965.834 6  -6534515.051 6  22475964.594    22475966.039
        12.000          12.250
                    217661.934 5    169608.082 5  23423849.164    23423851.074
        10.750          10.000
                   6444218.738 6   5021466.806 6  21772824.305    21772826.531
        16.250          17.000
                  -7960590.325 6  -6203053.554 6  21920580.008    21920581.918
        17.500          17.250
 95  4 21 16 18 15.0000000  0  7G 2G18G19G27G28G29G31
                  -3000291.973 5  -2337888.742 5  23799371.664    23799375.055
         9.000           8.250
                    323733.980 7    252259.849 6  20401669.938    20401671.102
        20.250          16.500
                  -2339226.408 6  -1822773.587 6  20799045.039    20799046.641
        19.250          19.500
                  -8412975.153 6  -6555561.265 6  22470824.625    22470826.418
        12.250          12.250
                    238889.562 5    186149.080 5  23427888.977    23427890.227
        10.750          10.000
                   6485297.557 6   5053476.256 6  21780641.453    21780643.406
        16.500          17.000
                  -7974592.865 6  -6213964.611 6  21917915.234    21917917.332
        17.250          17.000
 95  4 21 16 18 30.0000000  0  7G 2G18G19G27G28G29G31
                  -3036418.895 5  -2366039.569 5  23792496.766    23792500.434
         8.750           8.250
                    343920.227 7    267989.388 6  20405511.563    20405512.633
        20.500          16.750
                  -2342792.562 6  -1825552.409 6  20798366.539    20798367.961
        19.250          19.500
                  -8439939.748 5  -6576572.625 6  22465693.383    22465695.043
        11.750          12.000
                    260275.196 5    202813.204 5  23431958.844    23431959.867
        11.250          10.000
                   6526507.639 6   5085587.994 6  21788483.375    21788485.355
        16.250          16.750
                  -7988447.264 6  -6224760.237 6  21915278.867    21915280.840
        17.250          16.500
 95  4 21 16 18 45.0000000  0  7G 2G18G19G27G28G29G31
                  -3072470.792 5  -2394131.937 5  23785636.477    23785639.918
         8.750           8.250
                    364241.905 7    283824.456 6  20409378.625    20409379.883
        20.500          16.750
                  -2346288.966 6  -1828276.875 6  20797701.094    20797702.656
        19.250          19.500
                  -8466860.770 5  -6597550.038 5  22460570.273    22460572.031
        11.750          11.750
                    281816.535 5    219598.661 5  23436057.875    23436058.633
        11.000           9.750
                   6567847.535 6   5117800.883 6  21796349.961    21796352.066
        16.000          16.500
                  -8002156.168 6  -6235442.487 6  21912670.039    21912671.906
        17.250          16.250
 95  4 21 16 19  0.0000000  0  7G 2G18G19G27G28G29G31
                  -3108448.637 5  -2422166.599 5  23778790.109    23778793.809
         9.000           8.500
                    384699.955 7    299765.788 6  20413271.570    20413272.828
        20.250          17.000
                  -2349718.654 6  -1830949.357 6  20797048.500    20797049.996
        19.250          19.500
                  -8493737.416 6  -6618492.868 6  22455456.164    22455457.742
        12.250          12.000
                    303513.133 5    236505.089 5  23440186.195    23440187.898
        11.000           9.750
                   6609316.143 6   5150114.068 6  21804241.211    21804243.414
        15.750          16.500
                  -8015717.971 6  -6246010.113 6  21910089.234    21910091.082
        17.000          16.000
 95  4 21 16 19 15.0000000  0  7G 2G18G19G27G28G29G31
                  -3144355.360 5  -2450145.844 5  23771957.273    23771960.957
         9.250           8.500
                    405294.920 7    315813.807 6  20417190.484    20417191.863
        20.250          17.000
                  -2353081.480 6  -1833569.743 6  20796408.438    20796409.871
        19.250          19.500
                  -8520573.275 6  -6639403.917 6  22450349.313    22450350.902
        12.250          12.250
                    325364.013 5    253531.741 5  23444344.453    23444345.645
        11.250           9.750
                   6650910.509 6   5182525.242 6  21812156.227    21812158.543
        15.500          16.500
                  -8029129.329 6  -6256460.514 6  21907536.984    21907538.770
        17.000          15.500
 95  4 21 16 19 30.0000000  0  7G 2G18G19G27G28G29G31
                  -3180189.918 5  -2478068.848 5  23765138.531    23765141.707
         9.750           8.500
                    426030.776 7    331971.611 6  20421136.641    20421137.867
        20.500          17.250
                  -2356373.403 6  -1836134.874 6  20795782.125    20795783.461
        19.250          19.500
                  -8547365.360 6  -6660280.854 5  22445250.789    22445252.473
        12.250          11.750
                    347370.246 5    270679.452 5  23448531.805    23448532.965
        10.750           9.750
                   6692628.361 6   5215032.643 6  21820095.109    21820097.344
        15.750          16.500
                  -8042384.697 6  -6266789.361 6  21905014.711    21905016.188
        17.000          15.250
 95  4 21 16 19 45.0000000  0  7G 2G18G19G27G28G29G31
                  -3215946.908 5  -2505931.426 5  23758333.773    23758337.289
         9.250           8.250
                    446911.735 7    348242.478 6  20425110.180    20425111.582
        20.500          17.250
                  -2359592.476 6  -1838643.240 6  20795169.672    20795170.949
        19.250          19.500
                  -8574108.275 6  -6681119.482 6  22440161.930    22440163.531
        12.500          12.000
                    369535.247 5    287950.874 5  23452749.859    23452751.145
        10.750           9.750
                   6734469.428 6   5247636.057 6  21828057.328    21828059.344
        15.750          16.250
                  -8055477.900 6  -6276991.844 6  21902522.961    21902524.258
        16.750          14.750
 95  4 21 16 20  0.0000000  0  7G 2G18G19G27G28G29G31
                  -3251625.790 5  -2533733.132 5  23751544.359    23751547.832
         9.500           8.250
                    467939.080 7    364627.420 6  20429111.445    20429112.906
        20.500          17.750
                  -2362743.473 6  -1841098.565 6  20794570.016    20794571.223
        19.500          19.500
                  -8600804.570 6  -6701921.785 6  22435081.516    22435083.305
        12.500          12.250
                    391858.234 5    305345.405 5  23456998.156    23456998.895
        10.750           9.750
                   6776430.559 6   5280333.031 6  21836042.172    21836044.207
        15.750          16.000
                  -8068410.275 6  -6287069.010 6  21900062.102    21900063.414
        16.500          14.500
 95  4 21 16 20 15.0000000  0  7G 2G18G19G27G28G29G31
                  -3287233.838 5  -2561479.653 5  23744768.703    23744771.918
         9.750           8.500
                    489108.290 7    381122.902 6  20433139.828    20433141.414
        20.500          17.750
                  -2365833.612 6  -1843506.465 6  20793982.070    20793983.434
        19.500          19.500
                  -8627465.002 6  -6722696.139 6  22430008.531    22430010.371
        12.500          12.250
                    414332.137 5    322857.519 5  23461273.656    23461276.016
        10.000          10.000
                   6818501.431 6   5313115.513 6  21844048.258    21844049.863
        16.000          15.750
                  -8081191.010 6  -6297028.016 6  21897629.570    21897630.941
        16.250          14.250
 95  4 21 16 20 30.0000000  0  7G 2G18G19G27G28G29G31
                  -3322766.795 5  -2589167.650 5  23738006.805    23738010.535
         9.750           9.000
                    510430.440 7    397737.562 6  20437197.227    20437198.813
        20.750          18.000
                  -2368856.092 6  -1845861.646 6  20793406.930    20793408.371
        19.250          19.750
                  -8654083.501 6  -6743437.815 6  22424943.328    22424944.953
        12.750          12.500
                    436961.702 5    340490.921 5  23465580.898    23465581.738
        10.250           9.750
                   6860681.555 6   5345983.129 6  21852075.086    21852076.469
        16.250          15.500
                  -8093814.608 6  -6306864.581 6  21895227.305    21895228.598
        16.250          14.250
 95  4 21 16 20 45.0000000  0  7G 2G18G19G27G28G29G31
                  -3358223.831 5  -2616796.486 5  23731259.766    23731263.316
        10.000           9.250
                    531911.928 7    414476.376 6  20441285.125    20441286.598
        20.750          18.000
                  -2371809.916 6  -1848163.327 6  20792844.500    20792846.078
        19.000          19.750
                  -8680658.196 6  -6764145.361 6  22419886.367    22419887.879
        12.750          12.500
                    459748.907 5    358247.190 5  23469916.992    23469918.023
        10.500           9.750
                   6902971.860 6   5378936.600 6  21860122.859    21860124.160
        16.500          15.500
                  -8106275.234 6  -6316574.153 6  21892856.039    21892857.277
        15.750          14.000
 95  4 21 16 21  0.0000000  0  7G 2G18G19G27G28G29G31
                  -3393608.664 5  -2644369.060 5  23724526.016    23724529.363
         9.750           9.000
                    553553.217 7    431339.710 6  20445403.539    20445405.113
        21.000          18.250
                  -2374695.170 6  -1850411.576 6  20792295.586    20792297.113
        19.000          19.750
                  -8707189.574 6  -6784819.150 6  22414837.352    22414839.305
        12.500          12.500
                    482692.260 5    376125.101 5  23474283.367    23474284.676
        10.750          10.000
                   6945370.662 6   5411974.610 6  21868191.352    21868192.563
        17.000          15.750
                  -8118572.093 6  -6326156.117 6  21890515.797    21890517.273
        15.750          14.000
 95  4 21 16 21 15.0000000  0  7G 2G18G19G27G28G29G31
                  -3428922.625 5  -2671886.415 5  23717805.922    23717809.027
         9.500           8.500
                    575352.412 7    448326.092 6  20449551.586    20449553.059
        21.000          18.250
                  -2377513.471 6  -1852607.655 6  20791759.336    20791760.961
        19.000          19.750
                  -8733680.806 6  -6805461.655 6  22409796.383    22409798.145
        12.500          12.500
                    505790.141 5    394123.444 5  23478678.508    23478679.555
        10.750          10.000
                   6987878.156 6   5445097.324 6  21876280.273    21876281.500
        17.250          15.750
                  -8130704.227 6  -6335609.720 6  21888207.102    21888208.527
        15.750          14.000
 95  4 21 16 21 30.0000000  0  7G 2G18G19G27G28G29G31
                  -3464164.152 5  -2699347.322 5  23711099.492    23711102.816
         9.250           8.500
                    597309.317 7    465435.361 6  20453730.094    20453731.352
        21.250          18.500
                  -2380266.092 6  -1854752.553 6  20791235.430    20791236.961
        19.000          19.750
                  -8760132.868 6  -6826073.634 6  22404762.813    22404764.320
        12.500          12.500
                    529041.216 5    412241.156 5  23483103.203    23483104.344
        10.750          10.000
                   7030493.524 6   5478304.090 6  21884389.906    21884391.031
        17.250          15.750
                  -8142673.166 6  -6344936.156 6  21885929.805    21885930.840
        15.750          14.250
 95  4 21 16 21 45.0000000  0  7G 2G18G19G27G28G29G31
                  -3499330.484 5  -2726749.647 5  23704407.758    23704410.570
         9.250           8.500
                    619420.932 7    482665.187 6  20457937.953    20457939.281
        21.250          18.750
                  -2382955.197 6  -1856847.962 6  20790723.969    20790725.336
        19.250          19.750
                  -8786544.122 6  -6846653.823 6  22399736.656    22399738.445
        12.500          12.500
                    552445.470 5    430478.217 5  23487557.203    23487558.238
        11.000          10.250
                   7073217.777 6   5511595.702 6  21892519.875    21892521.168
        17.250          15.750
                  -8154482.206 6  -6354138.001 6  21883682.781    21883683.727
        16.000          14.250
 95  4 21 16 22  0.0000000  0  7G 2G18G19G27G28G29G31
                  -3534419.454 5  -2754091.689 5  23697730.438    23697733.328
         9.250           8.500
                    641686.711 7    500015.136 6  20462174.828    20462176.270
        21.250          18.750
                  -2385578.437 6  -1858892.043 6  20790224.719    20790226.164
        19.250          19.750
                  -8812914.648 6  -6867202.276 6  22394718.461    22394720.313
        12.500          12.500
                    576005.379 5    448836.568 5  23492040.133    23492041.566
        10.750          10.250
                   7116053.361 6   5544974.072 6  21900671.430    21900672.816
        17.250          16.250
                  -8166130.599 6  -6363214.664 6  21881466.305    21881467.305
        16.250          14.750
 95  4 21 16 22 15.0000000  0  7G 2G18G19G27G28G29G31
                  -3569431.189 5  -2781373.535 5  23691067.984    23691071.527
         9.000           9.500
                    664103.845 7    517483.029 6  20466440.844    20466442.012
        21.250          19.000
                  -2388134.534 6  -1860883.811 6  20789738.406    20789739.754
        19.250          19.750
                  -8839246.120 6  -6887720.288 6  22389707.867    22389709.711
        12.500          12.500
                    599719.209 5    467314.869 5  23496553.414    23496553.680
        11.000           9.750
                   7158997.808 6   5578437.257 6  21908843.336    21908845.074
        17.000          16.500
                  -8177618.058 6  -6372165.924 6  21879280.484    21879281.340
        16.500          14.750
 95  4 21 16 22 30.0000000  0  7G 2G18G19G27G28G29G31
                  -3604369.820 5  -2808598.407 5  23684419.367    23684423.117
         9.000          10.000
                    686667.226 7    535064.878 6  20470734.242    20470735.738
        21.250          19.000
                  -2390625.712 6  -1862824.987 6  20789264.250    20789265.621
        19.250          19.750
                  -8865543.028 6  -6908211.378 6  22384703.594    22384705.438
        12.500          12.500
                    623581.784 5    485909.067 5  23501093.508    23501094.441
        10.750           9.750
                   7202045.935 6   5611981.236 6  21917035.258    21917036.914
        17.000          16.250
                  -8188946.387 6  -6380993.188 6  21877124.859    21877125.867
        16.750          15.250
 95  4 21 16 22 45.0000000  0  7G 2G18G19G27G28G29G31
                  -3639229.333 5  -2835761.630 5  23677785.305    23677789.695
         8.750          10.000
                    709380.698 7    552763.683 6  20475056.664    20475058.215
        21.250          19.250
                  -2393048.020 6  -1864712.496 6  20788803.289    20788804.645
        19.250          19.750
                  -8891797.263 6  -6928669.213 6  22379707.648    22379709.422
        12.750          12.500
                    647598.692 5    504623.526 5  23505663.539    23505665.512
        10.250          10.500
                   7245205.566 6   5645612.104 6  21925248.195    21925249.832
        17.000          16.500
                  -8200106.262 6  -6389689.187 6  21875001.172    21875002.438
        17.000          15.500
 95  4 21 16 23  0.0000000  0  7G 2G18G19G27G28G29G31
                  -3674013.093 5  -2862865.832 5  23671166.508    23671170.055
         8.750           9.750
                    732238.747 7    570575.145 6  20479406.328    20479407.859
        21.000          19.250
                  -2395407.258 6  -1866550.859 6  20788354.305    20788355.723
        19.250          19.750
                  -8918012.694 6  -6949096.812 6  22374719.219    22374720.992
        13.000          12.500
                    671766.227 5    523455.355 5  23510262.805    23510264.020
        10.750          10.250
                   7288475.123 6   5679328.625 6  21933482.305    21933483.859
        17.000          16.500
                  -8211103.802 6  -6398258.688 6  21872908.531    21872909.977
        17.250          15.750
 95  4 21 16 23 15.0000000  0  7G 2G18G19G27G28G29G31
                  -3708717.422 5  -2889908.133 5  23664562.406    23664565.891
         9.000           9.750
                    755241.767 7    588499.568 6  20483783.766    20483785.199
        21.000          19.250
                  -2397705.182 6  -1868341.446 6  20787917.078    20787918.441
        19.250          19.750
                  -8944189.093 6  -6969493.996 6  22369738.086    22369739.648
        13.000          12.750
                    696083.975 5    542404.239 5  23514890.836    23514892.488
        10.750          11.000
                   7331856.004 6   5713131.896 6  21941737.250    21941739.168
        16.750          16.500
                  -8221941.998 6  -6406704.023 6  21870846.211    21870847.711
        17.250          16.250
 95  4 21 16 23 30.0000000  0  7G 2G18G19G27G28G29G31
                  -3743336.306 5  -2916883.873 5  23657975.094    23657978.352
         9.500           9.750
                    778395.050 7    606541.076 6  20488189.570    20488191.227
        21.000          19.000
                  -2399938.937 6  -1870082.035 6  20787492.156    20787493.594
        19.500          19.750
                  -8970324.281 6  -6989859.068 6  22364764.563    22364766.234
        12.750          13.000
                    720556.816 5    561473.958 5  23519546.742    23519549.082
        10.250          10.750
                   7375353.359 6   5747025.920 6  21950014.633    21950016.645
        16.500          16.500
                  -8232618.106 6  -6415023.062 6  21868814.773    21868816.359
        17.750          16.500
 95  4 21 16 23 45.0000000  0  7G 2G18G19G27G28G29G31
                  -3777871.763 5  -2943794.600 5  23651403.234    23651406.465
         9.750           9.750
                    801697.846 7    624699.091 6  20492623.922    20492625.605
        20.750          19.250
                  -2402106.299 6  -1871770.887 6  20787079.695    20787081.113
        19.500          19.750
                  -8996415.977 6  -7010190.252 6  22359799.367    22359801.059
        13.000          13.000
                    745185.683 5    580665.278 5  23524234.133    23524235.906
        10.250          11.000
                   7418966.412 6   5781010.102 6  21958313.820    21958315.938
        16.500          16.500
                  -8243133.634 6  -6423216.975 6  21866813.508    21866815.219
        17.750          16.750
 95  4 21 16 24  0.0000000  0  7G 2G18G19G27G28G29G31
                  -3812332.986 5  -2970647.475 5  23644845.164    23644848.914
         9.500           9.750
                    825143.439 7    642968.374 6  20497085.391    20497087.168
        20.750          19.000
                  -2404210.664 6  -1873410.653 6  20786679.219    20786680.527
        19.250          19.750
                  -9022469.683 6  -7030491.829 6  22354841.531    22354843.484
        12.750          13.000
                    769965.278 5    599974.025 5  23528949.680    23528952.156
        10.000          11.500
                   7462690.083 6   5815080.476 6  21966634.281    21966636.125
        16.500          16.500
                  -8253492.343 6  -6431288.686 6  21864842.633    21864844.203
        18.250          17.000
 95  4 21 16 24 15.0000000  0  7G 2G18G19G27G28G29G31
                  -3846719.998 5  -2997442.530 5  23638301.289    23638304.945
         9.500           9.500
                    848735.465 7    661351.762 6  20501574.961    20501576.500
        20.750          19.000
                  -2406249.462 6  -1874999.323 6  20786291.281    20786292.645
        19.250          19.750
                  -9048482.986 6  -7050761.926 6  22349891.180    22349893.320
        12.500          13.250
                    794896.776 5    619401.149 5  23533693.383    23533694.828
        10.000          10.500
                   7506525.807 6   5849238.173 6  21974976.023    21974977.660
        16.250          16.250
                  -8263690.760 6  -6439235.496 6  21862901.797    21862903.570
        18.250          17.000
 95  4 21 16 24 30.0000000  0  7G 2G18G19G27G28G29G31
                  -3881030.100 5  -3024177.655 5  23631772.320    23631776.148
         9.500           9.750
                    872475.428 7    679850.418 6  20506092.523    20506094.102
        20.750          19.000
                  -2408222.362 6  -1876536.649 6  20785915.961    20785917.273
        19.250          19.750
                  -9074451.191 6  -7070996.884 6  22344949.680    22344951.898
        12.500          13.250
                    819983.057 5    638948.880 5  23538467.641    23538470.324
        10.250          11.250
                   7550481.207 6   5883489.116 6  21983340.406    21983342.234
        16.250          16.250
                  -8273726.866 6  -6447055.833 6  21860992.070    21860993.801
        18.250          17.000
 95  4 21 16 24 45.0000000  0  7G 2G18G19G27G28G29G31
                  -3915271.506 5  -3050859.245 5  23625256.453    23625260.387
        10.000          10.000
                    896355.856 7    698458.536 6  20510636.828    20510638.250
        20.750          19.000
                  -2410137.725 6  -1878029.135 6  20785551.531    20785552.672
        19.250          19.500
                  -9100377.891 6  -7091199.496 6  22340015.758    22340017.949
        12.500          13.250
                    845219.104 5    658613.305 5  23543269.742    23543271.652
        10.000          11.000
                   7594553.106 6   5917830.840 6  21991727.188    21991728.840
        16.250          16.250
                  -8283607.644 6  -6454755.128 6  21859111.773    21859113.680
        18.250          17.250
 95  4 21 16 25  0.0000000  0  7G 2G18G19G27G28G29G31
                  -3949444.809 5  -3077487.767 5  23618753.563    23618757.438
        10.250          10.000
                    920374.773 7    717174.565 6  20515207.359    20515208.848
        20.500          19.000
                  -2411998.845 6  -1879479.357 6  20785197.227    20785198.359
        19.250          19.500
                  -9126263.390 6  -7111370.003 6  22335089.820    22335092.086
        12.500          13.250
                    870604.694 5    678394.268 5  23548101.477    23548101.977
        10.750          10.750
                   7638741.064 6   5952262.999 6  22000135.609    22000137.398
        16.250          16.250
                  -8293336.662 6  -6462336.171 6  21857260.484    21857262.418
        18.250          17.250
 95  4 21 16 25 15.0000000  0  7G 2G18G19G27G28G29G31
                  -3983549.269 5  -3104062.662 5  23612263.867    23612267.695
        10.500          10.000
                    944534.022 7    735999.946 6  20519804.875    20519806.266
        20.500          18.750
                  -2413805.101 6  -1880886.830 6  20784853.422    20784854.543
        19.250          19.500
                  -9152106.235 6  -7131507.272 6  22330172.328    22330174.488
        12.500          13.500
                    896139.663 5    698291.619 5  23552959.813    23552961.785
        10.250          11.000
                   7683042.620 6   5986783.671 6  22008566.063    22008567.852
        16.250          16.250
                  -8302915.031 6  -6469799.828 6  21855438.078    21855439.957
        18.500          17.750
 95  4 21 16 25 30.0000000  0  7G 2G18G19G27G28G29G31
                  -4017584.736 5  -3130583.787 5  23605786.961    23605790.434
        10.500           9.750
                    968829.917 7    754931.806 6  20524428.242    20524429.785
        20.500          18.750
                  -2415553.815 6  -1882249.464 6  20784520.609    20784521.738
        19.250          19.500
                  -9177906.219 6  -7151611.141 6  22325262.859    22325264.844
        12.500          13.250
                    921822.940 5    718304.559 5  23557848.180    23557848.445
        10.500          11.000
                   7727455.540 6   6021391.123 6  22017017.469    22017019.262
        16.000          16.250
                  -8312340.239 6  -6477144.132 6  21853644.422    21853646.301
        18.500          17.750
 95  4 21 16 25 45.0000000  0  7G 2G18G19G27G28G29G31
                  -4051549.902 5  -3157050.132 5  23599323.375    23599327.293
        10.000           9.250
                    993263.312 7    773970.803 6  20529077.922    20529079.160
        20.500          18.750
                  -2417239.550 6  -1883563.025 6  20784199.883    20784201.043
        19.250          19.500
                  -9203659.963 6  -7171678.990 6  22320362.195    22320363.898
        12.500          13.250
                    947656.192 5    738434.332 6  23562762.891    23562766.445
        10.000          12.250
                   7771979.033 6   6056084.734 6  22025490.000    22025491.719
        16.250          16.250
                  -8321608.168 6  -6484365.884 6  21851880.734    21851882.656
        18.250          17.750
 95  4 21 16 26  0.0000000  0  7G 2G18G19G27G28G29G31
                  -4085441.094 5  -3183458.840 5  23592874.109    23592877.574
        10.000           9.250
                   1017835.225 7    793117.743 6  20533753.625    20533754.984
        20.250          18.500
                  -2418859.541 6  -1884825.354 6  20783891.570    20783892.715
        19.000          19.500
                  -9229364.235 6  -7191708.284 6  22315470.656    22315472.539
        12.750          13.250
                    973640.012 5    758681.452 5  23567708.672    23567709.199
        10.250          11.000
                   7816613.069 6   6090864.484 6  22033983.727    22033985.422
        16.250          16.250
                  -8330715.218 6  -6491462.279 6  21850147.648    21850149.602
        18.250          17.750
 95  4 21 16 26 15.0000000  0  7G 2G18G19G27G28G29G31
                  -4119258.846 5  -3209810.310 5  23586439.344    23586442.305
        10.500           9.250
                   1042542.723 7    812370.331 6  20538455.328    20538456.668
        20.250          18.250
                  -2420420.260 6  -1886041.493 6  20783594.484    20783595.758
        19.250          19.500
                  -9255025.068 6  -7211703.722 6  22310587.563    22310589.500
        13.000          13.750
                    999770.116 5    779042.550 6  23572679.523    23572683.504
         9.750          12.250
                   7861351.382 6   6125725.491 6  22042497.227    22042498.898
        16.500          16.250
                  -8339665.148 6  -6498436.231 6  21848444.266    21848446.512
        17.750          18.000
 95  4 21 16 26 30.0000000  0  7G 2G18G19G27G28G29G31
                  -4152999.364 5  -3236101.614 5  23580018.523    23580021.992
        10.250           9.250
                   1067387.518 7    831729.902 6  20543183.148    20543184.418
        20.000          18.250
                  -2421921.175 6  -1887211.039 6  20783308.914    20783310.230
        19.000          19.500
                  -9280641.033 6  -7231664.206 6  22305712.852    22305715.059
        12.500          13.750
                   1026047.882 5    799518.707 5  23577681.148    23577682.590
        10.250          11.500
                   7906195.637 6   6160669.046 6  22051031.172    22051032.574
        17.000          16.250
                  -8348456.952 6  -6505286.977 6  21846771.086    21846773.527
        17.750          18.250
 95  4 21 16 26 45.0000000  0  7G 2G18G19G27G28G29G31
                  -4186663.361 5  -3262333.274 5  23573612.531    23573615.867
        10.250           9.750
                   1092368.484 6    851195.587 6  20547936.695    20547938.074
        19.750          18.000
                  -2423363.276 6  -1888334.750 6  20783034.383    20783035.859
        19.250          19.750
                  -9306214.034 6  -7251591.207 6  22300846.563    22300848.539
        12.500          13.500
                   1052471.940 5    820108.866 5  23582708.398    23582710.930
         9.750          11.250
                   7951143.185 6   6195693.090 6  22059584.391    22059585.758
        17.000          16.250
                  -8357092.352 6  -6512015.841 6  21845127.703    21845130.230
        17.500          18.250
 95  4 21 16 27  0.0000000  0  7G 2G18G19G27G28G29G31
                  -4220251.805 5  -3288506.064 5  23567220.547    23567224.426
        10.250          10.000
                   1117486.751 6    870768.251 6  20552716.594    20552717.859
        19.750          18.000
                  -2424745.528 6  -1889411.829 6  20782771.398    20782772.977
        19.000          19.750
                  -9331747.873 6  -7271487.698 6  22295987.773    22295989.773
        12.750          13.750
                   1079039.681 5    840810.988 5  23587765.734    23587766.770
        10.750          11.500
                   7996189.524 6   6230794.117 6  22068156.570    22068157.617
        17.000          15.750
                  -8365573.054 6  -6518624.173 6  21843513.844    21843516.391
        17.250          18.500
 95  4 21 16 27 15.0000000  0  7G 2G18G19G27G28G29G31
                  -4253759.956 5  -3314616.287 5  23560844.234    23560848.094
        10.000          10.000
                   1142746.372 6    890451.066 6  20557523.227    20557524.691
        19.750          17.750
                  -2426063.556 6  -1890438.868 6  20782520.508    20782522.117
        19.000          19.750
                  -9357242.975 6  -7291353.996 6  22291135.938    22291138.156
        12.500          13.750
                   1105751.831 5    861625.630 5  23592847.406    23592849.723
        10.000          11.000
                   8041333.921 6   6265971.551 6  22076747.188    22076748.371
        17.000          15.750
                  -8373896.191 6  -6525109.725 6  21841930.039    21841932.555
        17.250          18.500
 95  4 21 16 27 30.0000000  0  7G 2G18G19G27G28G29G31
                  -4287185.704 5  -3340662.304 5  23554483.633    23554487.215
        10.000          10.000
                   1168150.754 6    910246.679 6  20562357.492    20562358.711
        19.750          17.500
                  -2427308.922 6  -1891409.281 6  20782283.852    20782285.379
        19.250          19.750
                  -9382697.379 6  -7311188.584 6  22286292.266    22286294.281
        12.750          13.750
                   1132610.986 5    882554.832 5  23597959.094    23597960.367
        10.000          10.250
                   8086582.020 6   6301229.799 6  22085357.438    22085358.719
        16.750          15.500
                  -8382056.892 6  -6531468.698 6  21840377.227    21840379.742
        17.000          18.750
 95  4 21 16 27 45.0000000  0  7G 2G18G19G27G28G29G31
                  -4320535.141 5  -3366648.854 5  23548137.242    23548140.559
         9.750           9.750
                   1193694.819 6    930151.141 6  20567218.563    20567219.688
        19.750          17.500
                  -2428485.568 6  -1892326.151 6  20782059.867    20782061.340
        19.250          20.000
                  -9408121.191 6  -7330999.341 6  22281454.469    22281456.430
        13.000          13.750
                   1159612.978 5    903595.327 5  23603096.867    23603099.168
         9.750          10.750
                   8131932.220 6   6336567.600 6  22093987.320    22093988.629
        16.500          15.500
                  -8390059.344 6  -6537704.357 6  21838854.148    21838857.012
        17.000          18.750
 95  4 21 16 28  0.0000000  0  7G 2G18G19G27G28G29G31
                  -4353812.638 5  -3392579.352 5  23541804.602    23541807.898
         9.750           9.500
                   1219381.515 6    950166.745 6  20572106.664    20572107.918
        19.750          17.500
                  -2429597.050 6  -1893192.239 6  20781848.313    20781849.969
        19.250          20.000
                  -9433514.241 6  -7350786.118 6  22276622.156    22276624.262
        13.000          13.750
                   1186757.424 5    924746.838 5  23608262.906    23608264.332
        10.250          10.750
                   8177384.772 6   6371985.153 6  22102636.305    22102638.012
        16.250          15.250
                  -8397905.287 6  -6543818.063 6  21837361.133    21837363.859
        17.000          18.750
 95  4 21 16 28 15.0000000  0  7G 2G18G19G27G28G29G31
                  -4387019.096 5  -3418454.487 5  23535485.766    23535488.965
         9.750           9.500
                   1245213.299 6    970295.401 6  20577022.266    20577023.527
        19.750          17.500
                  -2430643.699 6  -1894007.810 6  20781649.078    20781650.707
        19.000          20.000
                  -9458877.930 6  -7370550.016 6  22271795.500    22271797.473
        13.000          13.750
                   1214045.284 5    946010.081 5  23613455.039    23613458.555
        10.000          11.750
                   8222941.370 6   6407483.785 6  22111305.594    22111307.148
        16.250          15.250
                  -8405594.695 6  -6549809.797 6  21835897.852    21835900.594
        17.000          18.750
 95  4 21 16 28 30.0000000  0  7G 2G18G19G27G28G29G31
                  -4420156.921 5  -3444276.154 5  23529179.852    23529183.098
        10.000           9.750
                   1271189.891 6    990536.895 6  20581965.070    20581966.480
        19.750          17.500
                  -2431625.030 6  -1894772.482 6  20781462.320    20781463.941
        19.000          19.750
                  -9484212.631 6  -7390291.331 6  22266974.609    22266976.555
        13.000          13.750
                   1241476.346 5    967384.922 5  23618675.766    23618676.395
        10.250          10.500
                   8268604.268 6   6443065.248 6  22119995.117    22119996.352
        16.000          15.000
                  -8413128.786 6  -6555680.500 6  21834464.039    21834466.754
        17.000          18.250
 95  4 21 16 28 45.0000000  0  7G 2G18G19G27G28G29G31
                  -4453229.095 5  -3470046.652 5  23522886.313    23522889.512
        10.000          10.000
                   1297310.727 6   1010890.787 6  20586935.828    20586937.227
        19.750          17.500
                  -2432541.584 6  -1895486.682 6  20781287.922    20781289.473
        19.000          19.750
                  -9509519.435 6  -7410010.910 6  22262158.742    22262160.586
        13.000          13.500
                   1269049.131 5    988870.205 5  23623921.781    23623924.488
         9.750          11.000
                   8314374.672 6   6478730.477 6  22128704.672    22128706.227
        15.750          15.000
                  -8420506.830 6  -6561429.616 6  21833060.008    21833062.621
        17.000          18.250
 95  4 21 16 29  0.0000000  0  7G 2G18G19G27G28G29G31
                  -4486222.234 5  -3495755.569 5  23516608.023    23516611.137
        10.000          10.000
                   1323592.074 6   1031369.756 6  20591937.047    20591938.418
        19.750          17.500
                  -2433378.226 6  -1896138.613 6  20781128.688    20781130.219
        19.000          19.750
                  -9534785.663 6  -7429698.872 6  22257350.602    22257352.676
        13.000          13.500
                   1296778.199 5   1010477.231 5  23629199.281    23629201.875
        10.000          11.500
                   8360267.122 6   6514490.807 6  22137437.531    22137439.160
        15.750          14.750
                  -8427712.903 6  -6567044.721 6  21831688.891    21831691.508
        17.000          18.250
 95  4 21 16 29 15.0000000  0  7G 2G18G19G27G28G29G31
                  -4519151.612 5  -3521414.802 5  23510341.820    23510345.004
        10.000          10.250
                   1350019.939 6   1051962.890 6  20596966.172    20596967.598
        19.500          17.500
                  -2434149.578 6  -1896739.666 6  20780981.953    20780983.527
        19.250          19.750
                  -9560026.505 6  -7449367.051 6  22252547.563    22252549.488
        13.000          13.500
                   1324648.864 5   1032194.621 5  23634501.945    23634502.711
         9.500           9.750
                   8406264.943 6   6550333.249 6  22146190.758    22146192.266
        15.750          15.000
                  -8434760.527 6  -6572536.361 6  21830348.125    21830350.367
        17.250          18.000
 95  4 21 16 29 30.0000000  0  7G 2G18G19G27G28G29G31
                  -4552020.735 5  -3547027.082 5  23504086.641    23504090.215
        10.000          10.250
                   1376592.522 6   1072668.787 6  20602022.695    20602024.191
        19.500          17.250
                  -2434860.416 6  -1897293.571 6  20780846.805    20780848.297
        19.250          19.750
                  -9585241.888 6  -7469015.395 6  22247749.031    22247751.031
        13.000          13.500
                   1352658.911 5   1054020.632 5  23639833.141    23639835.316
        10.000          11.000
                   8452366.997 6   6586256.908 6  22154963.859    22154965.188
        16.000          15.000
                  -8441652.929 6  -6577907.055 6  21829036.297    21829038.773
        17.250          18.000
 95  4 21 16 29 45.0000000  0  7G 2G18G19G27G28G29G31
                  -4584830.210 5  -3572592.881 5  23497843.219    23497846.625
        10.250          10.000
                   1403309.392 6   1093487.123 6  20607106.711    20607108.172
        19.500          17.500
                  -2435514.847 6  -1897803.513 6  20780722.234    20780723.625
        19.250          19.750
                  -9610431.844 6  -7488643.923 6  22242955.406    22242957.543
        13.000          13.500
                   1380809.018 5   1075955.745 5  23645188.734    23645191.176
         9.250          10.500
                   8498573.695 6   6622262.113 6  22163756.922    22163758.180
        16.250          15.000
                  -8448391.228 6  -6583157.660 6  21827753.930    21827756.332
        17.000          18.000
 95  4 21 16 30  0.0000000  0  7G 2G18G19G27G28G29G31
                  -4617577.291 5  -3598110.066 5  23491612.203    23491614.926
        10.750           9.750
                   1430170.419 6   1114417.783 6  20612218.219    20612219.563
        19.500          17.250
                  -2436115.966 6  -1898271.918 6  20780607.938    20780609.348
        19.250          20.000
                  -9635591.440 6  -7508248.793 6  22238167.867    22238169.984
        13.000          13.500
                   1409098.593 5   1097999.586 5  23650573.664    23650573.449
        10.500           9.750
                   8544881.125 6   6658345.807 6  22172569.031    22172570.090
        16.000          15.000
                  -8454975.883 6  -6588288.550 6  21826500.773    21826503.137
        17.000          17.750
 95  4 21 16 30 15.0000000  0  7G 2G18G19G27G28G29G31
                  -4650256.082 5  -3623574.047 5  23485393.516    23485396.305
        11.000           9.750
                   1457177.073 6   1135461.927 6  20617357.344    20617358.703
        19.750          17.250
                  -2436660.022 6  -1898695.858 6  20780504.234    20780505.820
        19.500          19.750
                  -9660715.817 6  -7527826.224 6  22233386.727    22233388.887
        13.000          13.500
                   1437529.060 5   1120153.173 5  23655982.406    23655985.355
         9.500          10.500
                   8591289.059 6   6694507.817 6  22181400.102    22181401.262
        16.000          15.000
                  -8461404.798 6  -6593298.079 6  21825277.414    21825279.852
        17.000          17.500
 95  4 21 16 30 30.0000000  0  7G 2G18G19G27G28G29G31
                  -4682860.363 5  -3648979.971 5  23479189.063    23479191.875
        11.000          10.000
                   1484326.814 6   1156617.563 6  20622523.836    20622525.281
        19.750          17.500
                  -2437142.725 6  -1899071.988 6  20780412.289    20780413.840
        19.000          19.750
                  -9685803.428 6  -7547374.997 6  22228612.797    22228614.797
        13.000          13.750
                   1466102.396 5   1142418.109 5  23661421.250    23661421.281
        10.500          10.000
                   8637797.894 6   6730748.452 6  22190250.477    22190251.805
        15.750          15.250
                  -8467675.284 6  -6598184.166 6  21824084.258    21824086.383
        17.000          17.250
 95  4 21 16 30 45.0000000  0  7G 2G18G19G27G28G29G31
                  -4715397.053 5  -3674333.218 5  23472997.461    23473000.480
        11.000          10.000
                   1511609.878 6   1177877.089 6  20627715.813    20627716.930
        19.750          17.500
                  -2437573.655 6  -1899407.781 6  20780330.203    20780331.832
        19.000          19.750
                  -9710859.743 6  -7566899.399 6  22223845.125    22223846.793
        13.250          13.750
                   1494810.196 5   1164787.811 5  23666883.258    23666885.188
         9.750          10.250
                   8684400.200 6   6767061.923 6  22199118.492    22199120.109
        15.750          15.250
                  -8473794.430 6  -6602952.316 6  21822919.836    21822921.832
        17.000          17.000
 95  4 21 16 31  0.0000000  0  7G 2G18G19G27G28G29G31
                  -4747861.507 5  -3699630.175 5  23466819.711    23466822.855
        11.000          10.250
                   1539028.807 6   1199242.483 6  20632933.633    20632934.863
        19.750          17.750
                  -2437952.127 6  -1899702.690 6  20780258.258    20780259.770
        19.000          19.750
                  -9735881.370 6  -7586396.759 6  22219083.516    22219085.582
        13.250          13.750
                   1523654.342 5   1187263.756 5  23672372.969    23672374.453
        10.500          10.750
                   8731095.282 6   6803447.683 6  22208004.414    22208005.996
        15.750          15.500
                  -8479761.302 6  -6607601.812 6  21821784.617    21821786.176
        17.250          16.750
 95  4 21 16 31 15.0000000  0  7G 2G18G19G27G28G29G31
                  -4780249.674 5  -3724867.691 5  23460656.070    23460659.598
        10.750          10.500
                   1566583.539 7   1220713.695 6  20638177.203    20638178.359
        20.250          18.000
                  -2438276.699 6  -1899955.606 6  20780196.586    20780198.020
        19.000          19.750
                  -9760864.937 6  -7605864.463 6  22214329.359    22214331.348
        13.500          14.000
                   1552635.542 5   1209846.502 5  23677885.727    23677888.090
         9.000          10.000
                   8777883.477 6   6839905.996 6  22216907.781    22216909.461
        15.500          15.250
                  -8485576.570 6  -6612133.180 6  21820677.680    21820679.445
        17.250          16.500
 95  4 21 16 31 30.0000000  0  7G 2G18G19G27G28G29G31
                  -4812561.016 5  -3750045.337 5  23454507.367    23454511.055
        10.750          10.750
                   1594271.543 7   1242288.754 6  20643445.984    20643447.109
        20.250          18.000
                  -2438550.217 6  -1900168.738 6  20780144.602    20780145.957
        19.250          19.500
                  -9785807.948 6  -7625300.573 6  22209582.914    22209584.598
        13.750          13.750
                   1581752.082 5   1232534.712 5  23683429.070    23683430.461
        10.750          11.000
                   8824765.145 6   6876437.144 6  22225828.719    22225830.652
        15.250          15.000
                  -8491243.088 6  -6616548.640 6  21819599.570    21819601.008
        17.250          16.250
 95  4 21 16 31 45.0000000  0  7G 2G18G19G27G28G29G31
                  -4844786.850 5  -3775156.352 5  23448375.359    23448378.730
        11.000          10.750
                   1622100.002 7   1263973.264 6  20648741.789    20648743.086
        20.250          18.250
                  -2438762.619 6  -1900334.244 6  20780104.211    20780105.492
        19.250          19.500
                  -9810700.036 6  -7644696.998 6  22204845.828    22204847.816
        13.500          13.750
                   1611014.111 5   1255336.263 5  23688994.375    23688998.039
         9.000          10.500
                   8871752.079 6   6913050.318 6  22234770.617    22234772.098
        15.500          14.750
                  -8496747.707 6  -6620837.940 6  21818552.180    21818553.531
        17.250          16.250
 95  4 21 16 32  0.0000000  0  7G 2G18G19G27G28G29G31
                  -4876933.459 5  -3800205.643 5  23442258.211    23442261.367
        11.000          10.500
                   1650059.397 7   1285759.795 6  20654062.234    20654063.504
        20.250          18.500
                  -2438916.406 6  -1900454.085 6  20780074.914    20780076.285
        19.000          19.500
                  -9835548.085 6  -7664059.105 6  22200117.313    22200119.457
        13.250          14.000
                   1640414.916 5   1278245.966 5  23694591.438    23694592.137
        10.000          10.000
                   8918833.367 6   6949737.015 6  22243729.414    22243730.773
        15.250          14.500
                  -8502093.629 6  -6625003.586 6  21817534.867    21817536.168
        17.750          16.000
 95  4 21 16 32 15.0000000  0  7G 2G18G19G27G28G29G31
                  -4909004.288 5  -3825195.885 5  23436155.203    23436158.262
        11.000          10.250
                   1678150.137 7   1307648.678 6  20659407.617    20659408.934
        20.250          18.500
                  -2439008.714 6  -1900526.013 6  20780057.234    20780058.684
        19.000          19.750
                  -9860351.043 6  -7683386.077 6  22195397.453    22195399.426
        13.250          13.750
                   1669953.750 5   1301263.244 5  23700211.711    23700213.984
         9.750          10.000
                   8966008.721 6   6986497.012 6  22252706.883    22252708.074
        15.500          14.250
                  -8507279.151 6  -6629044.245 6  21816547.875    21816549.145
        17.250          15.750
 95  4 21 16 32 30.0000000  0  7G 2G18G19G27G28G29G31
                  -4940997.959 5  -3850126.002 5  23430066.891    23430069.996
        10.750          10.250
                   1706375.889 7   1329642.759 6  20664778.664    20664780.129
        20.000          18.750
                  -2439036.650 6  -1900547.782 6  20780051.797    20780053.406
        19.000          19.750
                  -9885106.554 6  -7702676.080 6  22190686.625    22190688.641
        13.250          14.000
                   1699635.437 5   1324391.816 5  23705860.805    23705862.230
        10.250          10.000
                   9013281.832 6   7023333.183 6  22261702.750    22261703.879
        15.750          14.250
                  -8512299.437 6  -6632956.144 6  21815592.859    21815593.703
        17.750          15.750
 95  4 21 16 32 45.0000000  0  7G 2G18G19G27G28G29G31
                  -4972925.074 5  -3875004.263 5  23423991.344    23423994.727
        10.250          10.250
                   1734730.966 7   1351737.616 6  20670174.484    20670176.023
        20.000          18.750
                  -2439008.668 6  -1900525.978 6  20780057.250    20780058.781
        19.000          19.500
                  -9909819.990 6  -7721933.291 6  22185983.727    22185985.660
        13.250          14.000
                   1729452.990 5   1347626.264 5  23711534.719    23711535.777
        10.250           9.750
                   9060648.043 6   7060241.908 6  22270716.109    22270717.262
        15.750          14.250
                  -8517161.711 6  -6636744.918 6  21814667.531    21814668.414
        17.750          15.750
 95  4 21 16 33  0.0000000  0  7G 2G18G19G27G28G29G31
                  -5004788.089 5  -3899832.564 5  23417927.703    23417931.578
        10.250          10.750
                   1763219.972 6   1373936.827 6  20675595.781    20675597.238
        19.750          18.750
                  -2438924.653 6  -1900460.514 6  20780073.430    20780074.797
        19.000          19.500
                  -9934491.746 6  -7741158.031 6  22181289.133    22181291.020
        13.500          14.000
                   1759406.896 5   1370966.967 5  23717234.430    23717235.883
        10.000           9.250
                   9108107.228 6   7097223.075 6  22279747.508    22279748.621
        15.750          14.250
                  -8521866.371 6  -6640410.879 6  21813772.602    21813773.168
        18.250          15.750
 95  4 21 16 33 15.0000000  0  7G 2G18G19G27G28G29G31
                  -5036587.710 5  -3924611.473 5  23411876.703    23411880.281
        10.500          11.000
                   1791842.860 6   1396240.370 6  20681042.438    20681043.914
        19.750          18.750
                  -2438782.791 6  -1900349.974 6  20780100.406    20780101.672
        19.000          19.500
                  -9959123.710 6  -7760351.762 6  22176601.703    22176603.461
        13.500          14.000
                   1789497.764 5   1394414.395 5  23722960.945    23722962.492
        10.250           9.500
                   9155658.732 6   7134276.182 6  22288796.414    22288797.145
        15.500          14.000
                  -8526412.026 6  -6643952.939 6  21812907.711    21812908.086
        18.000          15.500
 95  4 21 16 33 30.0000000  0  7G 2G18G19G27G28G29G31
                  -5068324.932 5  -3949341.760 5  23405837.375    23405841.008
        10.750          11.000
                   1820600.657 7   1418649.034 6  20686514.961    20686516.371
        20.250          19.000
                  -2438578.928 6  -1900191.126 6  20780139.109    20780140.395
        19.000          19.500
                  -9983715.938 6  -7779514.531 6  22171922.172    22171923.828
        13.500          14.000
                   1819727.593 5   1417970.098 5  23728712.406    23728713.973
         9.500           8.500
                   9203304.382 6   7171402.646 6  22297862.695    22297863.770
        15.000          13.750
                  -8530795.892 6  -6647368.930 6  21812073.234    21812073.711
        18.000          15.500
 95  4 21 16 33 45.0000000  0  7G 2G18G19G27G28G29G31
                  -5100006.275 5  -3974028.501 5  23399808.414    23399812.012
        10.750          11.000
                   1849490.336 7   1441160.465 6  20692012.523    20692013.777
        20.000          19.000
                  -2438315.140 6  -1899985.578 6  20780189.203    20780190.641
        18.750          19.250
                 -10008274.145 6  -7798650.790 6  22167248.883    22167250.652
        13.750          14.250
                   1850093.531 5   1441631.871 5  23734491.219    23734492.703
         9.750           8.500
                   9251038.300 6   7208597.884 6  22306946.117    22306947.559
        14.750          14.000
                  -8535020.237 6  -6650660.619 6  21811269.320    21811269.758
        18.000          15.500
 95  4 21 16 34  0.0000000  0  7G 2G18G19G27G28G29G31
                  -5131634.033 5  -3998673.491 5  23393789.977    23393793.461
        10.750          10.750
                   1878510.170 7   1463773.312 6  20697534.805    20697536.078
        20.250          19.000
                  -2437991.592 6  -1899733.462 6  20780250.766    20780252.188
        18.750          19.250
                 -10032802.667 6  -7817763.915 6  22162581.313    22162583.227
        13.750          14.750
                   1880593.493 5   1465398.063 5  23740295.320    23740297.402
         9.750           9.250
                   9298855.150 6   7245857.743 6  22316045.180    22316046.891
        14.500          14.000
                  -8539087.741 6  -6653830.094 6  21810495.188    21810495.949
        17.750          15.500
 95  4 21 16 34 15.0000000  0  7G 2G18G19G27G28G29G31
                  -5163204.719 5  -4023274.016 5  23387782.180    23387785.613
        11.000          10.750
                   1907663.100 7   1486489.870 6  20703082.438    20703083.656
        20.000          19.000
                  -2437610.534 6  -1899436.537 6  20780323.313    20780324.742
        19.000          19.250
                 -10057302.139 6  -7836854.405 6  22157919.078    22157920.926
        13.500          14.750
                   1911226.089 5   1489267.610 5  23746124.203    23746126.043
         9.500           8.750
                   9346755.865 6   7283182.951 6  22325160.594    22325161.945
        14.750          14.000
                  -8543003.604 6  -6656881.409 6  21809750.125    21809750.813
        17.750          15.500
 95  4 21 16 34 30.0000000  0  7G 2G18G19G27G28G29G31
                  -5194715.080 5  -4047827.524 5  23381785.992    23381789.359
        11.000          10.750
                   1936950.666 7   1509311.342 6  20708655.711    20708656.977
        20.000          18.750
                  -2437172.450 6  -1899095.173 6  20780406.664    20780408.074
        18.750          19.250
                 -10081774.359 6  -7855923.659 6  22153262.023    22153263.941
        13.500          14.750
                   1941992.585 5   1513241.511 5  23751979.039    23751980.480
         9.750           8.750
                   9394745.536 6   7320577.485 6  22334292.836    22334294.293
        14.750          14.000
                  -8546767.914 6  -6659814.623 6  21809033.945    21809034.578
        17.750          15.500
 95  4 21 16 34 45.0000000  0  7G 2G18G19G27G28G29G31
                  -5226162.092 5  -4072331.675 5  23375801.625    23375805.160
        11.000          10.750
                   1966372.291 7   1532237.274 6  20714254.344    20714255.730
        20.000          19.000
                  -2436679.265 6  -1898710.871 6  20780500.602    20780501.922
        19.000          19.500
                 -10106224.419 6  -7874975.643 6  22148609.234    22148611.332
        13.250          14.750
                   1972891.886 5   1537318.885 5  23757858.625    23757861.047
         9.250           9.000
                   9442827.075 6   7358043.598 6  22343442.148    22343443.848
        14.750          13.750
                  -8550381.436 6  -6662630.344 6  21808346.242    21808346.824
        18.000          15.250
 95  4 21 16 35  0.0000000  0  7G 2G18G19G27G28G29G31
                  -5257543.322 5  -4096784.566 5  23369830.164    23369833.746
        11.000          11.000
                   1995929.060 6   1555268.515 6  20719878.914    20719880.285
        19.750          19.000
                  -2436131.237 6  -1898283.838 6  20780605.031    20780606.262
        19.000          19.250
                 -10130654.757 6  -7894012.257 6  22143960.344    22143962.434
        13.250          14.500
                   2003923.509 5   1561499.342 5  23763763.828    23763766.676
         9.250           9.750
                   9491003.675 6   7395583.791 6  22352610.219    22352611.289
        14.750          13.750
                  -8553843.085 6  -6665327.731 6  21807687.641    21807687.805
        18.000          15.000
 95  4 21 16 35 15.0000000  0  7G 2G18G19G27G28G29G31
                  -5288853.845 5  -4121182.360 5  23363872.063    23363875.602
        11.250          11.250
                   2025619.835 6   1578404.177 6  20725528.867    20725530.152
        19.750          19.000
                  -2435528.427 6  -1897814.115 6  20780719.742    20780721.020
        19.000          19.500
                 -10155069.415 6  -7913036.651 6  22139314.289    22139316.082
        13.250          14.250
                   2035086.956 5   1585782.556 5  23769694.523    23769696.258
         9.750           9.250
                   9539272.632 6   7433195.951 6  22361795.367    22361796.402
        15.000          13.500
                  -8557151.521 6  -6667905.721 6  21807058.148    21807058.262
        18.250          15.250
 95  4 21 16 35 30.0000000  0  7G 2G18G19G27G28G29G31
                  -5320091.155 5  -4145523.115 5  23357927.539    23357931.297
        11.000          11.250
                   2055441.632 6   1601641.931 6  20731203.844    20731205.145
        19.750          19.000
                  -2434871.839 6  -1897302.492 6  20780844.688    20780845.871
        19.000          19.500
                 -10179468.331 6  -7932048.784 6  22134671.453    22134673.410
        13.250          14.500
                   2066380.399 5   1610167.058 5  23775649.172    23775650.914
         9.750           9.000
                   9587634.723 6   7470880.687 6  22370998.336    22370999.539
        15.000          13.500
                  -8560308.567 6  -6670365.750 6  21806457.266    21806457.375
        18.250          15.250
 95  4 21 16 35 45.0000000  0  7G 2G18G19G27G28G29G31
                  -5351249.680 5  -4169802.470 5  23351998.234    23352001.875
        11.000          11.000
                   2085397.407 6   1624984.082 6  20736904.055    20736905.484
        19.500          19.000
                  -2434158.788 6  -1896746.868 6  20780980.453    20780981.684
        19.000          19.500
                 -10203846.423 6  -7951044.687 6  22130032.414    22130034.477
        13.500          14.500
                   2097806.376 5   1634654.833 5  23781629.742    23781631.234
        10.000           9.000
                   9636092.812 6   7508640.215 6  22380219.852    22380221.113
        15.000          13.750
                  -8563309.908 6  -6672704.449 6  21805886.078    21805886.453
        18.250          15.500
 95  4 21 16 36  0.0000000  0  7G 2G18G19G27G28G29G31
                  -5382327.006 5  -4194018.546 5  23346084.406    23346088.168
        10.750          11.000
                   2115487.114 6   1648430.598 6  20742630.180    20742631.621
        19.500          19.000
                  -2433391.679 6  -1896149.118 6  20781126.375    20781127.762
        19.000          19.500
                 -10228201.059 6  -7970022.313 6  22125398.047    22125399.773
        13.750          14.500
                   2129364.977 5   1659245.964 5  23787635.508    23787637.141
        10.250           9.000
                   9684648.771 6   7546476.011 6  22389459.492    22389460.973
        15.000          13.750
                  -8566152.347 6  -6674919.331 6  21805345.172    21805345.559
        18.250          15.500
 95  4 21 16 36 15.0000000  0  7G 2G18G19G27G28G29G31
                  -5413316.628 5  -4218166.286 5  23340187.078    23340190.945
        10.500          10.750
                   2145715.555 6   1671985.217 6  20748382.266    20748383.754
        19.500          19.000
                  -2432567.396 6  -1895506.819 6  20781283.164    20781284.547
        19.000          19.500
                 -10252525.225 6  -7988976.201 6  22120769.297    22120770.945
        13.750          14.250
                   2161060.459 5   1683943.726 5  23793666.188    23793668.668
         9.250           9.250
                   9733309.265 6   7584393.269 6  22398719.531    22398720.934
        14.750          13.750
                  -8568831.361 6  -6677006.869 6  21804835.281    21804835.910
        18.250          16.000
 95  4 21 16 36 30.0000000  0  7G 2G18G19G27G28G29G31
                  -5444219.593 5  -4242246.505 5  23334306.523    23334310.012
        10.750          10.750
                   2176078.220 6   1695644.416 6  20754160.203    20754161.508
        19.500          18.750
                  -2431686.138 6  -1894820.129 6  20781450.758    20781452.125
        19.000          19.500
                 -10276819.176 6  -8007906.545 6  22116146.211    22116147.984
        13.750          14.500
                   2192891.868 5   1708747.421 5  23799723.750    23799725.293
         9.750           8.500
                   9782074.830 6   7622392.384 6  22407998.984    22408000.766
        14.250          13.750
                  -8571347.142 6  -6678967.215 6  21804356.352    21804357.281
        18.250          16.000
 95  4 21 16 36 45.0000000  0  7G 2G18G19G27G28G29G31
                  -5475037.353 5  -4266260.331 5  23328442.297    23328445.500
        11.000          10.750
                   2206573.219 6   1719406.745 6  20759963.055    20759964.672
        19.500          19.000
                  -2430746.550 6  -1894087.982 6  20781629.477    20781630.953
        19.000          19.500
                 -10301082.837 6  -8026813.279 6  22111528.984    22111530.992
        13.750          14.750
                   2224859.267 5   1733657.092 5  23805807.125    23805808.039
         9.750           8.000
                   9830941.052 6   7660469.943 6  22417298.023    22417299.949
        14.000          14.000
                  -8573696.973 6  -6680798.241 6  21803909.172    21803910.230
        18.000          16.250
 95  4 21 16 37  0.0000000  0  7G 2G18G19G27G28G29G31
                  -5505777.807 5  -4290213.909 5  23322592.273    23322596.230
        11.000          11.000
                   2237192.933 6   1743266.256 6  20765789.859    20765791.375
        19.500          18.750
                  -2429756.181 6  -1893316.262 6  20781817.953    20781819.523
        19.000          19.500
                 -10325315.792 6  -8045696.089 6  22106917.641    22106919.449
        13.750          14.500
                   2256955.889 5   1758667.459 5  23811914.883    23811917.395
         9.250           9.250
                   9879897.406 6   7698617.729 6  22426614.219    22426616.230
        14.000          14.250
                  -8575886.944 6  -6682504.703 6  21803492.453    21803493.684
        18.000          16.500
 95  4 21 16 37 15.0000000  0  7G 2G18G19G27G28G29G31
                  -5536441.653 5  -4314107.795 5  23316757.258    23316760.941
        11.000          11.250
                   2267936.744 6   1767222.459 6  20771639.930    20771641.602
        19.250          18.750
                  -2428710.481 6  -1892501.430 6  20782016.836    20782018.367
        19.000          19.500
                 -10349512.933 6  -8064550.995 6  22102312.945    22102314.898
        13.750          14.750
                   2289183.467 5   1783779.826 5  23818047.883    23818049.375
         9.750           8.500
                   9928940.394 6   7736833.027 6  22435946.156    22435948.668
        13.750          14.250
                  -8577916.318 6  -6684086.026 6  21803106.313    21803107.379
        18.000          16.500
 95  4 21 16 37 30.0000000  0  7G 2G18G19G27G28G29G31
                  -5567034.036 5  -4337946.000 5  23310935.813    23310939.590
        11.000          11.500
                   2298800.497 6   1791272.125 6  20777513.047    20777514.672
        19.500          18.500
                  -2427610.763 6  -1891644.504 6  20782226.234    20782227.645
        19.000          19.500
                 -10373673.145 6  -8083377.123 6  22097715.258    22097717.629
        13.750          14.750
                   2321538.898 5   1808991.868 5  23824204.758    23824205.594
         9.500           8.250
                   9978066.209 6   7775112.860 6  22445295.000    22445297.281
        13.750          14.250
                  -8579788.675 6  -6685544.997 6  21802749.781    21802750.902
        18.000          16.500
 95  4 21 16 37 45.0000000  0  7G 2G18G19G27G28G29G31
                  -5597555.665 5  -4361729.066 5  23305127.484    23305131.336
        11.000          11.250
                   2329787.913 6   1815418.150 6  20783409.984    20783411.484
        19.500          18.250
                  -2426453.598 6  -1890742.818 6  20782446.672    20782448.133
        19.250          19.500
                 -10397787.910 6  -8102167.841 6  22093126.414    22093128.531
        13.750          14.750
                   2354026.064 5   1834306.543 5  23830386.328    23830388.359
         9.250           8.500
                  10027279.872 6   7813461.144 6  22454659.875    22454662.254
        13.750          14.000
                  -8581499.142 6  -6686877.823 6  21802424.297    21802425.480
        18.000          16.500
 95  4 21 16 38  0.0000000  0  7G 2G18G19G27G28G29G31
                  -5628014.984 5  -4385463.588 5  23299331.289    23299334.941
        11.250          11.250
                   2360892.880 6   1839655.778 6  20789329.211    20789330.703
        19.250          18.250
                  -2425244.920 6  -1889800.989 6  20782676.781    20782678.125
        19.500          19.500
                 -10421863.546 6  -8120928.069 6  22088545.039    22088546.992
        13.750          14.750
                   2386639.260 5   1859719.400 5  23836592.844    23836595.000
         9.250           9.250
                  10076574.742 6   7851872.705 6  22464040.820    22464042.480
        14.000          13.750
                  -8583053.113 6  -6688088.708 6  21802128.531    21802129.992
        17.750          17.000
 95  4 21 16 38 15.0000000  0  7G 2G18G19G27G28G29G31
                  -5658412.402 5  -4409149.873 5  23293547.117    23293550.473
        11.750          11.250
                   2392117.503 6   1863986.646 6  20795271.055    20795272.328
        19.250          18.000
                  -2423981.098 6  -1888816.194 6  20782917.273    20782918.594
        19.500          19.500
                 -10445901.304 6  -8139658.778 6  22083970.789    22083972.910
        13.750          14.750
                   2419379.918 5   1885231.606 5  23842823.406    23842825.094
         9.750           8.750
                  10125953.594 6   7890349.712 6  22473437.328    22473439.152
        14.250          13.750
                  -8584451.929 6  -6689178.689 6  21801862.445    21801863.941
        17.750          17.000
 95  4 21 16 38 30.0000000  0  7G 2G18G19G27G28G29G31
                  -5688748.266 6  -4432788.193 5  23287774.430    23287777.609
        12.000          11.250
                   2423461.477 6   1888410.512 6  20801235.617    20801237.098
        19.000          18.000
                  -2422660.994 6  -1887787.543 6  20783168.453    20783169.848
        19.500          19.500
                 -10469904.889 6  -8158362.858 6  22079403.117    22079405.172
        14.000          14.750
                   2452246.602 5   1910841.999 5  23849078.109    23849078.695
        10.000           8.250
                  10175414.557 6   7928890.703 6  22482849.422    22482851.578
        14.250          13.750
                  -8585698.085 6  -6690149.708 6  21801625.398    21801626.965
        17.750          17.250
 95  4 21 16 38 45.0000000  0  7G 2G18G19G27G28G29G31
                  -5719019.463 5  -4456376.128 5  23282014.188    23282017.254
        11.750          11.000
                   2454930.007 6   1912931.431 6  20807223.672    20807225.172
        19.250          18.000
                  -2421279.959 6  -1886711.413 6  20783431.031    20783432.535
        19.500          19.500
                 -10493870.370 6  -8177037.252 6  22074842.656    22074844.523
        14.000          14.500
                   2485242.739 5   1936553.280 5  23855356.820    23855358.230
         9.750           8.750
                  10224959.022 6   7967496.756 6  22492277.016    22492279.449
        14.250          14.000
                  -8586786.687 6  -6690997.959 6  21801418.398    21801419.930
        17.750          17.500
 95  4 21 16 39  0.0000000  0  7G 2G18G19G27G28G29G31
                  -5749230.241 5  -4479916.979 5  23276265.133    23276268.457
        11.750          11.500
                   2486523.405 6   1937549.653 6  20813235.820    20813237.324
        19.250          18.000
                  -2419842.935 6  -1885591.653 6  20783704.547    20783705.996
        19.500          19.750
                 -10517799.422 6  -8195683.257 6  22070289.016    22070290.840
        14.000          14.500
                   2518364.789 5   1962362.656 5  23861659.445    23861660.758
         9.250           8.500
                  10274584.549 6   8006165.981 6  22501720.930    22501722.910
        14.250          13.750
                  -8587719.850 6  -6691725.097 6  21801240.703    21801242.070
        18.000          17.750
 95  4 21 16 39 15.0000000  0  7G 2G18G19G27G28G29G31
                  -5779379.308 5  -4503409.736 5  23270528.055    23270531.625
        11.750          11.750
                   2518246.396 6   1962268.858 6  20819272.461    20819273.977
        19.250          18.000
                  -2418346.706 6  -1884425.759 6  20783989.336    20783990.875
        19.500          19.750
                 -10541690.188 6  -8214299.434 6  22065742.938    22065744.617
        14.000          14.500
                   2551615.186 5   1988272.046 5  23867986.938    23867989.180
         9.250           9.500
                  10324296.743 6   8044902.729 6  22511180.820    22511183.047
        14.000          13.500
                  -8588496.990 6  -6692330.652 6  21801092.813    21801094.309
        18.000          17.750
 95  4 21 16 39 30.0000000  0  7G 2G18G19G27G28G29G31
                  -5809461.424 5  -4526850.317 5  23264803.383    23264806.828
        11.750          11.750
                   2550106.289 6   1987094.743 6  20825335.148    20825336.629
        19.000          18.000
                  -2416784.186 6  -1883208.215 6  20784286.727    20784288.203
        19.500          19.750
                 -10565541.227 6  -8232884.647 6  22061204.047    22061206.059
        14.000          14.750
                   2584997.976 5   2014284.596 5  23874338.992    23874340.863
         9.000           8.500
                  10374103.676 6   8083713.314 6  22520658.570    22520660.172
        14.000          13.000
                  -8589114.708 6  -6692811.983 6  21800975.266    21800976.793
        18.000          17.750
 95  4 21 16 39 45.0000000  0  7G 2G18G19G27G28G29G31
                  -5839483.572 6  -4550244.172 5  23259090.625    23259093.719
        12.000          11.750
                   2582095.540 6   2012021.419 6  20831422.578    20831424.047
        19.500          18.000
                  -2415167.132 6  -1881948.174 6  20784594.500    20784595.949
        19.500          19.750
                 -10589362.603 6  -8251446.751 6  22056670.953    22056673.000
        14.000          14.750
                   2618502.425 5   2040391.965 5  23880715.172    23880716.727
         9.500           8.750
                  10423995.594 6   8122590.111 6  22530152.617    22530154.566
        13.750          13.000
                  -8589582.089 6  -6693176.176 6  21800886.406    21800887.816
        17.750          18.000
 95  4 21 16 40  0.0000000  0  7G 2G18G19G27G28G29G31
                  -5869438.797 6  -4573585.887 5  23253390.336    23253393.262
        12.250          11.750
                   2614221.054 6   2037054.276 6  20837535.898    20837537.262
        19.500          18.000
                  -2413490.961 6  -1880642.064 6  20784913.555    20784914.922
        19.500          19.750
                 -10613153.466 6  -8269985.079 6  22052143.859    22052145.852
        14.250          14.750
                   2652133.355 5   2066597.872 5  23887114.547    23887116.613
         9.000           9.000
                  10473974.682 6   8161534.844 6  22539662.977    22539664.926
        13.250          12.500
                  -8589893.268 6  -6693418.646 6  21800826.867    21800828.641
        17.750          18.000
 95  4 21 16 40 15.0000000  0  7G 2G18G19G27G28G29G31
                  -5899329.369 6  -4596877.223 5  23247702.250    23247705.152
        12.000          11.500
                   2646482.369 6   2062192.957 6  20843675.078    20843676.547
        19.500          18.000
                  -2411756.888 6  -1879290.839 6  20785243.359    20785244.805
        19.500          19.500
                 -10636920.010 6  -8288504.454 6  22047621.070    22047623.246
        14.250          15.000
                   2685888.066 5   2092900.234 5  23893537.688    23893540.328
         9.000           9.250
                  10524038.140 6   8200545.312 6  22549189.367    22549192.059
        13.000          12.750
                  -8590049.948 6  -6693540.729 6  21800797.078    21800798.957
        17.500          18.250
 95  4 21 16 40 30.0000000  0  7G 2G18G19G27G28G29G31
                  -5929149.900 5  -4620113.990 5  23242027.352    23242030.262
        11.750          11.250
                   2678885.363 6   2087442.033 6  20849841.156    20849842.676
        19.500          18.250
                  -2409963.089 6  -1877893.073 6  20785584.906    20785586.281
        19.500          19.500
                 -10660656.336 6  -8307000.281 6  22043104.383    22043106.387
        14.250          15.000
                   2719770.361 5   2119302.004 5  23899985.453    23899987.457
         9.000           9.000
                  10574188.102 6   8239623.183 6  22558732.844    22558735.488
        13.000          13.000
                  -8590047.851 6  -6693539.091 6  21800797.461    21800799.449
        17.500          18.250
 95  4 21 16 40 45.0000000  0  7G 2G18G19G27G28G29G31
                  -5958908.141 5  -4643302.210 5  23236364.688    23236367.762
        11.750          11.500
                   2711422.654 6   2112795.756 6  20856032.664    20856034.105
        19.500          18.250
                  -2408117.786 6  -1876455.180 6  20785935.805    20785937.129
        19.500          19.500
                 -10684366.269 6  -8325475.552 6  22038592.555    22038594.344
        14.500          15.000
                   2753773.523 5   2145797.968 5  23906455.773    23906458.277
         8.750           9.250
                  10624415.908 6   8278761.706 6  22568291.359    22568293.551
        13.250          13.000
                  -8589893.073 6  -6693418.482 6  21800826.734    21800828.660
        17.250          18.250
 95  4 21 16 41  0.0000000  0  7G 2G18G19G27G28G29G31
                  -5988599.713 6  -4666438.476 5  23230714.727    23230717.699
        12.000          11.500
                   2744096.730 6   2138256.066 6  20862250.469    20862252.000
        19.500          18.250
                  -2406217.356 6  -1874974.321 6  20786297.391    20786298.766
        19.500          19.500
                 -10708045.868 6  -8343927.174 6  22034086.500    22034088.238
        14.750          15.000
                   2787902.273 5   2172391.780 5  23912950.070    23912952.762
         8.750           9.500
                  10674725.701 6   8317964.130 6  22577864.891    22577866.848
        13.250          13.000
                  -8589581.375 6  -6693175.593 6  21800886.031    21800888.102
        17.250          18.500
 95  4 21 16 41 15.0000000  0  7G 2G18G19G27G28G29G31
                  -6018240.873 6  -4689535.462 5  23225074.328    23225077.305
        12.500          11.750
                   2776890.204 6   2163809.411 6  20868490.930    20868492.523
        19.500          18.250
                  -2404276.049 6  -1873461.621 6  20786666.977    20786668.313
        19.250          19.500
                 -10731714.395 6  -8362370.176 6  22029582.492    22029584.102
        14.750          15.000
                   2822141.200 5   2199071.462 5  23919466.313    23919468.656
         9.250           9.750
                  10725104.059 6   8357219.975 6  22587451.508    22587453.602
        13.250          13.000
                  -8589129.576 6  -6692823.546 6  21800971.828    21800974.063
        17.000          18.750
 95  4 21 16 41 30.0000000  0  7G 2G18G19G27G28G29G31
                  -6047816.567 6  -4712581.438 5  23219446.367    23219449.328
        12.500          11.750
                   2809811.694 6   2189462.509 6  20874755.758    20874757.234
        19.500          18.250
                  -2402280.661 6  -1871906.772 6  20787046.563    20787047.984
        19.250          19.500
                 -10755362.415 6  -8380797.196 6  22025082.492    22025084.102
        14.750          15.000
                   2856502.374 5   2225846.372 5  23926005.133    23926006.750
         9.250           9.250
                  10775562.597 6   8396538.298 6  22597053.539    22597055.477
        13.000          12.750
                  -8588525.540 6  -6692352.865 6  21801087.273    21801089.387
        17.250          18.750
 95  4 21 16 41 45.0000000  0  7G 2G18G19G27G28G29G31
                  -6077315.259 6  -4735567.422 5  23213832.711    23213835.785
        12.250          11.500
                   2842865.435 6   2215218.660 6  20881045.805    20881047.270
        19.500          18.250
                  -2400226.817 6  -1870306.372 6  20787437.508    20787438.879
        19.500          19.500
                 -10778984.168 6  -8399203.748 6  22020587.305    22020589.000
        14.750          15.000
                   2890993.220 5   2252722.344 5  23932568.555    23932570.555
         9.500           9.750
                  10826105.802 6   8435922.591 6  22606671.742    22606673.590
        13.000          12.750
                  -8587760.079 6  -6691756.394 6  21801232.664    21801234.988
        17.000          19.000
 95  4 21 16 42  0.0000000  0  7G 2G18G19G27G28G29G31
                  -6106755.161 6  -4758507.587 5  23208230.414    23208233.504
        12.000          11.500
                   2876032.008 6   2241062.735 6  20887357.148    20887358.605
        19.750          18.500
                  -2398134.085 6  -1868675.671 6  20787835.836    20787837.039
        19.500          19.250
                 -10802597.128 6  -8417603.453 6  22016094.117    22016095.813
        15.000          15.000
                   2925597.357 5   2279686.602 5  23939152.555    23939155.207
         7.750           9.250
                  10876716.133 6   8475359.191 6  22616302.742    22616304.684
        13.000          12.750
                  -8586849.813 6  -6691047.093 6  21801405.742    21801408.258
        17.250          19.000
 95  4 21 16 42 15.0000000  0  7G 2G18G19G27G28G29G31
                  -6136130.358 6  -4781397.331 5  23202640.523    23202643.449
        12.000          11.250
                   2909318.732 6   2267000.429 6  20893691.367    20893692.773
        19.750          18.250
                  -2395991.672 6  -1867006.253 6  20788243.414    20788244.711
        19.500          19.000
                 -10826191.527 6  -8435988.691 6  22011604.203    22011605.766
        15.000          15.000
                   2960324.964 5   2306747.058 5  23945761.602    23945764.219
         9.250          10.000
                  10927405.502 6   8514857.377 6  22625948.367    22625950.879
        12.750          13.000
                  -8585786.192 6  -6690218.291 6  21801608.367    21801610.707
        17.250          19.250
 95  4 21 16 42 30.0000000  0  7G 2G18G19G27G28G29G31
                  -6165444.539 6  -4804239.538 5  23197062.297    23197064.961
        12.250          11.000
                   2942717.696 6   2293025.590 6  20900046.930    20900048.316
        19.750          18.250
                  -2393805.293 6  -1865302.581 6  20788659.266    20788660.477
        19.500          19.000
                 -10849767.362 6  -8454359.460 6  22007117.773    22007119.492
        15.000          15.000
                   2995170.846 5   2333899.669 5  23952392.680    23952394.461
         8.500           8.750
                  10978169.892 6   8554414.022 6  22635608.602    22635610.512
        13.000          12.750
                  -8584577.996 6  -6689276.831 6  21801838.305    21801840.625
        17.250          19.250
 95  4 21 16 42 45.0000000  0  7G 2G18G19G27G28G29G31
                  -6194687.429 6  -4827026.197 5  23191497.641    23191500.047
        12.500          11.000
                   2976235.421 6   2319143.288 6  20906425.047    20906426.285
        19.500          18.250
                  -2391566.514 6  -1863558.073 6  20789085.414    20789086.574
        19.250          19.000
                 -10873314.410 6  -8472707.800 6  22002636.961    22002638.656
        15.000          15.000
                   3030143.467 5   2361151.071 5  23959047.891    23959049.801
         9.250           9.250
                  11029019.087 6   8594036.753 6  22645284.680    22645287.590
        12.500          13.000
                  -8583217.535 6  -6688216.730 6  21802097.242    21802099.527
        17.750          19.250
 95  4 21 16 43  0.0000000  0  7G 2G18G19G27G28G29G31
                  -6223867.301 6  -4849763.759 5  23185944.969    23185947.586
        12.250          11.250
                   3009861.355 6   2345345.304 6  20912824.250    20912825.484
        19.750          18.250
                  -2389281.630 6  -1861777.647 6  20789520.219    20789521.262
        19.000          18.750
                 -10896840.749 6  -8491040.005 6  21998159.938    21998161.613
        15.000          15.250
                   3065234.585 5   2388494.773 5  23965725.008    23965727.734
         7.750          10.000
                  11079947.477 6   8633721.181 6  22654976.328    22654978.285
        13.000          12.500
                  -8581711.611 6  -6687043.276 6  21802383.875    21802385.945
        17.750          19.250
 95  4 21 16 43 15.0000000  0  7G 2G18G19G27G28G29G31
                  -6252980.850 6  -4872449.626 5  23180404.461    23180407.719
        12.000          11.500
                   3043600.768 6   2371635.745 6  20919244.531    20919245.828
        19.500          18.250
                  -2386948.137 6  -1859959.339 6  20789964.266    20789965.449
        19.250          18.750
                 -10920343.004 6  -8509353.442 6  21993687.656    21993689.203
        15.000          15.250
                   3100446.666 5   2415932.728 5  23972425.813    23972428.043
         8.500           9.000
                  11130957.961 6   8673469.587 6  22664683.430    22664685.641
        13.000          12.500
                  -8580057.528 6  -6685754.380 6  21802698.453    21802700.766
        17.500          19.000
 95  4 21 16 43 30.0000000  0  7G 2G18G19G27G28G29G31
                  -6282026.850 5  -4895082.853 5  23174876.945    23174880.637
        11.750          11.750
                   3077457.079 6   2398017.277 6  20925687.055    20925688.461
        19.500          18.500
                  -2384565.786 6  -1858102.962 6  20790417.625    20790418.707
        19.250          19.000
                 -10943815.467 6  -8527643.663 6  21989221.109    21989222.691
        15.000          15.250
                   3135780.378 5   2443465.497 5  23979149.797    23979151.945
         8.500           9.750
                  11182050.906 6   8713282.253 6  22674406.266    22674407.797
        13.250          12.250
                  -8578252.179 6  -6684347.618 6  21803041.977    21803044.074
        17.500          19.000
 95  4 21 16 43 45.0000000  0  7G 2G18G19G27G28G29G31
                  -6311004.246 6  -4917662.620 5  23169362.773    23169365.961
        12.000          11.500
                   3111432.321 6   2424491.480 6  20932152.148    20932153.617
        19.250          18.500
                  -2382134.748 6  -1856208.648 6  20790880.492    20790881.621
        19.250          19.000
                 -10967250.492 6  -8545904.718 6  21984761.406    21984763.051
        15.000          15.500
                   3171236.163 5   2471093.349 5  23985897.172    23985898.949
         9.000           9.750
                  11233226.002 6   8753158.935 6  22684144.727    22684146.363
        13.500          12.500
                  -8576294.837 6  -6682822.413 6  21803414.453    21803416.855
        17.250          19.250
 95  4 21 16 44  0.0000000  0  7G 2G18G19G27G28G29G31
                  -6339918.776 6  -4940193.409 5  23163860.727    23163863.508
        12.500          11.500
                   3145528.243 6   2451059.723 6  20938640.375    20938642.035
        19.000          18.750
                  -2379655.460 6  -1854276.735 6  20791352.172    20791353.359
        19.500          19.000
                 -10990645.976 6  -8564134.956 6  21980309.523    21980310.980
        15.000          15.500
                   3206812.869 5   2498815.457 5  23992666.453    23992668.926
         8.250           9.500
                  11284482.169 6   8793098.791 6  22693898.219    22693900.684
        13.250          12.750
                  -8574186.247 6  -6681179.353 6  21803815.594    21803817.949
        17.000          19.250
 95  4 21 16 44 15.0000000  0  7G 2G18G19G27G28G29G31
                  -6368777.080 6  -4962680.396 5  23158369.281    23158371.949
        12.500          11.500
                   3179743.599 6   2477721.028 6  20945151.273    20945153.137
        19.000          18.750
                  -2377129.017 6  -1852308.078 6  20791832.953    20791834.133
        19.500          19.000
                 -11014003.002 6  -8582335.231 6  21975864.742    21975866.246
        15.000          15.250
                   3242506.671 5   2526628.793 5  23999458.539    23999461.027
         7.500           9.750
                  11335818.052 6   8833100.759 6  22703667.328    22703669.215
        13.250          13.000
                  -8571928.609 6  -6679420.151 6  21804245.055    21804247.641
        17.000          19.250
 95  4 21 16 44 30.0000000  0  7G 2G18G19G27G28G29G31
                  -6397575.021 6  -4985120.343 5  23152889.391    23152891.941
        12.750          11.750
                   3214081.972 6   2504478.186 6  20951685.781    20951687.598
        19.000          18.750
                  -2374552.901 6  -1850300.717 6  20792323.109    20792324.297
        19.500          19.000
                 -11037317.473 6  -8600502.349 6  21971428.258    21971430.043
        15.000          15.500
                   3278319.340 5   2554534.760 5  24006274.367    24006276.156
         8.750           9.750
                  11387234.404 6   8873165.420 6  22713451.148    22713453.621
        13.250          12.750
                  -8569517.014 6  -6677540.984 6  21804703.813    21804706.441
        17.000          19.250
 95  4 21 16 44 45.0000000  0  7G 2G18G19G27G28G29G31
                  -6426308.809 6  -5007510.297 6  23147421.211    23147424.203
        12.500          12.000
                   3248547.709 6   2531334.597 6  20958244.336    20958246.285
        18.750          19.000
                  -2371923.325 6  -1848251.694 6  20792823.688    20792824.789
        19.500          18.750
                 -11060587.916 6  -8618635.148 6  21966999.984    21967001.750
        15.000          15.500
                   3314253.748 5   2582535.588 5  24013112.117    24013114.574
         8.000           9.750
                  11438733.246 6   8913294.363 6  22723251.711    22723253.020
        13.250          12.500
                  -8566946.057 6  -6675537.638 6  21805192.984    21805195.680
        16.750          19.250
 95  4 21 16 45  0.0000000  0  7G 2G18G19G27G28G29G31
                  -6454987.298 6  -5029857.160 6  23141963.633    23141966.918
        12.250          12.250
                   3283136.042 6   2558286.534 6  20964826.164    20964828.355
        18.750          19.000
                  -2369242.542 6  -1846162.779 6  20793333.664    20793334.742
        19.500          18.750
                 -11083822.655 6  -8636740.137 6  21962578.359    21962580.059
        14.750          15.500
                   3350303.584 5   2610626.344 5  24019972.117    24019974.340
         7.750           9.750
                  11490308.345 6   8953482.731 6  22733065.813    22733067.402
        13.000          12.500
                  -8564219.745 6  -6673413.238 6  21805711.773    21805714.590
        16.750          19.500
